Date StartTime U_cm/s V_cm/s W_cm/s Ustd_cm/s Vstd_cm/s Wstd_cm/s Uvar_(cm/s)^2 Vvar_(cm/s)^2 Wvar_(cm/s)^2 KE_(m/s)^2 TurbulentKE_(m/s)^2 HorizWindSpeed_cm/s FrictionSpeec_cm/s DragCoef SpeedOfSound_m/s SonicTemperature_C Pressure_mb 
01/11/2014  00:00:00       30.720       14.664        1.649        9.886        9.921        7.280       97.737       98.429       53.005        0.071        0.012       34.041        5.659        0.028      334.534        4.569      865.460
01/11/2014  00:01:00       10.566       -2.739        0.238       16.276       11.345        7.208      264.898      128.702       51.962        0.028        0.022       10.915        5.729        0.276      334.535        4.572      865.453
01/11/2014  00:02:00        1.720       -3.960       10.513        6.700        5.405        4.842       44.887       29.213       23.442        0.011        0.005        4.318        3.104        0.517      334.472        4.467      865.455
01/11/2014  00:03:00        9.872        6.055       17.806       11.006       15.076       10.518      121.143      227.294      110.631        0.046        0.023       11.581        9.464        0.668      334.384        4.322      865.454
01/11/2014  00:04:00        9.834       44.030       46.697       16.870       13.400       13.162      284.603      179.557      173.235        0.243        0.032       45.115       12.829        0.081      334.387        4.325      865.453
01/11/2014  00:05:00        5.390       37.006       46.240       16.262       17.566        8.914      264.466      308.551       79.454        0.209        0.033       37.397        8.798        0.055      334.346        4.258      865.457
01/11/2014  00:06:00       -3.135       32.157       58.155       14.065       24.378       13.973      197.816      594.289      195.251        0.271        0.049       32.310       14.688        0.207      334.482        4.484      865.475
01/11/2014  00:07:00       41.778      -60.678        4.413       32.034       30.443       15.690     1026.160      926.785      246.164        0.382        0.110       73.670       14.842        0.041      334.611        4.697      865.493
01/11/2014  00:08:00      -21.037      -37.141        3.635       27.250       25.074       17.448      742.549      628.691      304.436        0.176        0.084       42.685       12.753        0.089      334.084        3.823      865.503
01/11/2014  00:09:00      -56.151      -23.139        6.907       12.485       12.887       11.644      155.865      166.080      135.587        0.210        0.023       60.732        8.345        0.019      334.009        3.699      865.494
01/11/2014  00:10:00      -59.419      -37.404       -6.352       12.085        8.530        9.662      146.048       72.764       93.351        0.264        0.016       70.212        3.746        0.003      334.100        3.850      865.479
01/11/2014  00:11:00      -49.239      -11.774       -6.151       18.899       16.548        6.526      357.173      273.838       42.594        0.164        0.034       50.627        6.922        0.019      334.276        4.143      865.461
01/11/2014  00:12:00       10.391       -1.019       -4.389       15.673       14.796       10.368      245.629      218.920      107.505        0.035        0.029       10.441        9.065        0.754      334.551        4.599      865.450
01/11/2014  00:13:00      -23.151        2.491        4.320       29.059       23.294       14.054      844.408      542.609      197.514        0.107        0.079       23.284       15.125        0.422      334.417        4.376      865.445
01/11/2014  00:14:00      -67.992       -1.866      -13.534        5.648        6.201        7.939       31.903       38.456       63.025        0.247        0.007       68.018        1.760        0.001      334.137        3.912      865.450
01/11/2014  00:15:00      -72.939       -6.631       -7.633       18.154       13.969       10.940      329.554      195.120      119.678        0.303        0.032       73.239        8.813        0.014      333.997        3.679      865.444
01/11/2014  00:16:00      -43.390      -19.026       -2.178       12.228       10.861        9.073      149.534      117.956       82.318        0.130        0.017       47.378        5.348        0.013      334.026        3.727      865.423
01/11/2014  00:17:00      -50.441      -23.807       -8.020        7.562        9.240        7.258       57.190       85.378       52.677        0.169        0.010       55.777        4.044        0.005      334.148        3.929      865.405
01/11/2014  00:18:00      -55.755      -18.138       -2.879       11.802        8.445        6.899      139.296       71.317       47.591        0.185        0.013       58.631        5.747        0.010      334.145        3.925      865.378
01/11/2014  00:19:00      -17.751      -10.285       -1.351       10.261        9.882        2.520      105.292       97.655        6.352        0.032        0.010       20.516        3.126        0.023      334.198        4.011      865.341
01/11/2014  00:20:00      -33.783        2.768       -4.852        7.734        6.997        4.253       59.817       48.962       18.090        0.065        0.006       33.896        2.844        0.007      334.286        4.159      865.311
01/11/2014  00:21:00      -64.863       -9.659      -11.963        7.757       11.859        5.496       60.178      140.630       30.204        0.234        0.012       65.579        4.287        0.004      334.107        3.863      865.308
01/11/2014  00:22:00      -64.647      -26.984      -13.656        9.131       11.066        7.453       83.371      122.463       55.549        0.268        0.013       70.053        4.127        0.003      333.747        3.265      865.323
01/11/2014  00:23:00      -84.450        6.577      -12.456       13.401       13.717       13.435      179.587      188.152      180.507        0.394        0.027       84.706        9.731        0.013      333.798        3.349      865.335
01/11/2014  00:24:00      -83.721      -18.293       -9.758       24.766       26.552       15.142      613.335      705.019      229.266        0.449        0.077       85.697       13.539        0.025      333.786        3.329      865.351
01/11/2014  00:25:00     -111.826      -19.995       -7.912       54.261       36.011       19.027     2944.257     1296.799      362.027        0.878        0.230      113.599       24.039        0.045      333.695        3.177      865.376
01/11/2014  00:26:00     -106.687        2.333       -4.917       54.136       34.038       20.850     2930.654     1158.605      434.730        0.797        0.226      106.713       25.883        0.059      333.853        3.441      865.383
01/11/2014  00:27:00     -126.491      -17.666      -10.504       26.914       16.674       19.143      724.364      278.023      366.439        0.890        0.068      127.719       19.924        0.024      333.809        3.368      865.368
01/11/2014  00:28:00     -100.574      -15.464       -5.782       30.786       15.040       15.588      947.805      226.194      242.990        0.590        0.071      101.756       18.144        0.032      333.848        3.433      865.338
01/11/2014  00:29:00     -107.440      -22.911       -7.266       20.218       11.343       13.206      408.775      128.658      174.401        0.642        0.036      109.855       11.884        0.012      333.895        3.510      865.303
01/11/2014  00:30:00      -79.783      -25.881       -5.546       23.844       17.053       14.800      568.526      290.815      219.044        0.407        0.054       83.876       12.173        0.021      333.833        3.408      865.275
01/11/2014  00:31:00     -110.951       -9.651      -13.490       15.567       12.060        9.954      242.344      145.441       99.087        0.654        0.024      111.370        7.158        0.004      333.928        3.566      865.249
01/11/2014  00:32:00      -83.884      -11.729       -4.391       29.870       25.618       19.037      892.201      656.300      362.421        0.455        0.096       84.700       14.807        0.031      333.875        3.477      865.219
01/11/2014  00:33:00     -101.921        0.512       -4.217       28.459       19.179       12.671      809.941      367.835      160.564        0.587        0.067      101.922       13.983        0.019      334.016        3.710      865.194
01/11/2014  00:34:00      -58.113       -2.054       -0.872       28.830       14.106       11.737      831.154      198.973      137.765        0.227        0.058       58.150       14.574        0.063      333.973        3.641      865.168
01/11/2014  00:35:00      -47.536        0.264       -1.827       10.787        8.408        5.512      116.353       70.692       30.377        0.124        0.011       47.537        3.667        0.006      334.115        3.874      865.137
01/11/2014  00:36:00      -57.720      -11.782       -6.689        8.572       12.416        6.043       73.481      154.156       36.515        0.189        0.013       58.910        3.842        0.004      334.050        3.766      865.125
01/11/2014  00:37:00      -76.391      -13.309       -7.190       18.157       14.096        8.984      329.663      198.707       80.712        0.334        0.030       77.542        5.771        0.006      333.884        3.492      865.124
01/11/2014  00:38:00      -52.763       -7.296       -4.167       31.515       24.694       17.596      993.174      609.801      309.623        0.238        0.096       53.265       14.511        0.074      333.828        3.399      865.109
01/11/2014  00:39:00      -39.766       -3.180       -0.577       25.476       24.006       12.523      649.017      576.287      156.830        0.149        0.069       39.893        8.775        0.048      334.050        3.767      865.098
01/11/2014  00:40:00      -48.399       -7.747       -7.351       15.904       19.170       14.670      252.927      367.502      215.208        0.165        0.042       49.015        9.883        0.041      334.045        3.759      865.105
01/11/2014  00:41:00      -41.509      -18.924       -0.689       14.703       15.366       11.367      216.190      236.109      129.203        0.133        0.029       45.619        5.487        0.014      333.953        3.607      865.117
01/11/2014  00:42:00      -66.887      -13.085       -8.074       12.627       12.586        8.881      159.433      158.399       78.865        0.255        0.020       68.155        6.441        0.009      333.927        3.564      865.129
01/11/2014  00:43:00      -47.272      -26.644       -7.003       18.972       16.677        9.398      359.926      278.138       88.324        0.186        0.036       54.264        9.417        0.030      333.940        3.585      865.122
01/11/2014  00:44:00      -26.283      -10.125       -0.815       13.589       15.177        8.217      184.666      230.333       67.515        0.064        0.024       28.166        4.930        0.031      334.058        3.781      865.114
01/11/2014  00:45:00      -40.018      -13.447        0.179       19.618       16.376       14.013      384.865      268.182      196.355        0.132        0.042       42.217       11.476        0.074      334.295        4.174      865.101
01/11/2014  00:46:00      -18.608      -17.554        1.568       12.418       23.126       11.543      154.198      534.824      133.245        0.074        0.041       25.581        9.225        0.130      334.278        4.145      865.079
01/11/2014  00:47:00      -63.522      -39.737       -9.691       17.559       16.967       11.347      308.332      287.873      128.743        0.322        0.036       74.927        9.075        0.015      333.924        3.558      865.057
01/11/2014  00:48:00      -87.607      -13.085      -15.062       12.659       13.886        9.902      160.249      192.808       98.051        0.426        0.023       88.579        3.386        0.001      333.807        3.365      865.032
01/11/2014  00:49:00      -71.337        4.453      -13.947       14.102       11.217        6.992      198.856      125.829       48.890        0.284        0.019       71.476        5.456        0.006      334.259        4.113      864.994
01/11/2014  00:50:00      -63.778        9.763      -15.015        8.240       14.615        8.800       67.899      213.601       77.436        0.237        0.018       64.521        7.154        0.012      334.411        4.365      864.955
01/11/2014  00:51:00      -51.491      -35.804      -13.626       18.097       21.372       16.575      327.497      456.779      274.740        0.259        0.053       62.716        5.871        0.009      334.114        3.873      864.951
01/11/2014  00:52:00     -113.595      -53.779      -20.183       44.977       29.493       18.770     2022.938      869.827      352.307        0.972        0.162      125.682       18.589        0.022      333.705        3.194      864.976
01/11/2014  00:53:00     -104.310      -53.878      -12.477       43.927       29.879       23.318     1929.619      892.741      543.708        0.865        0.168      117.403       21.398        0.033      333.565        2.963      864.995
01/11/2014  00:54:00     -126.355      -11.707       -2.014       45.388       28.035       20.819     2060.095      785.972      433.420        0.969        0.164      126.896       18.671        0.022      333.449        2.770      864.987
01/11/2014  00:55:00      -59.153       -0.668        0.806       44.847       34.797       25.196     2011.277     1210.846      634.813        0.368        0.193       59.156       22.072        0.139      333.509        2.869      864.984
01/11/2014  00:56:00     -121.061      -26.381       -7.598       55.073       48.318       25.426     3033.048     2334.603      646.496        1.071        0.301      123.902       20.643        0.028      333.494        2.844      864.980
01/11/2014  00:57:00      -98.402        0.054       -3.538       79.682       49.314       39.980     6349.199     2431.872     1598.364        1.004        0.519       98.402       41.264        0.176      333.562        2.957      864.989
01/11/2014  00:58:00     -103.160        0.104      -15.245       69.600       52.349       42.865     4844.102     2740.456     1837.367        1.015        0.471      103.160       42.833        0.172      333.608        3.034      864.997
01/11/2014  00:59:00      -97.061       10.210       -5.369       59.613       45.630       30.406     3553.748     2082.076      924.547        0.806        0.328       97.596       29.669        0.092      333.582        2.991      864.993
01/11/2014  01:00:00     -102.122       13.999       -8.379       55.666       34.488       27.452     3098.702     1189.410      753.638        0.787        0.252      103.077       27.451        0.071      333.679        3.151      864.975
01/11/2014  01:01:00     -180.569       20.034      -12.397       49.551       38.330       28.646     2455.343     1469.202      820.614        1.895        0.237      181.677       25.298        0.019      333.686        3.161      864.980
01/11/2014  01:02:00     -194.932        3.545      -17.736       60.784       54.115       27.745     3694.727     2928.448      769.808        2.286        0.370      194.964       30.777        0.025      333.636        3.078      864.981
01/11/2014  01:03:00     -167.679       15.438      -10.057       46.261       40.000       33.493     2140.034     1599.973     1121.802        1.666        0.243      168.388       25.833        0.024      333.625        3.063      864.956
01/11/2014  01:04:00     -150.747       -8.616      -13.947       25.623       35.111       22.160      656.541     1232.775      491.073        1.269        0.119      150.993       15.591        0.011      333.570        2.970      864.928
01/11/2014  01:05:00     -155.443      -23.399      -12.345       32.673       38.762       19.073     1067.526     1502.499      363.763        1.390        0.147      157.194       14.746        0.009      333.637        3.082      864.904
01/11/2014  01:06:00     -160.150        9.056      -13.401       48.663       36.290       25.654     2368.067     1316.978      658.106        1.513        0.217      160.405       23.518        0.021      333.701        3.187      864.884
01/11/2014  01:07:00     -138.751       16.595      -10.920       57.170       47.550       25.744     3268.365     2260.988      662.767        1.292        0.310      139.740       23.325        0.028      333.667        3.132      864.886
01/11/2014  01:08:00     -181.181       29.182      -14.706       44.443       38.951       27.812     1975.148     1517.142      773.516        1.908        0.213      183.516       19.630        0.011      333.695        3.177      864.877
01/11/2014  01:09:00     -150.886       13.255      -20.497       47.489       44.825       25.690     2255.245     2009.311      659.958        1.414        0.246      151.467       16.954        0.013      333.804        3.359      864.873
01/11/2014  01:10:00      -84.627        8.970       -1.561       61.872       45.357       33.121     3828.129     2057.214     1097.004        0.711        0.349       85.101       21.462        0.064      333.763        3.292      864.853
01/11/2014  01:11:00      -52.834       24.035        1.312       45.915       36.279       28.345     2108.203     1316.188      803.448        0.380        0.211       58.044       21.413        0.136      333.978        3.649      864.822
01/11/2014  01:12:00      -27.893        2.398       -1.165       20.470       20.329       13.869      419.017      413.261      192.358        0.090        0.051       27.996       11.277        0.162      334.247        4.095      864.792
01/11/2014  01:13:00      -83.611      -22.973       -4.861       27.903       18.533       14.802      778.602      343.465      219.087        0.444        0.067       86.709        6.600        0.006      333.880        3.485      864.788
01/11/2014  01:14:00     -121.696      -26.180       -9.509       51.550       31.286       23.142     2657.444      978.812      535.531        0.988        0.209      124.480       26.617        0.046      333.679        3.151      864.803
01/11/2014  01:15:00     -136.924      -48.586       -4.614       31.083       40.524       22.189      966.164     1642.188      492.344        1.211        0.155      145.289       18.516        0.016      333.597        3.016      864.833
01/11/2014  01:16:00     -137.579      -26.238       -8.634       38.939       25.174       21.750     1516.254      633.709      473.065        1.116        0.131      140.058       17.663        0.016      333.641        3.088      864.842
01/11/2014  01:17:00      -90.817      -39.492       -4.505       30.936       24.033       12.104      957.037      577.563      146.498        0.575        0.084       99.032        9.286        0.009      333.721        3.221      864.819
01/11/2014  01:18:00      -62.012      -24.382        4.953       23.220       23.850       15.670      539.179      568.812      245.551        0.291        0.068       66.633       12.943        0.038      333.765        3.295      864.826
01/11/2014  01:19:00     -129.352      -36.256       -6.320       29.354       21.617       16.895      861.685      467.305      285.452        0.985        0.081      134.337       16.547        0.015      333.832        3.405      864.857
01/11/2014  01:20:00     -121.442      -22.914       -4.157       38.870       23.248       16.974     1510.865      540.481      288.129        0.881        0.117      123.585       17.583        0.020      333.880        3.484      864.886
01/11/2014  01:21:00     -150.625      -10.625      -16.889       20.787       12.596       11.537      432.115      158.670      133.093        1.190        0.036      151.000       11.516        0.006      333.953        3.606      864.890
01/11/2014  01:22:00     -155.583       -6.327      -18.670       26.855       17.073       19.578      721.177      291.493      383.307        1.300        0.070      155.711       16.322        0.011      333.876        3.479      864.892
01/11/2014  01:23:00     -124.137        7.345      -14.324       40.485       24.512       23.819     1639.029      600.856      567.335        0.924        0.140      124.354       17.344        0.019      333.899        3.516      864.877
01/11/2014  01:24:00     -165.806       16.852      -12.025       44.115       39.376       20.612     1946.176     1550.478      424.842        1.592        0.196      166.660       21.333        0.016      334.094        3.839      864.874
01/11/2014  01:25:00     -212.336       33.828      -14.990       26.110       26.429       18.080      681.729      698.479      326.871        2.408        0.085      215.014       10.927        0.003      334.005        3.691      864.883
01/11/2014  01:26:00     -239.158       54.646      -16.665       26.405       23.810       14.188      697.199      566.899      201.294        3.096        0.073      245.322        3.414        0.000      333.932        3.566      864.882
01/11/2014  01:27:00     -170.381       22.853      -15.359       34.904       30.940       19.289     1218.260      957.258      372.057        1.617        0.127      171.907       11.139        0.004      333.858        3.448      864.858
01/11/2014  01:28:00      -97.928      -13.016       -3.722       65.643       36.978       25.621     4308.976     1367.380      656.428        0.805        0.317       98.790       28.312        0.082      333.847        3.430      864.831
01/11/2014  01:29:00     -108.780      -52.342       -9.121       41.708       33.319       19.120     1739.598     1110.123      365.580        0.894        0.161      120.718        8.419        0.005      333.872        3.473      864.822
01/11/2014  01:30:00      -31.993      -27.842        1.728       30.055       24.458       22.003      903.275      598.176      484.128        0.189        0.099       42.411       20.682        0.238      333.830        3.403      864.818
01/11/2014  01:31:00      -68.753      -26.407       -3.893       32.334       26.312       16.155     1045.482      692.336      260.992        0.372        0.100       73.650       11.160        0.023      333.807        3.365      864.800
01/11/2014  01:32:00      -55.372      -20.265       -5.449       28.717       24.109       17.666      824.650      581.264      312.087        0.261        0.086       58.964       14.297        0.059      333.748        3.266      864.786
01/11/2014  01:33:00      -78.620      -19.001       -7.890       39.751       29.194       17.026     1580.156      852.307      289.872        0.466        0.136       80.883       14.606        0.033      333.718        3.216      864.788
01/11/2014  01:34:00     -100.769       -1.387      -15.970       23.227       18.257       12.927      539.513      333.303      167.108        0.573        0.052      100.779        8.660        0.007      333.745        3.262      864.801
01/11/2014  01:35:00      -88.862      -18.305      -14.307       21.582       25.900       16.988      465.798      670.801      288.582        0.493        0.071       90.728       14.121        0.024      333.789        3.334      864.818
01/11/2014  01:36:00     -130.408      -53.913      -21.623       30.133       44.325       23.450      907.971     1964.698      549.901        1.190        0.171      141.113       13.824        0.010      333.740        3.252      864.836
01/11/2014  01:37:00     -168.050      -30.223      -10.255       41.764       35.324       24.643     1744.193     1247.801      607.268        1.643        0.180      170.746       22.023        0.017      333.658        3.117      864.835
01/11/2014  01:38:00     -160.966      -34.012       -8.052       42.715       36.605       22.745     1824.547     1339.914      517.343        1.541        0.184      164.520       23.540        0.020      333.658        3.116      864.815
01/11/2014  01:39:00     -143.221      -39.461       -6.001       34.513       29.605       19.099     1191.117      876.448      364.755        1.227        0.122      148.558       18.562        0.016      333.642        3.090      864.809
01/11/2014  01:40:00     -127.114      -44.912       -7.779       41.819       37.061       19.351     1748.858     1373.513      374.458        1.087        0.175      134.815       20.580        0.023      333.630        3.069      864.795
01/11/2014  01:41:00     -129.460      -30.347       -4.697       44.682       44.484       22.316     1996.478     1978.843      498.006        1.109        0.224      132.970       19.921        0.022      333.682        3.156      864.783
01/11/2014  01:42:00     -125.338      -42.773       -4.386       47.551       35.000       21.401     2261.068     1224.969      458.020        1.075        0.197      132.435       24.718        0.035      333.742        3.257      864.793
01/11/2014  01:43:00     -142.674      -19.294       -4.600       41.047       32.351       21.836     1684.862     1046.560      476.827        1.198        0.160      143.972       24.548        0.029      333.613        3.041      864.773
01/11/2014  01:44:00     -152.752        5.493      -12.248       49.058       31.128       22.041     2406.702      968.971      485.800        1.369        0.193      152.851       23.114        0.023      333.711        3.203      864.778
01/11/2014  01:45:00      -99.834      -25.998       -7.092       28.053       33.048       20.011      786.969     1092.138      400.421        0.649        0.114      103.163        9.697        0.009      333.733        3.241      864.784
01/11/2014  01:46:00     -122.949      -43.581      -18.038       24.344       19.551       16.981      592.636      382.233      288.349        0.930        0.063      130.445       11.527        0.008      333.725        3.227      864.805
01/11/2014  01:47:00     -122.480      -38.707       -5.144       41.477       28.162       21.808     1720.335      793.072      475.609        0.976        0.149      128.451       24.965        0.038      333.676        3.145      864.813
01/11/2014  01:48:00     -125.295      -20.487       -6.261       46.822       27.382       16.122     2192.293      749.799      259.930        0.968        0.160      126.959       17.352        0.019      333.682        3.156      864.813
01/11/2014  01:49:00     -117.059      -52.999      -11.517       33.975       22.026       16.871     1154.294      485.154      284.629        0.928        0.096      128.498       18.857        0.022      333.753        3.274      864.791
01/11/2014  01:50:00      -91.435        3.390        0.025       24.998       28.147       18.670      624.888      792.271      348.573        0.507        0.088       91.498       12.960        0.020      333.747        3.264      864.748
01/11/2014  01:51:00     -154.580      -11.457      -17.231       57.468       41.121       20.894     3302.530     1690.973      436.547        1.488        0.272      155.004       15.594        0.010      333.678        3.147      864.738
01/11/2014  01:52:00     -163.196       14.550      -13.423       57.555       31.702       24.620     3312.611     1004.993      606.156        1.597        0.246      163.844       22.316        0.019      333.610        3.036      864.736
01/11/2014  01:53:00      -92.212       31.190      -10.871       35.478       35.179       21.749     1258.691     1237.533      473.006        0.628        0.148       97.344       10.451        0.012      333.695        3.178      864.712
01/11/2014  01:54:00      -60.741        6.637       -2.432       19.022       31.740       15.088      361.825     1007.419      227.643        0.267        0.080       61.103       15.465        0.064      333.805        3.360      864.679
01/11/2014  01:55:00      -38.851       -8.679        4.624       21.610       18.656       15.264      466.980      348.062      232.995        0.133        0.052       39.809        9.178        0.053      333.858        3.450      864.674
01/11/2014  01:56:00      -47.805      -14.699      -11.387       17.669       14.542       13.617      312.193      211.475      185.416        0.167        0.035       50.014        7.582        0.023      333.887        3.498      864.663
01/11/2014  01:57:00      -45.829       -4.682      -11.164       13.610       16.189        9.593      185.232      262.083       92.020        0.139        0.027       46.068        6.814        0.022      333.976        3.645      864.656
01/11/2014  01:58:00       -7.218       -5.890        1.882       14.480       10.080        8.488      209.665      101.597       72.041        0.024        0.019        9.316        9.684        1.080      334.022        3.721      864.643
01/11/2014  01:59:00       -3.540        5.951        8.871        8.781        8.335        6.198       77.114       69.474       38.419        0.016        0.009        6.924        3.059        0.195      333.923        3.555      864.646
01/11/2014  02:00:00      -51.319      -14.977       -5.895       26.847       12.129        8.803      720.746      147.115       77.487        0.192        0.047       53.460       11.779        0.049      333.887        3.498      864.658
01/11/2014  02:01:00      -71.954      -33.935       -8.129       19.947       13.863        8.704      397.876      192.184       75.764        0.353        0.033       79.554        4.162        0.003      333.677        3.147      864.675
01/11/2014  02:02:00      -71.056      -36.558       -7.379       19.835       17.638       15.678      393.427      311.089      245.808        0.369        0.048       79.909       13.813        0.030      333.652        3.106      864.683
01/11/2014  02:03:00      -93.876      -39.275       -4.734       22.904       25.422       12.674      524.616      646.262      160.643        0.585        0.067      101.761       12.029        0.014      333.652        3.106      864.696
01/11/2014  02:04:00      -93.486      -11.028       -7.355       19.924       16.264       11.182      396.954      264.531      125.031        0.485        0.039       94.134        7.885        0.007      333.652        3.106      864.684
01/11/2014  02:05:00      -94.686      -17.877       -7.814       14.118       14.250       12.641      199.322      203.062      159.791        0.495        0.028       96.359        5.937        0.004      333.666        3.129      864.686
01/11/2014  02:06:00      -50.107      -30.307       -4.014       20.698        8.627       10.110      428.402       74.427      102.205        0.203        0.030       58.560        7.370        0.016      333.679        3.153      864.684
01/11/2014  02:07:00      -13.101      -23.951        5.309       15.536       10.501        9.615      241.364      110.273       92.450        0.061        0.022       27.301        6.270        0.053      333.803        3.358      864.666
01/11/2014  02:08:00      -70.184      -13.605       -5.986       10.748        9.839        7.950      115.522       96.796       63.202        0.271        0.014       71.490        3.713        0.003      333.758        3.284      864.655
01/11/2014  02:09:00      -49.028       -4.770       -8.247        9.550        7.141        6.481       91.204       50.994       41.997        0.134        0.009       49.260        6.590        0.018      333.718        3.217      864.641
01/11/2014  02:10:00      -25.027      -26.828       -3.080       12.997        6.405        9.043      168.923       41.020       81.767        0.082        0.015       36.689        2.024        0.003      333.782        3.323      864.627
01/11/2014  02:11:00      -18.662      -27.622       -3.767       10.024       11.274        7.530      100.484      127.108       56.698        0.070        0.014       33.335        1.113        0.001      333.754        3.276      864.593
01/11/2014  02:12:00       -7.207        5.039        6.845       21.219        9.706       12.708      450.235       94.208      161.483        0.041        0.035        8.794       15.850        3.248      333.714        3.211      864.568
01/11/2014  02:13:00       53.015       38.819        3.677       27.305       25.777       27.050      745.581      664.459      731.699        0.324        0.107       65.707       14.630        0.050      333.481        2.824      864.567
01/11/2014  02:14:00       76.424       50.831       -2.014       26.354       21.437       17.993      694.553      459.549      323.735        0.495        0.074       91.784       10.870        0.014      333.370        2.642      864.596
01/11/2014  02:15:00       57.742       53.916        7.859       28.649       23.641       25.357      820.772      558.881      642.954        0.416        0.101       79.000       14.643        0.034      333.363        2.627      864.638
01/11/2014  02:16:00       17.950       27.295        5.257       30.363       34.491       15.939      921.926     1189.605      254.038        0.173        0.118       32.668       13.199        0.163      333.259        2.456      864.667
01/11/2014  02:17:00       33.047       48.588       -4.246       26.207       31.217       21.351      686.791      974.481      455.885        0.279        0.106       58.761       17.509        0.089      333.134        2.251      864.677
01/11/2014  02:18:00       14.903       21.025        0.149       19.474       18.353       12.681      379.227      336.843      160.800        0.077        0.044       25.771       10.570        0.168      333.096        2.188      864.694
01/11/2014  02:19:00        8.902       71.306       -8.271       21.986       23.697       16.353      483.404      561.569      267.417        0.327        0.066       71.860       14.306        0.040      333.131        2.246      864.733
01/11/2014  02:20:00        3.649       42.660        1.068       19.050       34.084       12.822      362.888     1161.703      164.401        0.176        0.084       42.816       14.198        0.110      333.196        2.351      864.750
01/11/2014  02:21:00       17.498      108.455      -14.923       17.424       18.817       12.796      303.585      354.066      163.736        0.656        0.041      109.857        7.129        0.004      333.143        2.263      864.731
01/11/2014  02:22:00       32.445      102.582      -10.942       22.879       30.001       22.400      523.429      900.038      501.756        0.681        0.096      107.591       19.697        0.034      333.153        2.281      864.663
01/11/2014  02:23:00       27.538       87.892      -10.020       31.420       35.585       25.118      987.223     1266.313      630.930        0.573        0.144       92.106       24.318        0.070      333.130        2.243      864.596
01/11/2014  02:24:00       19.922       47.648        5.714       28.279       36.033       21.130      799.729     1298.352      446.463        0.262        0.127       51.645       19.600        0.144      333.165        2.299      864.571
01/11/2014  02:25:00       16.049       76.860       -4.384       22.297       39.361       19.113      497.152     1549.279      365.313        0.430        0.121       78.518       16.850        0.046      333.258        2.455      864.555
01/11/2014  02:26:00       19.412       63.075       -7.560       16.283       27.383       13.947      265.123      749.837      194.510        0.281        0.060       65.995       12.190        0.034      333.373        2.644      864.547
01/11/2014  02:27:00        6.817       73.110       -9.184       13.951       19.172       10.483      194.636      367.562      109.884        0.307        0.034       73.428       10.879        0.022      333.517        2.883      864.542
01/11/2014  02:28:00        7.105       29.921       -1.782       10.175       11.942        6.090      103.539      142.608       37.085        0.062        0.014       30.753        5.393        0.031      333.590        3.006      864.557
01/11/2014  02:29:00       28.103       11.218       13.205       17.066       15.494       12.161      291.255      240.053      147.895        0.088        0.034       30.260        9.339        0.095      333.592        3.008      864.559
01/11/2014  02:30:00       69.806       39.989       12.367       11.955       13.025       11.930      142.916      169.643      142.320        0.354        0.023       80.449        8.099        0.010      333.470        2.805      864.521
01/11/2014  02:31:00       38.173       27.943        1.246       16.818        8.129        8.414      282.860       66.078       70.793        0.133        0.021       47.307        3.079        0.004      333.512        2.874      864.476
01/11/2014  02:32:00       24.166       31.861        0.137       14.775        9.130        7.986      218.303       83.359       63.775        0.098        0.018       39.989        6.120        0.023      333.571        2.973      864.434
01/11/2014  02:33:00       64.459       42.797       12.299       21.639       14.632       15.633      468.242      214.081      244.401        0.353        0.046       77.373       11.301        0.021      333.587        3.000      864.390
01/11/2014  02:34:00       23.398       30.780       -4.496       31.045       14.985       13.663      963.817      224.542      186.668        0.144        0.069       38.664       12.347        0.102      333.608        3.034      864.391
01/11/2014  02:35:00      -73.294       -3.575      -11.215       32.011       15.854       11.040     1024.735      251.351      121.882        0.345        0.070       73.381       12.160        0.027      333.352        2.610      864.428
01/11/2014  02:36:00      -74.585        4.681      -10.346       37.757       20.476       15.515     1425.619      419.278      240.719        0.389        0.104       74.731       10.366        0.019      333.213        2.378      864.420
01/11/2014  02:37:00      -41.479        9.118       -7.670       13.071        9.106        5.988      170.854       82.925       35.858        0.108        0.014       42.470        2.280        0.003      333.474        2.813      864.379
01/11/2014  02:38:00       -7.678        1.274        0.294       13.510       12.091        9.774      182.521      146.186       95.530        0.024        0.021        7.783        9.085        1.362      333.590        3.004      864.348
01/11/2014  02:39:00        5.799      -36.010       12.752       18.812       24.296       22.007      353.896      590.279      484.319        0.146        0.071       36.474       16.708        0.210      333.677        3.148      864.345
01/11/2014  02:40:00        9.494      -30.833        2.137       24.720       28.606       24.598      611.099      818.309      605.073        0.154        0.102       32.262       18.149        0.316      333.631        3.073      864.333
01/11/2014  02:41:00       15.673      -62.073      -17.298       36.254       29.731       11.893     1314.349      883.952      141.452        0.337        0.117       64.021       17.905        0.078      333.745        3.261      864.315
01/11/2014  02:42:00      -84.749        4.326      -13.200       30.576       21.739       12.624      934.913      472.595      159.376        0.447        0.078       84.860        5.803        0.005      333.450        2.773      864.290
01/11/2014  02:43:00     -155.593       -4.324      -13.563       42.304       21.281       20.458     1789.625      452.882      418.547        1.354        0.133      155.653       23.204        0.022      333.122        2.230      864.280
01/11/2014  02:44:00      -95.012        1.775       -0.382       50.735       28.787       25.916     2574.030      828.695      671.630        0.655        0.204       95.029       29.915        0.099      333.080        2.161      864.262
01/11/2014  02:45:00      -88.251       -2.116       -2.643       41.501       25.958       20.417     1722.321      673.816      416.849        0.531        0.141       88.277       19.413        0.048      333.186        2.336      864.247
01/11/2014  02:46:00     -111.256      -27.166      -11.747       15.334       18.073        9.220      235.129      326.617       85.016        0.695        0.032      114.525        8.301        0.005      333.266        2.468      864.246
01/11/2014  02:47:00     -106.349      -47.723        1.344       29.897       19.000       19.660      893.843      360.993      386.512        0.762        0.082      116.566       16.744        0.021      333.272        2.477      864.246
01/11/2014  02:48:00      -81.848      -59.803        2.492       30.611       23.239       21.745      937.058      540.054      472.841        0.612        0.097      101.368        9.189        0.008      333.326        2.567      864.220
01/11/2014  02:49:00      -43.550      -38.350        6.649       37.998       18.576       13.313     1443.819      345.066      177.240        0.269        0.098       58.029        8.386        0.021      333.422        2.727      864.179
01/11/2014  02:50:00       21.444        8.026       14.138       21.558       18.854       17.040      464.734      355.474      290.377        0.092        0.056       22.897       14.437        0.398      333.513        2.877      864.127
01/11/2014  02:51:00       -4.081        6.359       17.624       15.999       22.768       12.302      255.982      518.378      151.327        0.065        0.046        7.556       10.091        1.784      333.506        2.865      864.099
01/11/2014  02:52:00      -74.426      -28.597       -4.189       41.514       24.755       18.865     1723.421      612.827      355.880        0.453        0.135       79.731       19.689        0.061      333.539        2.920      864.098
01/11/2014  02:53:00     -133.316      -35.294       -3.416       37.999       34.785       15.443     1443.916     1210.002      238.479        1.096        0.145      137.909       12.899        0.009      333.232        2.413      864.106
01/11/2014  02:54:00     -130.509      -43.477       -8.462       32.803       27.486       20.989     1076.011      755.483      440.555        1.063        0.114      137.561       10.967        0.006      333.104        2.200      864.096
01/11/2014  02:55:00     -106.266      -38.376       -8.680       23.693       20.618       18.226      561.380      425.098      332.178        0.708        0.066      112.983       16.515        0.021      333.161        2.295      864.064
01/11/2014  02:56:00      -74.936      -35.758       -5.770       21.799       17.986        9.976      475.196      323.510       99.522        0.391        0.045       83.031       10.202        0.015      333.374        2.647      864.021
01/11/2014  02:57:00      -55.959      -22.384       -3.153       22.164       10.874        9.373      491.247      118.243       87.860        0.217        0.035       60.270       11.062        0.034      333.449        2.770      864.013
01/11/2014  02:58:00     -108.645      -17.327      -12.634       18.244       11.276        8.951      332.838      127.148       80.121        0.640        0.027      110.018        7.934        0.005      333.431        2.739      864.011
01/11/2014  02:59:00     -136.342      -33.282      -14.449       19.839       17.111       15.324      393.570      292.802      234.825        1.041        0.046      140.345       10.706        0.006      333.318        2.554      864.013
01/11/2014  03:00:00     -131.016      -38.484       -8.571       38.615       33.852       21.729     1491.121     1145.961      472.131        1.091        0.155      136.551       19.899        0.021      333.108        2.208      864.026
01/11/2014  03:01:00      -27.708      -13.453       13.673       49.128       37.428       18.024     2413.569     1400.842      324.864        0.264        0.207       30.801       20.651        0.450      333.164        2.299      864.019
01/11/2014  03:02:00      -10.517      -22.098       13.185       21.555       16.729       16.165      464.604      279.866      261.292        0.089        0.050       24.473        9.248        0.143      333.347        2.602      863.985
01/11/2014  03:03:00      -94.540      -30.683       -9.281       38.082       14.001        9.869     1450.238      196.019       97.405        0.585        0.087       99.395       10.437        0.011      333.570        2.970      863.965
01/11/2014  03:04:00     -143.419      -40.456      -12.177       37.839       31.705       19.510     1431.827     1005.204      380.644        1.259        0.141      149.015       16.410        0.012      333.216        2.384      863.979
01/11/2014  03:05:00      -49.626        2.120        0.252       37.316       37.377       24.521     1392.514     1397.071      601.282        0.293        0.170       49.671       18.333        0.136      333.117        2.222      863.984
01/11/2014  03:06:00      -98.009       23.189       -5.319       70.548       37.746       21.249     4977.005     1424.737      451.527        0.851        0.343      100.715       28.286        0.079      333.509        2.871      863.996
01/11/2014  03:07:00     -131.264       -2.439      -12.763       34.169       38.252       19.240     1167.494     1463.215      370.161        1.020        0.150      131.287       13.813        0.011      333.497        2.852      864.006
01/11/2014  03:08:00     -182.570      -14.041      -12.899       58.422       30.724       26.301     3413.072      943.964      691.726        1.937        0.252      183.109       24.647        0.018      333.359        2.620      864.011
01/11/2014  03:09:00     -149.260       54.604       -8.735       63.611       31.582       28.502     4046.326      997.438      812.337        1.560        0.293      158.934       28.076        0.031      333.461        2.790      863.986
01/11/2014  03:10:00      -84.183       56.291       -9.167       38.215       34.677       22.874     1460.352     1202.464      523.235        0.676        0.159      101.270       18.971        0.035      333.813        3.374      863.945
01/11/2014  03:11:00      -95.788       -8.152      -20.391       34.054       40.758       15.951     1159.660     1661.200      254.427        0.637        0.154       96.134       15.648        0.026      333.756        3.281      863.945
01/11/2014  03:12:00     -175.378      -26.136      -12.857       40.294       38.742       24.551     1623.597     1500.954      602.771        1.767        0.186      177.315       22.959        0.017      333.521        2.890      864.001
01/11/2014  03:13:00      -57.240      -16.909        2.396       70.343       39.729       30.758     4948.190     1578.391      946.073        0.552        0.374       59.685       35.947        0.363      333.342        2.594      864.040
01/11/2014  03:14:00      -49.097       19.156      -12.113       27.711       19.224       21.751      767.923      369.567      473.126        0.227        0.081       52.702       18.573        0.124      333.466        2.799      864.061
01/11/2014  03:15:00       12.803        4.696        0.641       18.433       13.131       17.217      339.779      172.416      296.437        0.050        0.040       13.637       13.440        0.971      333.805        3.361      864.030
01/11/2014  03:16:00      -47.810      -31.476       -4.504       37.793       24.025       17.333     1428.347      577.198      300.424        0.280        0.115       57.241       16.368        0.082      333.744        3.260      864.003
01/11/2014  03:17:00      -97.863       -7.747       -5.402       30.527       25.881       13.543      931.928      669.818      183.418        0.573        0.089       98.169       11.984        0.015      333.485        2.830      863.987
01/11/2014  03:18:00      -15.084       -1.926       -5.775       61.426       32.276       17.505     3773.145     1041.709      306.432        0.269        0.256       15.206       19.443        1.635      333.403        2.695      863.954
01/11/2014  03:19:00        6.622      -35.407       -1.803       26.719       27.033       20.961      713.882      730.758      439.369        0.159        0.094       36.021       17.639        0.240      333.564        2.962      863.934
01/11/2014  03:20:00      -96.187      -17.397      -13.706       13.117       10.653       11.959      172.043      113.496      143.020        0.509        0.021       97.748        6.399        0.004      333.512        2.874      863.956
01/11/2014  03:21:00      -49.181      -29.859      -12.949       20.258       20.155       10.432      410.396      406.223      108.826        0.220        0.046       57.536        7.233        0.016      333.627        3.066      863.936
01/11/2014  03:22:00      -48.643       -4.417       -4.069       10.458       20.501        8.477      109.367      420.285       71.866        0.150        0.030       48.843        7.955        0.027      333.808        3.367      863.902
01/11/2014  03:23:00      -69.602       46.816      -16.358       17.184       18.873       17.158      295.276      356.176      294.400        0.412        0.047       83.882       11.613        0.019      334.082        3.821      863.816
01/11/2014  03:24:00     -117.930      -15.102      -16.940       13.328       30.222       10.378      177.627      913.360      107.713        0.781        0.060      118.893       10.001        0.007      333.667        3.132      863.799
01/11/2014  03:25:00      -93.783      -28.339      -15.040       12.308       12.972        9.088      151.486      168.271       82.587        0.511        0.020       97.971        6.235        0.004      333.632        3.074      863.798
01/11/2014  03:26:00     -105.401       -8.323      -11.334       36.576       19.386       17.683     1337.791      375.830      312.671        0.667        0.101      105.729       18.213        0.030      333.309        2.539      863.757
01/11/2014  03:27:00      -61.548       46.190      -10.744       32.850       44.281       30.750     1079.099     1960.804      945.548        0.501        0.199       76.953       28.790        0.140      333.445        2.765      863.726
01/11/2014  03:28:00      -72.508      -15.721      -14.025       29.946       39.012       16.732      896.787     1521.937      279.958        0.420        0.135       74.193       12.798        0.030      333.357        2.617      863.735
01/11/2014  03:29:00      -73.682      -49.821       -8.351       35.100       30.045       21.962     1232.009      902.726      482.336        0.530        0.131       88.945       14.647        0.027      333.228        2.405      863.725
01/11/2014  03:30:00      -24.669       11.811       -3.911       24.444       33.857       17.434      597.494     1146.310      303.937        0.141        0.102       27.350       21.184        0.600      333.324        2.563      863.649
01/11/2014  03:31:00      -77.607      -28.330      -14.387       26.777       25.379       11.744      716.989      644.110      137.918        0.427        0.075       82.616       14.012        0.029      333.407        2.701      863.634
01/11/2014  03:32:00      -45.988      -20.601       -8.029       26.146       32.315       14.391      683.613     1044.248      207.102        0.227        0.097       50.391       16.439        0.106      333.385        2.664      863.628
01/11/2014  03:33:00       70.354       30.547        8.447       28.216       20.617       16.599      796.120      425.061      275.517        0.373        0.075       76.699        7.951        0.011      333.653        3.109      863.563
01/11/2014  03:34:00      -14.363       -3.112       20.868       23.508       39.281       30.004      552.642     1543.003      900.260        0.182        0.150       14.696       28.927        3.874      333.537        2.917      863.540
01/11/2014  03:35:00     -104.895      -31.070      -10.292       38.812       34.910       19.434     1506.377     1218.717      377.689        0.759        0.155      109.400       17.427        0.025      333.342        2.593      863.560
01/11/2014  03:36:00      -49.937      -37.260       11.108       45.491       26.277       23.640     2069.453      690.467      558.871        0.366        0.166       62.306       26.764        0.185      333.162        2.295      863.566
01/11/2014  03:37:00       13.316       30.999       13.252       30.166       18.440       21.967      909.989      340.024      482.568        0.152        0.087       33.738       18.276        0.293      333.203        2.362      863.500
01/11/2014  03:38:00       52.092       63.477       -1.883       25.113       20.733       20.045      630.684      429.853      401.816        0.410        0.073       82.116       15.657        0.036      333.275        2.482      863.425
01/11/2014  03:39:00       23.013       64.009       -8.860       16.504       20.023       10.533      272.384      400.901      110.953        0.274        0.039       68.020        7.723        0.013      333.442        2.758      863.402
01/11/2014  03:40:00       -2.209       46.017      -10.498        6.021       10.826        5.553       36.251      117.207       30.839        0.121        0.009       46.070        3.589        0.006      333.686        3.163      863.384
01/11/2014  03:41:00        0.064       31.842       -3.067        9.946       13.586        5.546       98.915      184.571       30.761        0.067        0.016       31.842        1.973        0.004      333.768        3.299      863.366
01/11/2014  03:42:00      -13.003        4.650        2.971       15.943       29.063        8.861      254.169      844.651       78.526        0.069        0.059       13.809       12.062        0.763      333.655        3.112      863.397
01/11/2014  03:43:00       29.475      -93.583      -17.415       24.288       26.720       18.694      589.905      713.972      349.451        0.579        0.083       98.115       19.135        0.038      333.687        3.165      863.476
01/11/2014  03:44:00       39.388      -51.932       -2.235       29.551       55.293       27.905      873.285     3057.325      778.682        0.448        0.235       65.179       27.096        0.173      333.730        3.236      863.515
01/11/2014  03:45:00      -25.510       -4.256       11.550       16.781       25.727       21.751      281.604      661.893      473.118        0.111        0.071       25.863       20.671        0.639      333.591        3.007      863.513
01/11/2014  03:46:00      -59.929      -42.770       -1.581       20.072       17.707       12.215      402.892      313.532      149.208        0.314        0.043       73.626       10.386        0.020      333.533        2.908      863.521
01/11/2014  03:47:00       12.390       -5.627        8.544       21.012       15.110       12.104      441.502      228.310      146.508        0.054        0.041       13.608       14.200        1.089      333.581        2.989      863.496
01/11/2014  03:48:00       21.426       33.461       12.030       12.706        8.459       11.798      161.440       71.560      139.188        0.105        0.019       39.733       10.090        0.064      333.576        2.981      863.417
01/11/2014  03:49:00       -9.587       33.003       -7.177       15.135       10.968        4.178      229.074      120.307       17.458        0.080        0.018       34.367        6.506        0.036      333.736        3.247      863.395
01/11/2014  03:50:00      -56.476       -7.005       -8.996       23.949       25.777       12.406      573.568      664.436      153.914        0.236        0.070       56.909       12.212        0.046      333.587        2.999      863.417
01/11/2014  03:51:00     -134.047      -25.583      -16.280       19.886       15.003       10.171      395.448      225.100      103.443        0.981        0.036      136.466        7.493        0.003      333.183        2.330      863.437
01/11/2014  03:52:00      -69.108      -34.113       -7.990       27.185       12.278       15.233      739.019      150.743      232.047        0.356        0.056       77.069       15.500        0.040      333.170        2.310      863.448
01/11/2014  03:53:00       -1.445      -35.861       11.265       17.562       11.483       13.469      308.422      131.848      181.410        0.102        0.031       35.890       10.792        0.090      333.353        2.612      863.417
01/11/2014  03:54:00      -18.653       -4.317        3.805        8.995       13.913       10.243       80.906      193.583      104.912        0.038        0.019       19.146        6.337        0.110      333.536        2.915      863.394
01/11/2014  03:55:00      -33.016       16.715        0.083        8.900        6.086        7.317       79.204       37.041       53.532        0.077        0.008       37.006        4.302        0.014      333.545        2.930      863.363
01/11/2014  03:56:00      -41.544       15.062       -7.580       11.061       11.657        7.111      122.346      135.883       50.564        0.116        0.015       44.190        5.049        0.013      333.327        2.567      863.342
01/11/2014  03:57:00      -54.719      -24.273       -8.633       12.121        7.061        5.718      146.918       49.855       32.697        0.194        0.011       59.861        2.830        0.002      333.371        2.641      863.364
01/11/2014  03:58:00     -120.476      -43.753      -13.365       31.961       14.241       12.216     1021.491      202.818      149.239        0.899        0.069      128.175        5.128        0.002      333.212        2.378      863.399
01/11/2014  03:59:00     -176.277      -47.759      -17.850       25.652       34.960       18.159      658.005     1222.181      329.734        1.794        0.110      182.632       12.360        0.005      332.990        2.012      863.456
01/11/2014  04:00:00      -91.399       29.703       -3.527       52.145       32.534       27.890     2719.133     1058.474      777.866        0.690        0.228       96.105       25.150        0.068      333.089        2.176      863.453
01/11/2014  04:01:00      -72.339       73.792       -3.496       52.550       31.245       31.736     2761.535      976.238     1007.163        0.772        0.237      103.335       26.024        0.063      333.469        2.803      863.392
01/11/2014  04:02:00      -13.463       60.109       -0.433       20.886       31.351       16.226      436.243      982.914      263.275        0.274        0.084       61.598       12.064        0.038      333.706        3.196      863.310
01/11/2014  04:03:00        8.726      -13.929       11.623       28.492       14.587       17.370      811.806      212.777      301.731        0.087        0.066       16.437       18.467        1.262      333.777        3.314      863.318
01/11/2014  04:04:00      -48.463       -9.022       -4.840        8.577       13.753        7.351       73.566      189.141       54.037        0.139        0.016       49.296        3.099        0.004      333.510        2.872      863.376
01/11/2014  04:05:00     -102.267       -4.709      -14.203       40.579       18.606       10.498     1646.648      346.186      110.208        0.639        0.105      102.375       16.662        0.026      333.333        2.578      863.385
01/11/2014  04:06:00     -224.523      -56.418      -15.085       60.760       43.996       24.122     3691.751     1935.669      581.863        3.001        0.310      231.503       20.906        0.008      333.052        2.110      863.427
01/11/2014  04:07:00     -158.031       65.617      -16.621       76.713       64.095       26.644     5884.955     4108.208      709.897        2.013        0.535      171.112       24.812        0.021      333.134        2.250      863.394
01/11/2014  04:08:00      -81.611      133.328      -14.340       34.713       42.599       18.059     1204.992     1814.667      326.119        1.399        0.167      156.323       22.444        0.021      333.895        3.510      863.292
01/11/2014  04:09:00      -99.329        5.839      -16.782       33.408       70.806       23.774     1116.115     5013.503      565.214        0.844        0.335       99.501       22.226        0.050      333.516        2.881      863.364
01/11/2014  04:10:00      -25.822      -28.505       -6.263       67.778       24.829       24.327     4593.877      616.470      591.823        0.366        0.290       38.462       18.725        0.237      333.438        2.752      863.466
01/11/2014  04:11:00      -18.773       -6.655       17.118       12.473       29.949       16.778      155.573      896.965      281.486        0.101        0.067       19.918       18.931        0.903      333.439        2.754      863.411
01/11/2014  04:12:00        8.981       18.941       22.139       21.418       16.453       17.829      458.725      270.689      317.874        0.099        0.052       20.963       14.568        0.483      333.522        2.893      863.265
01/11/2014  04:13:00      -90.553       31.056      -12.726       51.926       24.095       14.368     2696.336      580.560      206.444        0.640        0.174       95.730       15.295        0.026      333.349        2.604      863.226
01/11/2014  04:14:00     -218.022      -18.939      -22.099       67.140       33.125       24.881     4507.793     1097.261      619.076        2.730        0.311      218.843       22.501        0.011      333.166        2.299      863.318
01/11/2014  04:15:00     -191.932      -54.912      -13.601       57.549       49.467       29.033     3311.921     2447.001      842.910        2.332        0.330      199.633       29.191        0.021      333.236        2.417      863.398
01/11/2014  04:16:00     -165.337       15.310      -18.698       56.610       49.038       25.332     3204.672     2404.701      641.695        1.708        0.313      166.045       26.513        0.025      333.341        2.592      863.388
01/11/2014  04:17:00     -128.664       74.090      -11.079       69.999       37.037       29.573     4899.847     1371.729      874.534        1.466        0.357      148.471       22.865        0.024      333.721        3.221      863.329
01/11/2014  04:18:00      -73.300      106.523      -11.411       32.356       31.628       25.974     1046.885     1000.336      674.635        0.979        0.136      129.306       21.705        0.028      334.155        3.942      863.193
01/11/2014  04:19:00       16.740       54.537        2.072       39.954       31.884       14.168     1596.347     1016.604      200.726        0.304        0.141       57.049       17.447        0.094      333.931        3.568      863.108
01/11/2014  04:20:00      -44.593       39.425      -13.915       39.759       65.952       14.639     1580.764     4349.683      214.286        0.494        0.307       59.522       13.065        0.048      333.697        3.182      863.155
01/11/2014  04:21:00     -147.464      -64.047      -18.749       29.586       26.191       16.922      875.323      685.988      286.370        1.402        0.092      160.772       10.678        0.004      333.358        2.619      863.282
01/11/2014  04:22:00      -54.475      -36.679       -2.603       50.861       25.316       18.353     2586.805      640.875      336.823        0.394        0.178       65.673       21.375        0.106      333.302        2.528      863.302
01/11/2014  04:23:00       21.102        9.906       13.484       33.670       29.994       15.015     1133.636      899.668      225.439        0.149        0.113       23.311       21.408        0.843      333.618        3.050      863.208
01/11/2014  04:24:00       94.629      104.293       50.045       47.581       28.940       36.156     2263.969      837.546     1307.258        1.337        0.220      140.825       14.909        0.011      333.677        3.148      863.029
01/11/2014  04:25:00       16.855       -1.254       45.739       26.922       95.510       44.643      724.785     9122.099     1992.970        0.711        0.592       16.902       59.904       12.562      333.722        3.223      863.036
01/11/2014  04:26:00        3.476      -60.949      -11.692       36.143       45.670       23.545     1306.326     2085.713      554.390        0.390        0.197       61.048       11.762        0.037      333.793        3.342      863.158
01/11/2014  04:27:00     -113.843      -23.971       -9.708       48.966       30.876       20.877     2397.702      953.316      435.862        0.871        0.189      116.339       19.204        0.027      333.595        3.014      863.184
01/11/2014  04:28:00     -143.552      -69.203       -0.269       93.961       34.920       29.025     8828.580     1219.409      842.438        1.814        0.545      159.362       37.920        0.057      333.363        2.626      863.288
01/11/2014  04:29:00      -80.859      -39.346        8.340       57.645       22.859       21.672     3322.901      522.556      469.680        0.623        0.216       89.923       19.978        0.049      333.602        3.026      863.298
01/11/2014  04:30:00       22.038       21.137       19.174       28.943       14.592       11.180      837.693      212.935      124.985        0.124        0.059       30.536        6.809        0.050      333.511        2.874      863.132
01/11/2014  04:31:00       50.851       28.634       15.317       33.036       25.742       22.064     1091.397      662.661      486.839        0.294        0.112       58.358       10.592        0.033      333.546        2.930      863.022
01/11/2014  04:32:00      -24.185      -56.117      -11.671       51.259       30.255       20.752     2627.459      915.360      430.635        0.392        0.199       61.107       16.776        0.075      333.636        3.080      863.108
01/11/2014  04:33:00     -124.995      -61.911       -5.095       52.554       39.743       25.586     2761.904     1579.495      654.643        1.224        0.250      139.487        7.963        0.003      333.753        3.274      863.253
01/11/2014  04:34:00     -116.630      -12.351       -7.004       44.471       43.848       28.760     1977.660     1922.655      827.145        0.927        0.236      117.282       16.603        0.020      333.528        2.901      863.279
01/11/2014  04:35:00      -54.045        7.894       -3.357       37.258       17.959       15.214     1388.190      322.525      231.459        0.247        0.097       54.619       15.681        0.082      333.503        2.860      863.214
01/11/2014  04:36:00        0.897        7.988       16.544       12.090       17.371       21.767      146.180      301.754      473.800        0.063        0.046        8.038       15.806        3.867      333.578        2.985      863.151
01/11/2014  04:37:00      -12.914       11.576        8.758       17.817       17.826       14.333      317.456      317.760      205.443        0.061        0.042       17.343       11.026        0.404      333.581        2.990      863.174
01/11/2014  04:38:00      -37.239      -20.640       -0.193       39.504       25.804       16.462     1560.533      665.867      270.991        0.215        0.125       42.576       14.818        0.121      333.775        3.310      863.229
01/11/2014  04:39:00      -25.837      -26.197        0.811       35.179       23.209       12.469     1237.558      538.654      155.488        0.164        0.097       36.795       11.870        0.104      333.682        3.157      863.262
01/11/2014  04:40:00       -8.516       41.434       58.006       12.877       28.377       30.093      165.813      805.238      905.593        0.352        0.094       42.300       24.412        0.333      333.646        3.097      863.189
01/11/2014  04:41:00       11.191       -8.635       18.749       18.006       34.120       26.037      324.204     1164.200      677.908        0.136        0.108       14.135       25.854        3.345      333.687        3.165      863.181
01/11/2014  04:42:00      -76.652      -27.441       -1.456       35.566       20.796       14.227     1264.936      432.471      202.397        0.426        0.095       81.416       11.865        0.021      333.800        3.352      863.191
01/11/2014  04:43:00     -122.965       17.954      -13.696       35.809       37.357       24.513     1282.285     1395.568      600.911        0.945        0.164      124.269       23.370        0.035      333.858        3.448      863.146
01/11/2014  04:44:00     -100.863       27.501      -10.826       42.487       38.904       26.512     1805.106     1513.558      702.913        0.753        0.201      104.545       23.409        0.050      333.717        3.215      863.053
01/11/2014  04:45:00      -33.555      -10.645       -1.968       40.304       37.617       19.440     1624.382     1415.074      377.921        0.233        0.171       35.203       17.575        0.249      333.554        2.946      863.020
01/11/2014  04:46:00       -3.569      -74.534      -18.486       17.786       23.852       13.973      316.340      568.931      195.253        0.350        0.054       74.620        8.426        0.013      333.598        3.017      863.052
01/11/2014  04:47:00      -39.584      -32.628       14.693       32.201       17.657       15.116     1036.935      311.761      228.501        0.221        0.079       51.298       15.996        0.097      333.593        3.010      863.041
01/11/2014  04:48:00      -79.446      -20.206       -0.630       27.126       26.434       10.882      735.797      698.758      118.423        0.414        0.078       81.975       10.932        0.018      333.508        2.866      863.005
01/11/2014  04:49:00        6.718       15.673       10.323       22.719       10.073       11.779      516.145      101.464      138.735        0.058        0.038       17.052       11.548        0.459      333.447        2.766      862.930
01/11/2014  04:50:00      -54.766       28.357       -6.812       48.258       12.279        9.134     2328.817      150.781       83.436        0.321        0.128       61.672       13.529        0.048      333.520        2.888      862.923
01/11/2014  04:51:00     -149.088       16.413       -9.861       50.803       41.964       23.772     2580.940     1760.966      565.094        1.375        0.245      149.989       21.719        0.021      333.314        2.547      862.957
01/11/2014  04:52:00     -122.398      -21.029       -8.672       43.108       39.841       21.778     1858.332     1587.317      474.284        0.971        0.196      124.191       16.498        0.018      333.196        2.351      863.019
01/11/2014  04:53:00     -172.658      -61.515       -8.573       25.886       32.206       16.235      670.067     1037.201      263.576        1.782        0.099      183.289        9.573        0.003      333.203        2.364      863.067
01/11/2014  04:54:00     -143.710      -84.698       -3.194       46.806       39.765       29.654     2190.826     1581.275      879.337        1.624        0.233      166.812       24.198        0.021      333.275        2.483      863.078
01/11/2014  04:55:00     -170.816      -71.859       -8.516       52.496       61.405       34.706     2755.823     3770.559     1204.527        2.107        0.387      185.316       30.579        0.027      333.172        2.311      863.114
01/11/2014  04:56:00      -95.038       -9.257        5.123       54.435       35.534       28.127     2963.121     1262.688      791.138        0.708        0.251       95.488       24.990        0.068      333.150        2.276      863.079
01/11/2014  04:57:00      -91.678      -18.066      -19.184       38.238       30.206       13.635     1462.171      912.413      185.909        0.583        0.128       93.441       10.743        0.013      333.133        2.247      862.970
01/11/2014  04:58:00      -46.336       -4.651       -2.828       17.836       16.889       10.974      318.112      285.247      120.420        0.145        0.036       46.569        7.247        0.024      333.193        2.345      862.897
01/11/2014  04:59:00      -29.155      -26.647        5.901       21.347       16.404        9.755      455.698      269.101       95.163        0.121        0.041       39.498        6.994        0.031      333.302        2.527      862.837
01/11/2014  05:00:00     -111.743       -0.873      -15.711       50.796       18.680       11.716     2580.187      348.957      137.265        0.790        0.153      111.746       18.169        0.026      333.211        2.377      862.846
01/11/2014  05:01:00     -144.537      -16.553       -8.652       53.619       42.127       30.635     2875.000     1774.649      938.515        1.341        0.279      145.482       29.072        0.040      333.088        2.173      862.891
01/11/2014  05:02:00     -147.593      -47.863       -5.509       52.070       52.060       29.821     2711.317     2710.282      889.301        1.521        0.316      155.160       26.742        0.030      333.039        2.092      862.915
01/11/2014  05:03:00     -126.928      -80.207       -4.421       87.198       51.880       40.624     7603.468     2691.572     1650.322        1.725        0.597      150.146       35.440        0.056      333.155        2.282      862.989
01/11/2014  05:04:00      -85.623      -11.741       -5.988       41.491       51.619       23.953     1721.499     2664.528      573.765        0.623        0.248       86.424       21.756        0.063      333.329        2.573      862.940
01/11/2014  05:05:00      -80.054       19.450       -8.260       46.673       56.921       20.448     2178.407     3239.979      418.106        0.634        0.292       82.383       20.285        0.061      333.453        2.776      862.858
01/11/2014  05:06:00     -135.797      -94.904        4.732       68.592       47.942       36.655     4704.878     2298.400     1343.570        1.791        0.417      165.673       34.589        0.044      333.259        2.454      862.907
01/11/2014  05:07:00      -88.538      -76.560        6.640       68.967       63.125       29.125     4756.425     3984.729      848.243        1.167        0.479      117.049       30.081        0.066      333.256        2.451      862.919
01/11/2014  05:08:00     -111.675       -2.605      -15.700       42.595       18.621       21.449     1814.312      346.724      460.062        0.767        0.131      111.705       10.295        0.008      333.610        3.038      862.883
01/11/2014  05:09:00      -69.515        7.269       -6.454       26.919       32.575       15.082      724.630     1061.153      227.461        0.347        0.101       69.894       14.999        0.046      333.372        2.643      862.879
01/11/2014  05:10:00      -80.584      -47.094       -5.831       44.742       33.231       17.824     2001.887     1104.327      317.682        0.608        0.171       93.336       17.288        0.034      333.324        2.563      862.895
01/11/2014  05:11:00      -78.587      -42.803       -5.752       31.346       26.987       14.314      982.602      728.284      204.888        0.498        0.096       89.488       11.417        0.016      333.189        2.341      862.878
01/11/2014  05:12:00       -3.510      -26.482        1.343       15.506       15.356       10.991      240.440      235.801      120.799        0.066        0.030       26.714        7.216        0.073      333.263        2.463      862.821
01/11/2014  05:13:00       12.287      -67.318       -3.800       22.141       17.301       16.708      490.224      299.308      279.169        0.288        0.053       68.430        5.754        0.007      333.397        2.685      862.859
01/11/2014  05:14:00      -17.464      -41.700       -7.053       28.041       13.682       13.852      786.320      187.193      191.884        0.163        0.058       45.209        9.687        0.046      333.448        2.770      862.861
01/11/2014  05:15:00     -111.498      -23.385      -12.234       23.162       27.453       13.042      536.467      753.640      170.099        0.729        0.073      113.924        5.657        0.002      333.341        2.592      862.856
01/11/2014  05:16:00      -67.853       35.445      -10.559       19.706       21.206       11.547      388.330      449.699      133.333        0.347        0.049       76.553       10.959        0.020      333.264        2.466      862.790
01/11/2014  05:17:00      -77.529       60.067      -14.445       42.855       45.620       22.913     1836.567     2081.165      524.988        0.713        0.222       98.075       24.959        0.065      333.758        3.283      862.753
01/11/2014  05:18:00      -17.301       64.698       17.360       49.885       37.557       34.383     2488.497     1410.544     1182.218        0.493        0.254       66.971       31.946        0.228      333.582        2.991      862.725
01/11/2014  05:19:00       40.650       47.213       22.219       36.399       22.054       27.660     1324.887      486.387      765.077        0.348        0.129       62.302       24.543        0.155      333.296        2.517      862.693
01/11/2014  05:20:00        4.518       64.895      -10.374       23.198       16.731       18.367      538.145      279.943      337.347        0.275        0.058       65.052        6.806        0.011      333.562        2.959      862.637
01/11/2014  05:21:00      -32.778        8.645       -7.469       21.829       17.817        9.630      476.486      317.441       92.738        0.105        0.044       33.899        8.249        0.059      333.462        2.791      862.662
01/11/2014  05:22:00     -114.993       18.751      -15.530       18.555       13.267        9.938      344.270      176.003       98.757        0.722        0.031      116.512        3.411        0.001      333.164        2.299      862.635
01/11/2014  05:23:00      -73.206      -50.427      -15.111       64.193       38.387       18.867     4120.771     1473.527      355.970        0.704        0.298       88.893        7.612        0.007      333.188        2.338      862.655
01/11/2014  05:24:00      -35.432      -90.312        7.632       39.466       46.264       24.012     1557.546     2140.400      576.570        0.687        0.214       97.014       28.522        0.086      333.514        2.878      862.755
01/11/2014  05:25:00      -44.844       10.636       -5.044       21.211       16.988        8.216      449.892      288.583       67.510        0.148        0.040       46.088        8.662        0.035      333.740        3.253      862.685
01/11/2014  05:26:00     -134.210        3.247      -16.240       22.687       13.187        9.390      514.721      173.904       88.175        0.953        0.039      134.249        9.082        0.005      333.440        2.756      862.661
01/11/2014  05:27:00     -158.150      -34.069      -14.073       20.063       17.234       14.643      402.533      297.009      214.403        1.364        0.046      161.778       12.446        0.006      333.324        2.563      862.640
01/11/2014  05:28:00     -168.528      -64.598      -12.686       24.704       37.469       20.543      610.273     1403.901      422.007        1.759        0.122      180.484       14.303        0.006      333.285        2.497      862.620
01/11/2014  05:29:00     -111.604      -34.004       -1.027       45.798       44.107       25.623     2097.462     1945.390      656.515        0.916        0.235      116.669       19.142        0.027      333.222        2.395      862.596
01/11/2014  05:30:00       14.387        0.366       10.607       32.028       32.134       24.076     1025.774     1032.568      579.659        0.148        0.132       14.391       17.656        1.505      333.408        2.702      862.515
01/11/2014  05:31:00       45.704       53.449       17.674       50.627       28.534       36.087     2563.093      814.195     1302.247        0.497        0.234       70.326       26.301        0.140      333.458        2.785      862.372
01/11/2014  05:32:00       91.833       60.138       -9.459       30.829       25.057       32.774      950.401      627.832     1074.120        0.740        0.133      109.772       15.666        0.020      333.456        2.781      862.287
01/11/2014  05:33:00       99.866      120.814       61.865       62.948       39.325       51.388     3962.447     1546.492     2640.734        1.827        0.407      156.745       42.045        0.072      333.337        2.585      862.335
01/11/2014  05:34:00       68.431        2.817       18.943       71.852       71.114       36.931     5162.715     5057.200     1363.887        0.831        0.579       68.489       34.747        0.257      332.990        2.012      862.450
01/11/2014  05:35:00      -37.790      -56.226       -1.588       85.705       58.229       34.282     7345.388     3390.671     1175.247        0.825        0.596       67.746       32.029        0.224      333.434        2.744      862.556
01/11/2014  05:36:00     -120.068       34.189      -12.346       32.574       37.402       17.029     1061.054     1398.945      289.976        0.924        0.137      124.841       14.771        0.014      333.641        3.088      862.477
01/11/2014  05:37:00     -121.003        5.106      -11.594       47.745       51.833       24.461     2279.559     2686.640      598.317        1.018        0.278      121.111       20.366        0.028      333.452        2.776      862.482
01/11/2014  05:38:00     -110.229        5.517       -8.535       56.225       40.332       15.075     3161.285     1626.688      227.248        0.863        0.251      110.367       16.604        0.023      333.407        2.700      862.459
01/11/2014  05:39:00       22.873       -3.588       21.102       17.219       44.536       18.579      296.484     1983.479      345.169        0.180        0.131       23.153       25.335        1.197      333.428        2.736      862.434
01/11/2014  05:40:00        8.512       70.024       79.094       35.946       34.523       26.098     1292.100     1191.823      681.131        0.720        0.158       70.539       21.090        0.089      333.279        2.490      862.373
01/11/2014  05:41:00        7.559       32.067       47.990       22.994       23.954       17.959      528.734      573.817      322.523        0.241        0.071       32.945        8.681        0.069      333.187        2.337      862.325
01/11/2014  05:42:00       26.546       83.086        0.277       41.206       32.578       24.577     1697.969     1061.349      604.034        0.549        0.168       87.224       20.303        0.054      333.257        2.452      862.249
01/11/2014  05:43:00       21.869       79.203       70.362       40.827       42.430       36.347     1666.858     1800.281     1321.081        0.824        0.239       82.167       28.537        0.121      332.986        2.005      862.314
01/11/2014  05:44:00      -34.409       16.555       17.207       30.517       18.306       24.944      931.287      335.107      622.196        0.182        0.094       38.184       24.281        0.404      333.127        2.238      862.427
01/11/2014  05:45:00     -132.183        6.812       -9.151       37.847       37.006       20.098     1432.422     1369.410      403.938        1.040        0.160      132.359       14.235        0.012      333.176        2.318      862.544
01/11/2014  05:46:00     -114.088      -55.715        5.523       73.400       49.729       28.429     5387.560     2472.973      808.229        1.241        0.433      126.966       31.914        0.063      333.329        2.570      862.593
01/11/2014  05:47:00     -105.940       22.862       -4.628       49.287       36.430       23.040     2429.253     1327.112      530.858        0.803        0.214      108.378       27.423        0.064      333.330        2.574      862.601
01/11/2014  05:48:00      -45.344       60.249      -11.840       26.462       27.573       21.458      700.262      760.276      460.458        0.387        0.096       75.406       18.226        0.058      333.471        2.807      862.475
01/11/2014  05:49:00      -77.812      115.000      -19.262       40.155       41.284       24.374     1612.458     1704.406      594.116        1.178        0.196      138.851       23.023        0.027      333.709        3.202      862.303
01/11/2014  05:50:00       -4.315      -57.812      -13.559       54.309      110.074       29.097     2949.476    12116.183      846.609        0.973        0.796       57.973       29.135        0.253      333.517        2.884      862.334
01/11/2014  05:51:00       60.840     -100.146      -20.564       60.967      103.552       59.041     3716.967    10722.941     3485.818        1.604        0.896      117.178       60.958        0.271      333.491        2.838      862.421
01/11/2014  05:52:00      -62.990       79.894        0.583       61.869       46.999       34.529     3827.756     2208.944     1192.269        0.879        0.361      101.739       40.725        0.160      333.697        3.182      862.311
01/11/2014  05:53:00      -77.381       26.991       -5.278       54.650       34.468       20.686     2986.646     1188.028      427.912        0.567        0.230       81.954       13.058        0.025      333.450        2.772      862.274
01/11/2014  05:54:00        0.845       15.305       14.434       14.677       25.851       26.420      215.408      668.289      697.994        0.101        0.079       15.329       22.214        2.100      333.490        2.840      862.236
01/11/2014  05:55:00      -23.116       48.384       16.736       24.829       18.100       36.830      616.472      327.613     1356.454        0.273        0.115       53.623       21.830        0.166      333.428        2.736      862.108
01/11/2014  05:56:00     -117.974      -19.279      -14.865       37.138       26.237       12.440     1379.220      688.375      154.748        0.837        0.111      119.539        8.670        0.005      333.425        2.731      862.189
01/11/2014  05:57:00      -37.071      -32.878        0.324       63.254       33.507       22.349     4001.050     1122.687      499.487        0.404        0.281       49.550       27.043        0.298      333.573        2.976      862.306
01/11/2014  05:58:00     -144.043       32.526      -15.832       30.289       28.813       15.877      917.420      830.192      252.076        1.203        0.100      147.669       11.497        0.006      333.627        3.063      862.230
01/11/2014  05:59:00      -62.261       13.721      -11.034       62.451       30.132       20.689     3900.139      907.928      428.016        0.471        0.262       63.755       14.878        0.054      333.602        3.024      862.143
01/11/2014  06:00:00       22.540       62.755       75.644       42.566       43.240       43.584     1811.856     1869.663     1899.597        0.787        0.279       66.680       36.803        0.305      333.571        2.971      862.046
01/11/2014  06:01:00      104.713     -121.017      -10.093       70.278       85.687       53.198     4938.954     7342.329     2829.992        2.041        0.756      160.031       63.345        0.157      333.418        2.718      862.137
01/11/2014  06:02:00       28.529      -14.656       12.921       42.035       59.634       44.662     1766.927     3556.171     1994.697        0.426        0.366       32.073       46.529        2.105      333.467        2.800      862.222
01/11/2014  06:03:00       -0.895      -67.446        0.454       27.912       44.127       30.867      779.066     1947.208      952.762        0.411        0.184       67.452       25.752        0.146      333.560        2.955      862.193
01/11/2014  06:04:00      -67.852       35.640       -1.893       39.907       27.960       22.331     1592.557      781.772      498.661        0.437        0.144       76.643       22.735        0.088      333.613        3.042      862.098
01/11/2014  06:05:00      -92.998       -9.270        0.665       68.816       42.360       28.731     4735.652     1794.389      825.460        0.804        0.368       93.459       30.546        0.107      333.431        2.741      862.053
01/11/2014  06:06:00      -46.366      -40.737        5.233       45.390       34.945       28.669     2060.229     1221.131      821.922        0.397        0.205       61.720       25.198        0.167      333.369        2.639      862.073
01/11/2014  06:07:00      -20.454      -80.319        5.136       21.439       39.214       18.656      459.638     1537.715      348.041        0.462        0.117       82.883        7.643        0.009      333.473        2.810      862.014
01/11/2014  06:08:00      -69.651      -26.373      -10.772       42.048       11.384       11.846     1768.013      129.593      140.336        0.385        0.102       74.477       15.619        0.044      333.580        2.988      861.867
01/11/2014  06:09:00     -142.860      -33.803      -11.088       39.989       24.551       14.956     1599.147      602.729      223.677        1.205        0.121      146.805       14.880        0.010      333.579        2.987      861.835
01/11/2014  06:10:00     -174.046      -80.671      -17.579       29.774       24.296       18.015      886.494      590.273      324.552        1.945        0.090      191.833       10.491        0.003      333.432        2.740      861.887
01/11/2014  06:11:00     -184.319     -104.393       -4.413      101.543       72.142       46.394    10310.985     5204.455     2152.419        3.128        0.883      211.828       40.531        0.037      333.555        2.942      861.918
01/11/2014  06:12:00     -116.677      -13.470        2.005       71.627       61.345       38.006     5130.494     3763.249     1444.421        1.207        0.517      117.452       37.662        0.103      333.660        3.120      861.890
01/11/2014  06:13:00      -50.181       15.205       13.254       86.226       34.164       28.208     7434.877     1167.183      795.688        0.616        0.470       52.434       32.486        0.384      333.656        3.113      861.857
01/11/2014  06:14:00       59.832       45.854        5.911       66.557       28.631       23.977     4429.804      819.721      574.892        0.577        0.291       75.382       18.758        0.062      333.683        3.159      861.785
01/11/2014  06:15:00       74.342       90.662       -2.053       41.615       39.180       29.501     1731.840     1535.061      870.312        0.894        0.207      117.245       30.382        0.067      333.627        3.065      861.692
01/11/2014  06:16:00      -66.298      109.235      -22.711       33.418       44.320       21.695     1116.754     1964.234      470.675        1.020        0.178      127.780       21.686        0.029      333.830        3.403      861.604
01/11/2014  06:17:00     -114.246       85.109      -22.262       30.418       29.903       14.038      925.233      894.205      197.060        1.140        0.101      142.463       11.721        0.007      334.261        4.118      861.553
01/11/2014  06:18:00     -145.528      -51.358      -10.562       94.871      103.366       36.129     9000.551    10684.538     1305.285        2.246        1.050      154.324       10.345        0.004      333.531        2.903      861.547
01/11/2014  06:19:00      -98.412     -213.136      -23.022       85.770       93.498       46.427     7356.568     8741.905     2155.511        3.694        0.913      234.759       42.383        0.033      334.016        3.706      861.769
01/11/2014  06:20:00     -253.359     -135.060      -11.460       55.957       47.443       36.673     3131.210     2250.869     1344.878        4.464        0.336      287.109       29.607        0.011      333.972        3.633      861.782
01/11/2014  06:21:00     -222.381      -66.701       -8.174       66.006       60.314       36.729     4356.764     3637.787     1349.005        3.165        0.467      232.168       33.890        0.021      334.509        4.525      861.769
01/11/2014  06:22:00     -204.528      -20.582       -4.857       63.307       44.419       29.654     4007.826     1973.056      879.374        2.457        0.343      205.561       31.118        0.023      334.299        4.176      861.727
01/11/2014  06:23:00     -128.552       22.466       -0.534       68.915       50.407       29.479     4749.226     2540.908      869.020        1.259        0.408      130.500       30.293        0.054      335.052        5.430      861.649
01/11/2014  06:24:00      -26.259      -45.437       14.734       35.505       23.154       19.541     1260.600      536.119      381.861        0.257        0.109       52.479       20.414        0.151      334.672        4.799      861.601
01/11/2014  06:25:00      -25.852      -99.239        6.669       23.394       31.129       13.599      547.295      969.035      184.922        0.613        0.085      102.551       13.888        0.018      335.758        6.606      861.613
01/11/2014  06:26:00       22.409      -94.275      -16.308       38.503       45.507       25.799     1482.485     2070.900      665.597        0.694        0.211       96.902       15.509        0.026      335.467        6.122      861.678
01/11/2014  06:27:00      -26.104       -5.998       10.959       36.831       28.285       23.341     1356.493      800.028      544.780        0.177        0.135       26.784       20.412        0.581      335.191        5.661      861.729
01/11/2014  06:28:00      -41.519      -67.488       -1.985       48.950       44.695       21.805     2396.062     1997.685      475.468        0.558        0.243       79.237       17.865        0.051      335.877        6.805      861.695
01/11/2014  06:29:00     -130.015       -5.182      -14.145       25.528       23.157       13.132      651.696      536.257      172.459        0.925        0.068      130.118        9.045        0.005      335.998        7.006      861.592
01/11/2014  06:30:00      -94.929      -24.836       -3.518       42.980       26.329       20.261     1847.320      693.191      410.492        0.630        0.148       98.124       19.719        0.040      335.434        6.066      861.534
01/11/2014  06:31:00      -51.640      -98.523       -2.233       32.825       42.885       21.746     1077.482     1839.126      472.901        0.788        0.169      111.236       19.603        0.031      335.718        6.541      861.486
01/11/2014  06:32:00       65.132      -46.459       19.419       80.740       65.744       31.416     6518.931     4322.315      986.989        0.930        0.591       80.004       35.924        0.202      337.373        9.305      861.348
01/11/2014  06:33:00      130.732      -32.644       32.214       69.411       58.851       48.553     4817.928     3463.453     2357.375        1.491        0.532      134.746       38.071        0.080      337.754        9.944      861.309
01/11/2014  06:34:00     -126.434      -79.298       -6.768       96.888       68.142       45.023     9387.268     4643.392     2027.113        1.919        0.803      149.243       47.803        0.103      335.740        6.578      861.381
01/11/2014  06:35:00     -152.606      -88.820        1.125       53.636       73.714       31.037     2876.785     5433.799      963.298        2.022        0.464      176.572       34.033        0.037      336.114        7.198      861.572
01/11/2014  06:36:00      -93.314      -42.474       14.969       82.795       52.983       35.375     6855.061     2807.208     1251.407        1.082        0.546      102.526       40.870        0.159      336.447        7.754      861.665
01/11/2014  06:37:00      -41.693     -116.253       -1.981       40.192       44.176       28.036     1615.408     1951.496      786.028        0.980        0.218      123.504       19.473        0.025      336.373        7.632      861.674
01/11/2014  06:38:00      -92.693      -60.056       -7.543       52.693       32.420       19.959     2776.576     1051.070      398.346        0.824        0.211      110.448       25.329        0.053      336.071        7.127      861.602
01/11/2014  06:39:00     -143.011       -2.430      -21.399       49.618       22.471       18.157     2461.921      504.964      329.669        1.211        0.165      143.031       19.987        0.020      335.942        6.911      861.558
01/11/2014  06:40:00      -18.547       -0.746       -8.034       31.272       40.176       17.064      977.928     1614.135      291.193        0.165        0.144       18.562       15.275        0.677      336.343        7.583      861.516
01/11/2014  06:41:00      -33.274      -80.170       -0.913       56.790       36.121       18.056     3225.073     1304.750      326.033        0.619        0.243       86.800       20.756        0.057      337.421        9.383      861.522
01/11/2014  06:42:00      -36.134     -103.941       -8.539       55.265       59.458       26.609     3054.238     3535.224      708.015        0.974        0.365      110.043       27.198        0.061      337.992       10.341      861.593
01/11/2014  06:43:00      -32.047      -44.455       -2.589       63.961       53.520       18.029     4090.986     2864.442      325.057        0.514        0.364       54.802       20.949        0.146      337.858       10.116      861.609
01/11/2014  06:44:00     -116.713        4.474      -14.394       30.373       20.526       10.953      922.540      421.322      119.958        0.766        0.073      116.799       11.893        0.010      337.226        9.057      861.573
01/11/2014  06:45:00      -91.424      -30.586      -12.379       20.041       29.503        9.693      401.655      870.412       93.947        0.541        0.068       96.405       10.415        0.012      336.981        8.646      861.502
01/11/2014  06:46:00     -131.104      -59.829       -4.611       68.314       35.350       24.498     4666.870     1249.607      600.164        1.365        0.326      144.110       22.862        0.025      337.449        9.431      861.464
01/11/2014  06:47:00     -169.677      -38.069      -13.364       40.174       31.409       25.196     1613.924      986.529      634.847        1.683        0.162      173.895       18.314        0.011      337.182        8.983      861.427
01/11/2014  06:48:00     -216.336       45.547      -19.552       65.979       38.874       28.598     4353.211     1511.156      817.868        2.797        0.334      221.079       28.870        0.017      337.914       10.207      861.302
01/11/2014  06:49:00      -68.159        4.536      -10.521       36.335       70.635       21.648     1320.200     4989.373      468.636        0.578        0.339       68.310       15.223        0.050      337.671        9.802      861.176
01/11/2014  06:50:00       -5.882      -35.827      -11.078       28.624       30.312       17.496      819.345      918.839      306.125        0.174        0.102       36.307       15.378        0.179      337.246        9.092      861.182
01/11/2014  06:51:00       -7.437      -23.227       12.811       28.025       16.469       17.950      785.411      271.237      322.207        0.107        0.069       24.389        6.795        0.078      336.998        8.676      861.182
01/11/2014  06:52:00      -99.565      -79.631        0.780       51.055       35.616       20.994     2606.574     1268.468      440.765        1.028        0.216      127.492       21.607        0.029      337.133        8.901      861.248
01/11/2014  06:53:00     -137.560     -105.637       -9.511       32.996       33.576       20.750     1088.726     1127.361      430.569        1.641        0.132      173.442       16.894        0.009      337.521        9.552      861.285
01/11/2014  06:54:00      -97.998      -93.938       -4.794       36.658       22.005       19.111     1343.840      484.239      365.212        1.032        0.110      135.750       15.967        0.014      337.519        9.548      861.252
01/11/2014  06:55:00     -120.938      -89.831       -9.338       43.901       42.171       23.671     1927.339     1778.429      560.319        1.352        0.213      150.651       21.314        0.020      338.144       10.596      861.195
01/11/2014  06:56:00     -105.375      -63.891      -18.343       62.220       25.608       18.428     3871.320      655.745      339.592        1.019        0.243      123.231       17.648        0.021      338.434       11.083      861.107
01/11/2014  06:57:00     -158.392       -6.267      -28.620       36.375       29.501       20.293     1323.155      870.288      411.825        1.428        0.130      158.515       16.401        0.011      338.825       11.741      861.117
01/11/2014  06:58:00     -170.913      -33.063        3.567       65.856       63.547       36.230     4337.019     4038.229     1312.616        2.000        0.484      174.082       35.973        0.043      337.366        9.290      861.186
01/11/2014  06:59:00     -232.263     -122.341       -6.922       92.311       56.774       37.776     8521.286     3223.332     1427.002        4.106        0.659      262.514       28.485        0.012      338.106       10.528      861.250
01/11/2014  07:00:00     -131.855      -70.773       -3.071       50.386       45.341       32.935     2538.781     2055.798     1084.713        1.404        0.284      149.649       32.140        0.046      337.796       10.012      861.234
01/11/2014  07:01:00     -135.644      -66.054        3.376       39.137       33.537       20.947     1531.737     1124.729      438.784        1.293        0.155      150.872       18.316        0.015      337.876       10.145      861.214
01/11/2014  07:02:00      -72.069       -8.865        0.293       40.728       20.713       21.855     1658.777      429.041      477.644        0.392        0.128       72.612       20.426        0.079      337.833       10.074      861.155
01/11/2014  07:03:00     -110.065      -21.760       -7.633       26.055       14.937       10.083      678.866      223.101      101.673        0.682        0.050      112.195       10.127        0.008      337.635        9.741      861.082
01/11/2014  07:04:00      -99.322      -12.308        3.914       41.913       32.401       21.517     1756.690     1049.809      462.962        0.665        0.163      100.081       17.567        0.031      337.354        9.270      861.062
01/11/2014  07:05:00     -109.390      -42.677        7.692       46.638       39.692       24.745     2175.134     1575.431      612.333        0.910        0.218      117.421       21.194        0.033      337.375        9.309      861.103
01/11/2014  07:06:00      -81.055      -82.598        5.261       61.376       61.106       25.738     3767.032     3733.954      662.443        1.079        0.408      115.725       28.782        0.062      337.516        9.544      861.173
01/11/2014  07:07:00     -113.027      -51.466        6.732       70.499       72.542       36.463     4970.131     5262.272     1329.519        1.351        0.578      124.193       43.157        0.121      338.141       10.590      861.202
01/11/2014  07:08:00      -84.972      -72.749        1.851       57.387       41.251       21.806     3293.253     1701.656      475.485        0.899        0.274      111.860       23.288        0.043      337.881       10.156      861.148
01/11/2014  07:09:00      -62.929      -74.031       -7.011       33.622       33.801       19.983     1130.437     1142.488      399.339        0.608        0.134       97.163       14.857        0.023      338.194       10.680      861.145
01/11/2014  07:10:00     -143.202     -114.796      -11.253       33.628       32.927       24.604     1130.824     1084.213      605.336        1.832        0.141      183.535       14.517        0.006      338.010       10.370      861.167
01/11/2014  07:11:00      -60.293      -39.256       -5.235       51.129       34.737       16.603     2614.186     1206.630      275.668        0.465        0.205       71.946       10.518        0.021      338.011       10.373      861.220
01/11/2014  07:12:00       27.162      -26.513       -5.245       26.005       23.995       13.798      676.244      575.751      190.381        0.146        0.072       37.957       10.715        0.080      338.606       11.372      861.211
01/11/2014  07:13:00       39.437       40.227       41.279       32.270       49.300       45.947     1041.384     2430.528     2111.092        0.523        0.279       56.334       45.873        0.663      338.280       10.825      861.132
01/11/2014  07:14:00        6.108       51.592       83.606       24.111       46.692       19.828      581.352     2180.124      393.165        0.642        0.158       51.953       16.145        0.097      338.203       10.695      861.098
01/11/2014  07:15:00        6.303      -54.302       11.199       59.574       64.867       49.923     3549.036     4207.681     2492.333        0.668        0.512       54.667       43.154        0.623      337.967       10.298      861.163
01/11/2014  07:16:00     -117.747      -13.820       -6.630       55.881       45.821       26.696     3122.669     2099.554      712.694        1.002        0.297      118.555       24.551        0.043      337.003        8.682      861.245
01/11/2014  07:17:00     -122.228       -5.033        4.210       60.222       53.031       28.796     3626.724     2812.336      829.212        1.112        0.363      122.332       26.248        0.046      337.172        8.966      861.269
01/11/2014  07:18:00     -107.243       58.187      -16.313       32.625       43.417       21.792     1064.395     1885.012      474.912        0.929        0.171      122.012       18.470        0.023      338.025       10.396      861.257
01/11/2014  07:19:00     -113.598       54.455      -20.167       42.476       21.323       21.250     1804.198      454.680      451.575        0.949        0.136      125.976        9.919        0.006      338.183       10.662      861.209
01/11/2014  07:20:00     -116.987       24.975      -10.739       40.225       41.778       14.114     1618.024     1745.376      199.210        0.899        0.178      119.623       13.754        0.013      338.180       10.657      861.234
01/11/2014  07:21:00     -202.720      -81.779       -5.746       64.558       60.449       34.499     4167.793     3654.048     1190.161        2.841        0.451      218.594       33.019        0.023      337.193        8.998      861.285
01/11/2014  07:22:00     -254.134      -53.604        0.434      101.237       60.567       42.522    10248.868     3668.388     1808.155        4.159        0.786      259.726       47.813        0.034      337.623        9.719      861.287
01/11/2014  07:23:00     -275.853      -39.448      -13.728      121.028      100.082       52.375    14647.687    10016.350     2743.157        5.262        1.370      278.659       43.996        0.025      338.173       10.643      861.285
01/11/2014  07:24:00     -364.954       91.827      -22.474      178.412      116.879       70.917    31830.854    13660.601     5029.189        9.632        2.526      376.329       68.676        0.033      338.974       11.987      861.332
01/11/2014  07:25:00     -251.808       15.368      -15.502      116.495       89.498       56.790    13571.109     8009.960     3225.065        4.434        1.240      252.276       55.339        0.048      339.028       12.078      861.384
01/11/2014  07:26:00       25.314      252.969      -21.697      110.038      160.391       62.707    12108.407    25725.300     3932.183        5.343        2.088      254.233       65.425        0.066      339.372       12.657      861.309
01/11/2014  07:27:00       59.594       72.952        8.087       81.351      110.828       60.233     6618.048    12282.889     3627.975        1.573        1.126       94.199       43.741        0.216      339.302       12.541      861.265
01/11/2014  07:28:00      110.011     -177.377      -19.292       70.429       90.948       45.671     4960.280     8271.471     2085.843        2.962        0.766      208.722       41.181        0.039      338.941       11.933      861.324
01/11/2014  07:29:00      109.586     -154.788       27.782      103.259      191.095      108.311    10662.393    36517.404    11731.243        4.782        2.946      189.653      129.508        0.466      338.999       12.031      861.367
01/11/2014  07:30:00       25.240       70.634      141.493       95.040      169.886       94.020     9032.519    28861.091     8839.824        3.618        2.337       75.008      115.057        2.353      339.093       12.189      861.411
01/11/2014  07:31:00      108.789      -16.313       55.856      122.157      130.157       74.102    14922.269    16940.790     5491.162        2.628        1.868      110.005       91.853        0.697      339.271       12.488      861.420
01/11/2014  07:32:00       22.127     -238.212      -13.844       89.549       93.912       48.438     8018.956     8819.446     2346.198        3.830        0.959      239.238       42.693        0.032      339.446       12.782      861.504
01/11/2014  07:33:00       29.356      -42.814       22.501       89.573      100.846       49.294     8023.272    10169.854     2429.861        1.191        1.031       51.912       50.287        0.938      339.290       12.521      861.453
01/11/2014  07:34:00       76.385       76.009       96.460       81.001       86.182       73.327     6561.149     7427.327     5376.842        2.014        0.968      107.759       57.296        0.283      339.193       12.359      861.382
01/11/2014  07:35:00     -223.222       66.673        1.673      100.355       78.544       53.113    10071.219     6169.159     2820.997        3.667        0.953      232.967       57.179        0.060      339.027       12.075      861.434
01/11/2014  07:36:00      -93.625      -53.880        3.658       71.751       76.118       34.861     5148.250     5793.923     1215.278        1.192        0.608      108.022       36.593        0.115      338.644       11.435      861.544
01/11/2014  07:37:00     -129.793      -18.363      -17.466       70.394       53.882       40.005     4955.303     2903.255     1600.425        1.347        0.473      131.085       36.880        0.079      338.726       11.573      861.541
01/11/2014  07:38:00       -2.718      -34.069      -11.813       93.235       63.164       63.397     8692.769     3989.633     4019.216        0.900        0.835       34.177       45.808        1.796      339.224       12.411      861.437
01/11/2014  07:39:00     -495.017     -161.139      -28.354      208.929      181.806       83.308    43651.425    33053.292     6940.259       17.771        4.182      520.584       87.842        0.028      339.042       12.101      861.418
01/11/2014  07:40:00     -444.904     -137.589      -20.443      304.014      160.342       96.803    92424.574    25709.579     9370.739       17.238        6.375      465.693       98.371        0.045      338.962       11.967      861.315
01/11/2014  07:41:00     -354.499     -112.203        9.980      198.937      152.897       89.737    39576.092    23377.508     8052.761       10.467        3.550      371.832      113.917        0.094      338.848       11.776      861.334
01/11/2014  07:42:00     -217.489      -60.061       -7.440      223.472       88.444       65.752    49939.825     7822.417     4323.388        5.651        3.104      225.630      100.836        0.200      338.824       11.736      861.319
01/11/2014  07:43:00     -331.588      -90.974      -13.223      177.367      130.466       69.048    31459.015    17021.251     4767.676        8.582        2.662      343.841       77.030        0.050      338.811       11.713      861.177
01/11/2014  07:44:00     -255.861      -82.589        7.033      181.247      183.482       89.292    32850.327    33665.775     7973.130        7.340        3.724      268.860      102.439        0.145      338.724       11.567      861.114
01/11/2014  07:45:00     -434.735     -205.043        0.151      222.947      191.179       97.923    49705.532    36549.247     9588.983       16.342        4.792      480.663      103.550        0.046      338.750       11.610      861.190
01/11/2014  07:46:00     -178.026     -111.421       -0.124      184.296      132.890       67.913    33964.926    17659.705     4612.199        5.016        2.812      210.019       51.979        0.061      338.756       11.621      861.118
01/11/2014  07:47:00     -234.869     -114.184       10.182      138.909      106.668       63.713    19295.730    11378.069     4059.385        5.151        1.737      261.155       73.206        0.079      338.745       11.603      861.164
01/11/2014  07:48:00     -311.992     -109.823        2.755      164.640      166.380       81.133    27106.304    27682.142     6582.487        8.538        3.069      330.757       75.641        0.052      338.719       11.559      861.110
01/11/2014  07:49:00     -316.392     -227.048       24.181      268.314      238.970      118.546    71992.364    57106.478    14053.148       14.767        7.158      389.429      147.280        0.143      338.710       11.543      861.154
01/11/2014  07:50:00     -663.777     -435.968      -15.494      284.845      251.010      147.410    81136.835    63006.227    21729.774       39.836        8.294      794.146      156.471        0.039      338.877       11.824      861.210
01/11/2014  07:51:00     -554.383     -461.271        0.306      354.927      261.344      138.528   125973.189    68300.566    19190.103       36.675       10.673      721.188      153.800        0.045      338.955       11.956      861.265
01/11/2014  07:52:00     -384.424     -274.417       -0.174      279.195      209.611      131.731    77950.125    43936.650    17352.971       18.114        6.962      472.320      143.193        0.092      338.885       11.836      861.303
01/11/2014  07:53:00     -311.299      -94.825       23.314      264.376      206.349      107.814    69894.437    42579.750    11623.942       11.525        6.205      325.421      137.391        0.178      338.779       11.660      861.375
01/11/2014  07:54:00     -751.250     -421.055      -33.647      439.377      336.775      164.139   193052.385   113417.315    26941.566       53.805       16.671      861.199      204.805        0.057      338.878       11.826      861.418
01/11/2014  07:55:00     -464.935     -308.616       25.047      306.045      257.517      150.244    93663.755    66315.122    22573.261       24.726        9.128      558.040      157.301        0.079      338.871       11.815      861.378
01/11/2014  07:56:00     -681.219     -288.055      -36.487      315.873      248.300      128.311    99775.722    61653.085    16463.781       36.310        8.895      739.618      135.935        0.034      338.850       11.779      861.396
01/11/2014  07:57:00     -706.230     -446.858       -7.927      414.901      289.742      157.245   172142.879    83950.390    24725.988       48.962       14.041      835.729      197.275        0.056      338.856       11.788      861.326
01/11/2014  07:58:00     -515.510     -318.240      -15.210      273.438      196.949      109.092    74768.148    38788.797    11900.984       24.634        6.273      605.827      118.135        0.038      338.814       11.716      861.447
01/11/2014  07:59:00     -867.586     -485.018      -32.040      441.125      371.826      164.765   194591.020   138254.657    27147.451       67.442       18.000      993.956      198.136        0.040      338.862       11.800      861.405
01/11/2014  08:00:00     -735.996     -523.236      -48.206      344.994      276.105      151.061   119020.870    76233.738    22819.410       51.790       10.904      903.032      161.230        0.032      338.900       11.863      861.460
01/11/2014  08:01:00     -540.968     -314.238        1.770      327.758      254.026      128.145   107425.202    64529.250    16421.111       28.985        9.419      625.613      147.151        0.055      338.796       11.688      861.520
01/11/2014  08:02:00     -563.913     -441.673      -23.145      294.679      332.320      134.665    86835.583   110436.252    18134.766       36.447       10.770      716.291      145.737        0.041      338.806       11.703      861.395
01/11/2014  08:03:00     -515.721     -386.732      -16.812      232.242      227.030      124.651    53936.538    51542.674    15537.860       26.839        6.051      644.616      128.041        0.039      338.795       11.686      861.345
01/11/2014  08:04:00     -452.998     -200.835      -19.263      215.961      200.508      100.463    46639.217    40203.564    10092.743       17.141        4.847      495.521      104.737        0.045      338.737       11.588      861.401
01/11/2014  08:05:00     -428.303     -302.175      -13.376      342.233      246.506      124.478   117123.682    60765.331    15494.820       23.413        9.669      524.169      157.012        0.090      338.757       11.621      861.428
01/11/2014  08:06:00     -307.252     -198.827       11.912      239.489      210.483      110.565    57354.993    44303.156    12224.624       12.396        5.694      365.972      112.010        0.094      338.713       11.549      861.515
01/11/2014  08:07:00     -284.577     -203.682       10.738      274.807      239.451      108.054    75518.922    57336.640    11675.709       13.353        7.227      349.957      118.643        0.115      338.752       11.614      861.570
01/11/2014  08:08:00     -547.311     -415.873      -29.930      308.230      250.717      112.588    95005.584    62859.146    12676.141       32.194        8.527      687.386      137.603        0.040      338.782       11.663      861.581
01/11/2014  08:09:00     -749.481     -219.213      -53.061      307.500      263.164      125.956    94556.297    69255.221    15864.830       39.610        8.984      780.882      129.717        0.028      338.759       11.627      861.542
01/11/2014  08:10:00     -681.889     -326.935      -31.534      374.435      238.534      127.461   140201.872    56898.686    16246.328       39.306       10.667      756.213      154.383        0.042      338.746       11.604      861.531
01/11/2014  08:11:00     -694.992     -327.027      -40.893      367.952      273.630      142.595   135388.533    74873.618    20333.225       41.108       11.530      768.088      168.218        0.048      338.720       11.561      861.516
01/11/2014  08:12:00     -752.412     -357.850      -42.708      306.236      250.148      127.140    93780.517    62574.111    16164.670       43.423        8.626      833.174      145.563        0.031      338.736       11.587      861.488
01/11/2014  08:13:00     -565.529     -363.973       -0.364      339.501      255.619      141.123   115260.638    65341.186    19915.712       32.638       10.026      672.532      180.052        0.072      338.736       11.587      861.521
01/11/2014  08:14:00     -458.346     -395.762      -14.762      310.134      266.703      134.690    96183.146    71130.563    18141.350       27.616        9.273      605.564      163.633        0.073      338.674       11.481      861.504
01/11/2014  08:15:00     -326.046     -208.732        0.036      255.780      239.745      110.344    65423.334    57477.571    12175.842       14.245        6.754      387.137      103.259        0.071      338.602       11.363      861.599
01/11/2014  08:16:00     -650.500     -340.046      -36.876      307.015      267.557      145.671    94258.018    71586.581    21219.976       36.357        9.353      734.017      146.045        0.040      338.675       11.484      861.560
01/11/2014  08:17:00     -502.846     -223.429      -27.912      355.149      257.710      134.107   126131.131    66414.431    17984.737       25.701       10.527      550.249      156.478        0.081      338.628       11.405      861.571
01/11/2014  08:18:00     -423.233     -213.476      -13.749      280.831      178.429       96.536    78866.028    31836.995     9319.138       17.243        6.001      474.024      116.072        0.060      338.626       11.402      861.616
01/11/2014  08:19:00     -532.748     -254.369      -36.543      220.220      201.567      113.271    48497.038    40629.393    12830.327       22.589        5.098      590.359      111.040        0.035      338.592       11.345      861.683
01/11/2014  08:20:00     -599.321     -370.500      -31.256      326.854      269.912      106.675   106833.591    72852.342    11379.642       34.422        9.553      704.597      133.298        0.036      338.616       11.384      861.582
01/11/2014  08:21:00     -668.895     -319.558      -19.191      363.120      330.982      151.612   131856.396   109548.994    22986.244       40.710       13.220      741.308      173.984        0.055      338.615       11.384      861.617
01/11/2014  08:22:00     -440.771     -325.837       -5.749      277.906      247.607      116.592    77231.940    61308.996    13593.649       22.628        7.607      548.132      134.404        0.060      338.590       11.341      861.611
01/11/2014  08:23:00     -750.570     -249.813      -21.231      326.541      261.968      117.415   106629.138    68627.425    13786.207       40.760        9.452      791.051      119.107        0.023      338.622       11.395      861.580
01/11/2014  08:24:00     -587.549     -238.446      -35.028      324.769      182.323      114.047   105475.226    33241.780    13006.672       27.749        7.586      634.090      146.784        0.054      338.587       11.337      861.610
01/11/2014  08:25:00     -410.990     -127.906        1.001      254.230      203.234      107.795    64632.815    41304.204    11619.851       15.140        5.878      430.433      117.699        0.075      338.555       11.284      861.607
01/11/2014  08:26:00     -482.852     -171.762      -14.380      247.078      240.767      117.054    61047.544    57968.660    13701.682       19.776        6.636      512.492      118.868        0.054      338.526       11.235      861.637
01/11/2014  08:27:00     -547.401     -321.166      -12.961      266.428      235.889      115.977    70984.051    55643.399    13450.727       27.150        7.004      634.661      126.615        0.040      338.554       11.282      861.599
01/11/2014  08:28:00     -796.069     -306.942      -30.265      402.426      275.123      152.833   161946.355    75692.588    23357.998       49.488       13.050      853.194      192.312        0.051      338.594       11.348      861.547
01/11/2014  08:29:00     -476.385     -335.744       -2.154      330.253      237.901      131.165   109066.938    56596.933    17204.177       26.124        9.143      582.809      161.840        0.077      338.571       11.309      861.579
01/11/2014  08:30:00     -609.886     -389.130      -18.183      297.478      266.006      120.890    88493.444    70759.273    14614.487       34.876        8.693      723.452      115.313        0.025      338.617       11.386      861.622
01/11/2014  08:31:00     -648.605     -146.044      -32.299      336.747      292.924      127.495   113398.659    85804.470    16255.060       32.922       10.773      664.844      152.717        0.053      338.564       11.298      861.674
01/11/2014  08:32:00     -593.048     -270.322       -7.673      340.926      272.379      131.652   116230.296    74190.143    17332.125       31.626       10.388      651.752      169.419        0.068      338.587       11.337      861.643
01/11/2014  08:33:00     -550.128      -90.055      -11.779      267.901      219.147      131.003    71771.182    48025.222    17161.683       22.390        6.848      557.450      122.375        0.048      338.561       11.294      861.639
01/11/2014  08:34:00     -604.683     -182.117      -13.061      204.165      238.067      108.230    41683.396    56675.949    11713.785       25.451        5.504      631.512       92.600        0.022      338.563       11.296      861.623
01/11/2014  08:35:00     -612.539     -367.375       -6.896      350.405      266.711      160.034   122783.349    71134.722    25611.022       36.484       10.976      714.261      198.882        0.078      338.589       11.340      861.634
01/11/2014  08:36:00     -467.220     -259.019      -15.212      255.012      191.608      108.692    65031.245    36713.631    11813.869       19.957        5.678      534.215      106.175        0.040      338.546       11.268      861.548
01/11/2014  08:37:00     -401.063     -297.062        9.897      283.586      291.284      142.873    80421.078    84846.111    20412.655       21.741        9.284      499.096      177.529        0.127      338.530       11.241      861.507
01/11/2014  08:38:00     -758.061     -309.210      -53.117      289.685      238.335      117.335    83917.256    56803.711    13767.422       41.376        7.724      818.699      100.256        0.015      338.564       11.299      861.540
01/11/2014  08:39:00     -473.524     -282.534       -9.713      269.870      227.480      117.024    72829.756    51747.179    13694.507       22.118        6.914      551.408      129.191        0.055      338.554       11.281      861.532
01/11/2014  08:40:00     -509.241     -332.769       -5.420      271.529      229.878      119.247    73727.840    52843.743    14219.932       25.542        7.040      608.326      136.355        0.050      338.559       11.289      861.592
01/11/2014  08:41:00     -493.941     -403.897       -8.070      259.744      223.111      123.008    67466.911    49778.679    15130.976       26.975        6.619      638.052      127.364        0.040      338.598       11.356      861.576
01/11/2014  08:42:00     -603.726     -360.518       -9.695      346.993      239.765      144.381   120404.371    57487.124    20845.807       34.661        9.937      703.177      167.956        0.057      338.616       11.385      861.591
01/11/2014  08:43:00     -368.508     -180.624       11.367      324.323      225.349      115.017   105185.528    50782.025    13228.987       16.885        8.460      410.394      127.421        0.096      338.628       11.406      861.644
01/11/2014  08:44:00     -382.890     -255.000        0.089      231.220      179.826       95.839    53462.509    32337.472     9185.057       15.329        4.749      460.032      103.006        0.050      338.645       11.433      861.704
01/11/2014  08:45:00     -709.767     -142.991      -19.552      343.408      260.356      121.465   117929.019    67785.259    14753.849       36.250       10.023      724.027      141.274        0.038      338.726       11.570      861.634
01/11/2014  08:46:00     -541.037     -208.694        2.625      294.848      222.276      139.043    86935.098    49406.468    19332.974       24.595        7.784      579.892      157.608        0.074      338.781       11.663      861.491
01/11/2014  08:47:00     -579.064     -402.904        9.690      285.496      274.634      141.213    81508.027    75424.042    19941.184       33.728        8.844      705.441      150.951        0.046      338.774       11.651      861.533
01/11/2014  08:48:00     -589.903     -452.310       -9.744      378.574      250.069      139.231   143318.362    62534.556    19385.317       38.891       11.262      743.350      181.906        0.060      338.790       11.679      861.507
01/11/2014  08:49:00     -427.084     -212.274       14.718      337.851      319.865      164.590   114143.245   102313.334    27089.916       23.557       12.177      476.929      190.790        0.160      338.808       11.708      861.530
01/11/2014  08:50:00     -651.482     -279.167      -17.970      357.849      264.660      128.933   128055.927    70044.968    16623.650       35.867       10.736      708.776      145.063        0.042      338.784       11.667      861.518
01/11/2014  08:51:00     -547.872     -245.361      -10.218      319.465      271.278      139.971   102057.844    73591.775    19591.775       27.782        9.762      600.305      149.150        0.062      338.771       11.647      861.472
01/11/2014  08:52:00     -594.313     -331.401      -24.477      332.123      217.063      119.016   110305.516    47116.326    14164.898       31.758        8.579      680.467      114.673        0.028      338.771       11.646      861.407
01/11/2014  08:53:00     -698.674     -246.654      -14.674      307.311      316.771      137.263    94440.015   100343.609    18841.056       38.138       10.681      740.934      150.851        0.041      338.777       11.656      861.405
01/11/2014  08:54:00     -616.243     -430.539       -2.621      353.713      336.364      126.002   125112.791   113140.463    15876.448       40.959       12.706      751.744      153.841        0.042      338.765       11.636      861.402
01/11/2014  08:55:00     -654.323     -412.844       -7.862      319.995      260.062      156.725   102396.693    67632.093    24562.766       39.658        9.730      773.679      177.593        0.053      338.764       11.635      861.386
01/11/2014  08:56:00     -586.418     -268.734      -17.619      311.652      225.175      121.784    97126.710    50703.716    14831.405       28.951        8.133      645.061      147.652        0.052      338.749       11.609      861.406
01/11/2014  08:57:00     -548.416     -299.854      -18.480      329.728      241.295      133.519   108720.325    58223.282    17827.381       28.786        9.239      625.038      144.794        0.054      338.733       11.582      861.398
01/11/2014  08:58:00     -668.205     -381.839      -37.385      338.246      268.811      132.891   114410.131    72259.328    17659.935       39.898       10.216      769.609      166.295        0.047      338.744       11.601      861.409
01/11/2014  08:59:00     -628.622     -386.471       -0.317      354.740      302.707      156.135   125840.202    91631.326    24378.255       39.315       12.092      737.920      173.764        0.055      338.751       11.611      861.336
01/11/2014  09:00:00     -783.646     -342.214      -33.766      348.223      235.307      124.473   121259.030    55369.209    15493.434       46.220        9.606      855.110      148.020        0.030      338.755       11.619      861.408
01/11/2014  09:01:00     -716.279     -390.621       -7.051      350.819      348.468      151.878   123074.078   121429.910    23066.802       46.659       13.379      815.868      152.924        0.035      338.745       11.602      861.303
01/11/2014  09:02:00     -684.927     -261.988      -16.597      393.177      316.915      155.766   154588.155   100435.416    24263.156       40.862       13.964      733.323      193.022        0.069      338.791       11.679      861.389
01/11/2014  09:03:00     -694.413     -399.582      -22.543      419.703      243.442      148.686   176150.408    59263.874    22107.394       44.991       12.876      801.171      188.698        0.055      338.804       11.701      861.322
01/11/2014  09:04:00     -571.825     -304.042       34.375      394.749      319.870      171.277   155826.783   102316.638    29335.684       35.399       14.374      647.631      200.374        0.096      338.809       11.711      861.326
01/11/2014  09:05:00     -549.076     -282.735       11.410      276.419      259.925      133.015    76407.669    67560.824    17692.972       27.158        8.083      617.595      146.552        0.056      338.767       11.639      861.328
01/11/2014  09:06:00     -884.326     -582.557      -23.542      401.916      329.296      152.344   161536.842   108436.180    23208.709       70.752       14.659     1058.964      190.451        0.032      338.724       11.567      861.257
01/11/2014  09:07:00     -700.694     -343.118      -11.224      360.993      269.328      159.396   130316.125    72537.828    25407.128       41.851       11.413      780.194      178.137        0.052      338.692       11.512      861.282
01/11/2014  09:08:00     -569.189     -355.584      -12.104      331.308      296.234      141.745   109764.772    87754.729    20091.781       33.405       10.881      671.131      140.754        0.044      338.689       11.508      861.344
01/11/2014  09:09:00     -628.558     -204.233      -13.237      292.554      261.068      125.190    85587.708    68156.594    15672.642       30.317        8.471      660.905      146.298        0.049      338.673       11.480      861.353
01/11/2014  09:10:00     -831.741     -185.353      -20.540      415.080      340.316      146.471   172291.056   115815.073    21453.667       51.801       15.478      852.143      172.978        0.041      338.669       11.474      861.315
01/11/2014  09:11:00     -603.956     -319.006      -13.185      388.668      328.074      152.250   151062.632   107632.538    23180.131       37.424       14.094      683.028      184.475        0.073      338.677       11.488      861.366
01/11/2014  09:12:00     -472.804     -398.446       -3.091      321.594      288.493      156.596   103422.761    83228.430    24522.338       29.671       10.559      618.307      180.962        0.086      338.651       11.443      861.383
01/11/2014  09:13:00     -472.314     -163.570       22.855      278.871      210.216      129.747    77768.901    44190.891    16834.208       19.455        6.940      499.836      128.576        0.066      338.669       11.472      861.422
01/11/2014  09:14:00     -683.714     -431.793      -12.812      379.955      286.133      118.277   144365.861    81872.224    13989.380       44.711       12.011      808.647      145.626        0.032      338.696       11.520      861.389
01/11/2014  09:15:00     -724.294     -288.432      -44.909      368.311      271.933      149.768   135652.937    73947.796    22430.313       42.088       11.602      779.612      172.109        0.049      338.708       11.541      861.367
01/11/2014  09:16:00     -526.263     -349.943        8.445      424.628      287.190      150.343   180308.644    82477.955    22603.086       34.239       14.269      631.991      213.102        0.114      338.718       11.557      861.330
01/11/2014  09:17:00     -548.690     -413.246        1.214      276.843      195.414      130.650    76641.971    38186.542    17069.387       30.184        6.595      686.901      150.594        0.048      338.690       11.509      861.310
01/11/2014  09:18:00     -735.334     -427.754      -15.537      499.366      320.795      166.290   249365.957   102909.654    27652.273       55.187       18.996      850.700      224.048        0.069      338.692       11.514      861.224
01/11/2014  09:19:00     -548.790     -276.725      -21.426      356.983      242.213      141.518   127436.880    58667.311    20027.345       29.213       10.307      614.611      164.062        0.071      338.723       11.565      861.204
01/11/2014  09:20:00     -721.788     -463.959        3.834      411.340      291.698      158.317   169200.979    85087.924    25064.403       50.776       13.968      858.042      194.252        0.051      338.692       11.513      861.191
01/11/2014  09:21:00     -724.814     -402.076      -22.439      401.796      383.911      154.877   161439.970   147387.667    23986.873       51.011       16.641      828.867      171.977        0.043      338.673       11.482      861.163
01/11/2014  09:22:00     -742.738     -308.898      -20.211      385.691      320.017      162.323   148757.341   102411.010    26348.844       46.246       13.876      804.412      190.336        0.056      338.708       11.539      861.192
01/11/2014  09:23:00     -838.785     -352.813      -58.317      370.225      249.985      142.029   137066.902    62492.391    20172.265       52.555       10.987      909.966      160.422        0.031      338.677       11.488      861.216
01/11/2014  09:24:00     -496.980     -196.061       -0.031      331.428      194.858      123.855   109844.230    37969.639    15340.065       22.426        8.158      534.256      161.317        0.091      338.689       11.508      861.249
01/11/2014  09:25:00     -530.235     -262.434        1.357      261.212      221.932      116.773    68231.851    49253.629    13635.883       24.055        6.556      591.626      117.039        0.039      338.663       11.464      861.262
01/11/2014  09:26:00     -682.848     -382.223      -35.717      309.395      249.938      126.027    95725.138    62469.240    15882.839       39.384        8.704      782.544      120.987        0.024      338.651       11.442      861.219
01/11/2014  09:27:00     -462.495     -281.198       16.454      355.630      240.253      135.071   126472.483    57721.584    18244.243       24.781       10.122      541.271      179.768        0.110      338.633       11.414      861.246
01/11/2014  09:28:00     -593.910     -337.283      -16.483      364.235      271.888      157.127   132666.852    73922.865    24688.755       34.898       11.564      683.000      177.686        0.068      338.620       11.391      861.209
01/11/2014  09:29:00     -596.617     -469.502      -14.417      424.773      365.721      175.645   180431.725   133752.193    30851.138       46.076       17.252      759.200      212.576        0.078      338.626       11.403      861.164
01/11/2014  09:30:00     -575.498     -302.547      -21.964      313.161      226.359      116.495    98069.955    51238.317    13571.082       29.302        8.144      650.179      129.470        0.040      338.633       11.412      861.267
01/11/2014  09:31:00     -527.306     -165.408       16.501      252.610      250.096      131.310    63812.054    62548.149    17242.234       22.462        7.180      552.641      130.056        0.055      338.632       11.412      861.262
01/11/2014  09:32:00     -584.040     -371.885      -20.813      357.453      251.722      147.812   127772.862    63363.943    21848.421       34.637       10.649      692.388      148.757        0.046      338.608       11.371      861.220
01/11/2014  09:33:00     -530.577     -204.026        4.133      355.579      267.127      158.033   126436.560    71356.654    24974.501       27.292       11.138      568.453      177.512        0.098      338.582       11.328      861.248
01/11/2014  09:34:00     -539.737     -313.105      -25.101      394.459      277.599      123.376   155597.598    77061.006    15221.681       31.889       12.394      623.979      161.552        0.067      338.548       11.270      861.280
01/11/2014  09:35:00     -609.592     -146.039        0.839      294.714      268.642      133.126    86856.552    72168.524    17722.494       28.481        8.837      626.841      137.438        0.048      338.540       11.258      861.249
01/11/2014  09:36:00     -680.296     -189.091      -12.491      325.894      211.733      130.101   106206.924    44830.963    16926.343       33.331        8.398      706.086      150.073        0.045      338.507       11.201      861.254
01/11/2014  09:37:00     -538.257     -232.357      -20.012      252.537      210.326      106.500    63774.738    44237.054    11342.315       23.171        5.968      586.268      115.541        0.039      338.484       11.165      861.250
01/11/2014  09:38:00     -336.452     -298.933       21.074      347.469      272.806      140.922   120734.380    74422.852    19858.887       20.897       10.751      450.068      185.893        0.171      338.528       11.237      861.184
01/11/2014  09:39:00     -363.130     -190.055      -12.341      266.655      216.221      120.826    71104.647    46751.525    14598.859       15.027        6.623      409.859      116.473        0.081      338.485       11.164      861.198
01/11/2014  09:40:00     -681.259     -475.791      -28.634      338.122      299.539      150.928   114326.158    89723.465    22779.166       45.903       11.341      830.958      184.158        0.049      338.459       11.119      861.189
01/11/2014  09:41:00     -480.171     -183.748       -8.767      352.875      281.537      148.663   124520.819    79263.304    22100.834       24.511       11.294      514.128      178.814        0.121      338.472       11.143      861.156
01/11/2014  09:42:00     -632.956     -357.035      -10.517      365.908      331.462      148.319   133888.474   109866.859    21998.559       39.694       13.288      726.710      151.356        0.043      338.467       11.135      861.156
01/11/2014  09:43:00     -647.145     -294.609       -5.521      376.903      293.682      154.337   142055.736    86249.171    23819.967       37.883       12.606      711.049      175.106        0.061      338.453       11.111      861.200
01/11/2014  09:44:00     -469.555     -190.748      -32.463      264.193      236.533      116.070    69797.906    55947.937    13472.248       19.855        6.961      506.820      145.345        0.082      338.436       11.081      861.243
01/11/2014  09:45:00     -668.177     -461.791      -28.332      317.403      241.948      128.374   100744.740    58538.783    16479.798       41.811        8.788      812.226      134.867        0.028      338.454       11.113      861.232
01/11/2014  09:46:00     -552.602     -276.662      -21.087      322.369      256.730      142.575   103922.030    65910.467    20327.517       28.623        9.508      617.989      141.730        0.053      338.461       11.123      861.233
01/11/2014  09:47:00     -724.242     -382.465      -28.341      347.536      314.780      142.707   120781.481    99086.159    20365.413       45.588       12.012      819.028      164.203        0.040      338.457       11.117      861.209
01/11/2014  09:48:00     -518.382     -242.343       -0.053      315.096      255.462      133.679    99285.714    65260.825    17870.031       25.490        9.121      572.233      163.105        0.081      338.434       11.078      861.206
01/11/2014  09:49:00     -454.048     -360.869        5.954      313.991      254.994      160.503    98590.614    65021.978    25761.338       26.287        9.469      579.988      179.697        0.096      338.406       11.032      861.095
01/11/2014  09:50:00     -538.947     -323.649      -29.784      349.949      225.465      131.721   122464.362    50834.242    17350.428       29.334        9.532      628.659      152.729        0.059      338.384       10.996      861.078
01/11/2014  09:51:00     -537.399     -186.610      -33.541      241.166      230.771      132.223    58161.008    53255.421    17483.025       22.680        6.445      568.877      144.340        0.064      338.360       10.955      861.149
01/11/2014  09:52:00     -443.607     -184.103      -22.477      308.003      219.343      106.231    94866.111    48111.449    11285.043       19.270        7.713      480.293      128.361        0.071      338.352       10.942      861.163
01/11/2014  09:53:00     -497.118     -278.030       -5.459      364.226      236.895      129.336   132660.843    56119.347    16727.811       26.495       10.275      569.585      161.370        0.080      338.330       10.905      861.132
01/11/2014  09:54:00     -489.365     -233.748      -14.577      355.524      270.863      131.389   126397.377    73366.951    17263.159       25.564       10.851      542.325      157.523        0.084      338.342       10.925      861.068
01/11/2014  09:55:00     -358.754     -272.496       -6.131      248.895      204.069       94.530    61948.958    41644.241     8935.873       15.774        5.626      450.509      115.493        0.066      338.333       10.910      861.097
01/11/2014  09:56:00     -541.233     -281.906      -37.437      325.204      245.578      106.161   105757.580    60308.569    11270.255       27.554        8.867      610.249      118.486        0.038      338.320       10.888      861.056
01/11/2014  09:57:00     -456.511     -327.908      -14.034      278.208      197.140      111.532    77399.837    38864.167    12439.449       22.239        6.435      562.073      123.890        0.049      338.298       10.851      860.955
01/11/2014  09:58:00     -582.848     -282.214       -8.772      241.596      248.943      111.069    58368.634    61972.658    12336.312       27.603        6.634      647.577      103.019        0.025      338.290       10.837      860.969
01/11/2014  09:59:00     -668.787     -241.803      -20.033      301.158      261.321      125.425    90696.344    68288.596    15731.411       34.040        8.736      711.157      135.480        0.036      338.297       10.851      860.935
01/11/2014  10:00:00     -490.851     -159.026        4.622      201.154      261.324       96.517    40463.066    68290.201     9315.564       19.214        5.903      515.969       90.137        0.031      338.304       10.861      861.037
01/11/2014  10:01:00     -455.455     -286.698      -20.058      211.320      179.387      103.866    44655.961    32179.567    10788.135       18.882        4.381      538.177      103.742        0.037      338.311       10.872      861.007
01/11/2014  10:02:00     -365.236      -72.915       11.649      300.027      165.756      112.301    90016.387    27475.168    12611.504       13.445        6.505      372.443      131.396        0.124      338.322       10.893      861.054
01/11/2014  10:03:00     -390.916     -160.679        8.812      265.341      226.564      109.601    70405.774    51331.088    12012.455       15.621        6.687      422.650      132.424        0.098      338.324       10.896      861.056
01/11/2014  10:04:00     -358.393     -158.773        2.770      237.842      169.192      105.260    56568.691    28626.083    11079.652       12.495        4.814      391.988      115.466        0.087      338.349       10.936      861.040
01/11/2014  10:05:00     -488.160     -312.561       -3.404      257.064      200.139      134.121    66081.666    40055.588    17988.312       23.005        6.206      579.651      133.159        0.053      338.357       10.951      861.046
01/11/2014  10:06:00     -526.448     -368.351      -21.018      228.212      217.850      107.919    52080.854    47458.805    11646.489       26.221        5.559      642.519      115.896        0.033      338.352       10.941      861.033
01/11/2014  10:07:00     -469.752     -219.936      -10.708      308.410      218.203      120.194    95116.866    47612.612    14446.480       21.314        7.859      518.689      144.915        0.078      338.416       11.050      861.051
01/11/2014  10:08:00     -389.656     -152.957      -13.737      244.696      211.747      114.065    59875.944    44836.853    13010.737       14.655        5.886      418.602      127.495        0.093      338.457       11.119      861.073
01/11/2014  10:09:00     -466.665     -207.128      -15.730      262.120      232.034      106.625    68707.093    53839.821    11368.881       19.740        6.696      510.566      123.327        0.058      338.444       11.096      861.115
01/11/2014  10:10:00     -627.326     -206.009      -16.720      231.198      222.879      101.826    53452.662    49674.998    10368.489       27.486        5.675      660.286       87.170        0.017      338.430       11.072      861.135
01/11/2014  10:11:00     -658.263     -280.711      -48.755      308.562      222.162      121.789    95210.532    49355.792    14832.657       33.692        7.970      715.618      110.117        0.024      338.464       11.130      861.122
01/11/2014  10:12:00     -554.912     -133.116       -9.754      311.279      283.674      126.894    96894.458    80471.122    16102.086       25.957        9.673      570.655      126.771        0.049      338.463       11.129      861.043
01/11/2014  10:13:00     -571.667     -362.325      -18.458      347.187      305.998      147.973   120539.145    93634.720    21896.029       34.721       11.803      676.818      162.835        0.058      338.501       11.192      860.996
01/11/2014  10:14:00     -459.045     -263.393      -18.865      323.175      230.473      140.617   104442.361    53117.867    19773.037       22.886        8.867      529.243      167.116        0.100      338.520       11.223      861.030
01/11/2014  10:15:00     -431.751     -288.663        1.465      303.440      243.995      132.831    92076.025    59533.458    17644.034       21.947        8.463      519.361      155.410        0.090      338.511       11.209      861.037
01/11/2014  10:16:00     -320.886     -221.141       17.475      266.962      231.256      160.333    71268.848    53479.387    25706.616       15.129        7.523      389.707      155.401        0.159      338.537       11.253      860.963
01/11/2014  10:17:00     -499.836     -189.939       14.105      419.803      277.881      146.697   176234.867    77217.851    21520.126       28.050       13.749      534.708      189.216        0.125      338.569       11.307      860.990
01/11/2014  10:18:00     -571.282     -170.894        1.923      456.311      230.786      147.068   208220.084    53262.285    21629.054       31.929       14.156      596.295      197.590        0.110      338.612       11.377      861.046
01/11/2014  10:19:00     -488.436     -319.364       -1.140      312.201      295.360      134.815    97469.426    87237.273    18175.157       27.169       10.144      583.577      149.297        0.065      338.638       11.422      861.085
01/11/2014  10:20:00     -300.619     -201.374       -9.267      223.064      188.185      102.513    49757.740    35413.503    10508.971       11.333        4.784      361.834       98.122        0.074      338.666       11.469      861.069
01/11/2014  10:21:00     -440.518     -315.509       -9.457      356.308      256.609      145.293   126955.729    65848.434    21110.022       25.377       10.696      541.850      171.368        0.100      338.650       11.442      861.080
01/11/2014  10:22:00     -566.637     -240.877      -14.585      358.385      247.752      129.921   128439.708    61381.218    16879.396       29.297       10.335      615.710      163.926        0.071      338.716       11.553      861.090
01/11/2014  10:23:00     -408.976     -272.002       24.509      406.191      294.433      182.946   164991.204    86690.664    33469.358       26.345       14.258      491.168      207.559        0.179      338.756       11.620      860.959
01/11/2014  10:24:00     -495.985     -145.980       -4.333      343.020      225.078      114.762   117662.943    50660.284    13170.218       22.438        9.075      517.021      139.874        0.073      338.737       11.588      860.996
01/11/2014  10:25:00     -446.863     -125.301      -19.598      376.998      226.234      125.324   142127.235    51181.976    15706.217       21.236       10.451      464.097      155.465        0.112      338.750       11.612      861.000
01/11/2014  10:26:00     -350.132     -184.962        4.639      349.015      241.279      140.694   121811.689    58215.574    19794.712       17.829        9.991      395.985      160.396        0.164      338.783       11.667      860.988
01/11/2014  10:27:00     -523.331     -329.341      -25.518      283.601      193.950      129.762    80429.595    37616.655    16838.057       25.892        6.744      618.337      151.171        0.060      338.844       11.767      860.960
01/11/2014  10:28:00     -378.326     -284.483        1.347      340.106      248.047      119.250   115672.168    61527.404    14220.479       20.771        9.571      473.351      153.312        0.105      338.885       11.838      860.986
01/11/2014  10:29:00     -433.028     -124.179        7.752      300.359      219.636      125.569    90215.320    48239.818    15767.517       17.858        7.711      450.481      160.217        0.126      338.895       11.854      861.034
01/11/2014  10:30:00     -584.585     -254.078      -16.205      324.706      256.660      120.729   105433.738    65874.250    14575.373       29.619        9.294      637.413      135.355        0.045      338.864       11.801      861.066
01/11/2014  10:31:00     -399.779     -181.246      -19.637      246.004      164.459      100.467    60517.889    27046.679    10093.674       14.534        4.883      438.946      117.514        0.072      338.879       11.826      861.072
01/11/2014  10:32:00     -602.969     -147.482      -19.627      344.142      263.848      117.724   118433.753    69615.849    13858.978       29.377       10.095      620.743      136.544        0.048      338.872       11.815      861.101
01/11/2014  10:33:00     -774.958     -259.720      -32.793      430.311      322.603      133.842   185167.705   104072.995    17913.798       48.807       15.358      817.321      151.678        0.034      338.855       11.786      861.002
01/11/2014  10:34:00     -570.293      -74.911      -28.460      268.050      202.564      102.623    71850.545    41032.171    10531.388       22.751        6.171      575.192      128.541        0.050      338.878       11.825      861.093
01/11/2014  10:35:00     -768.275     -133.673      -50.608      393.451      305.703      135.132   154803.797    93454.337    18260.638       43.855       13.326      779.817      148.670        0.036      338.808       11.707      861.088
01/11/2014  10:36:00     -345.077     -163.142       10.233      324.835      229.181      143.556   105517.692    52523.849    20608.408       16.219        8.932      381.698      175.323        0.211      338.839       11.761      861.087
01/11/2014  10:37:00     -663.116     -466.974      -21.414      325.238      228.392      156.190   105779.640    52162.752    24395.243       42.026        9.117      811.041      170.849        0.044      338.816       11.722      861.154
01/11/2014  10:38:00     -543.455     -101.115      -20.200      288.949      244.760      113.776    83491.349    59907.289    12945.073       23.113        7.817      552.781      110.817        0.040      338.807       11.707      861.096
01/11/2014  10:39:00     -407.072      -80.077       17.936      307.529      198.791      136.571    94574.367    39517.971    18651.753       16.257        7.637      414.873      169.431        0.167      338.824       11.736      861.119
01/11/2014  10:40:00     -644.739     -141.378       -1.823      362.348      301.872      132.099   131296.074    91126.556    17450.044       33.774       11.994      660.058      146.539        0.049      338.769       11.642      861.080
01/11/2014  10:41:00     -405.592     -240.267      -11.312      251.705      237.526      124.765    63355.310    56418.575    15566.398       17.883        6.767      471.416      153.327        0.106      338.797       11.692      861.172
01/11/2014  10:42:00     -356.435     -201.688      -14.895      258.431      193.459      105.401    66786.447    37426.432    11109.367       14.161        5.766      409.541      109.346        0.071      338.801       11.696      861.181
01/11/2014  10:43:00     -480.274     -194.729        5.026      360.099      210.648      119.469   129671.441    44372.624    14272.942       22.843        9.416      518.250      127.121        0.060      338.780       11.661      861.246
01/11/2014  10:44:00     -843.561     -311.081      -22.135      462.135      252.786      156.026   213568.993    63900.758    24343.999       55.528       15.091      899.092      180.024        0.040      338.685       11.501      861.178
01/11/2014  10:45:00     -309.346     -128.429       24.523      372.862      224.138      126.712   139026.283    50237.932    16056.018       15.902       10.266      334.946      149.724        0.200      338.740       11.595      861.151
01/11/2014  10:46:00     -381.861     -128.901      -21.667      258.516      234.976       97.089    66830.700    55213.767     9426.302       14.716        6.574      403.030      101.860        0.064      338.725       11.569      861.162
01/11/2014  10:47:00     -433.845     -172.149      -12.692      330.107      245.338      152.105   108970.420    60190.715    23135.979       20.513        9.615      466.751      173.684        0.138      338.701       11.529      861.132
01/11/2014  10:48:00     -512.909     -350.116      -11.740      296.930      320.339      140.906    88167.510   102617.183    19854.530       29.818       10.532      621.013      142.011        0.052      338.697       11.521      861.111
01/11/2014  10:49:00     -494.518     -413.318       14.435      398.480      276.970      174.651   158785.973    76712.653    30502.896       34.075       13.300      644.500      204.961        0.101      338.712       11.547      861.070
01/11/2014  10:50:00     -660.905      -96.366      -40.236      359.666      260.322      119.267   129359.649    67767.779    14224.651       32.949       10.568      667.894      153.516        0.053      338.715       11.551      861.112
01/11/2014  10:51:00     -625.608     -128.748        0.512      343.161      255.987      145.785   117759.224    65529.128    21253.315       30.622       10.227      638.718      172.060        0.073      338.748       11.607      861.165
01/11/2014  10:52:00     -633.948     -289.396      -15.804      331.247      269.566      146.204   109724.726    72665.800    21375.495       34.479       10.188      696.879      163.657        0.055      338.735       11.586      861.234
01/11/2014  10:53:00     -832.497     -208.777      -27.273      416.310      291.939      150.636   173314.098    85228.670    22691.233       50.926       14.062      858.277      194.994        0.052      338.700       11.526      861.245
01/11/2014  10:54:00     -910.572     -282.904      -28.826      363.268      337.728      156.201   131963.619   114060.274    24398.750       59.017       13.521      953.507      180.288        0.036      338.616       11.384      861.184
01/11/2014  10:55:00     -665.120     -222.402       -1.867      321.609      264.254      145.800   103432.413    69830.266    21257.777       34.315        9.726      701.318      162.529        0.054      338.668       11.473      861.212
01/11/2014  10:56:00     -638.140     -285.500      -19.870      507.364      315.397      146.314   257418.136    99475.185    21407.680       43.365       18.915      699.094      186.516        0.071      338.696       11.520      861.236
01/11/2014  10:57:00     -593.667     -237.487      -34.320      380.355      327.924      133.837   144669.637   107533.942    17912.375       34.002       13.506      639.406      151.416        0.056      338.714       11.550      861.252
01/11/2014  10:58:00     -797.030     -402.847      -27.991      421.557      381.499      173.533   177710.360   145541.742    30113.665       57.579       17.668      893.052      189.166        0.045      338.553       11.279      861.244
01/11/2014  10:59:00     -556.392     -364.619       -3.454      393.717      253.819      151.867   155013.274    64424.332    23063.603       34.248       12.125      665.221      173.032        0.068      338.551       11.276      861.236
01/11/2014  11:00:00     -686.314     -298.789      -32.957      351.315      327.163      139.614   123422.395   107035.416    19492.069       40.563       12.497      748.533      154.478        0.043      338.518       11.220      861.397
01/11/2014  11:01:00     -485.086     -250.575      -29.402      325.439      260.565      122.202   105910.300    67894.140    14933.396       24.382        9.437      545.982      168.538        0.095      338.589       11.340      861.465
01/11/2014  11:02:00     -720.495     -333.122      -37.345      365.410      282.980      132.130   133524.546    80077.597    17458.394       43.123       11.553      793.778      146.775        0.034      338.498       11.186      861.514
01/11/2014  11:03:00     -642.622     -253.570      -16.027      329.956      281.659      135.786   108871.161    79331.911    18437.799       34.204       10.332      690.841      159.243        0.053      338.467       11.135      861.530
01/11/2014  11:04:00     -761.742     -343.046      -39.451      392.856      366.697      173.550   154335.810   134466.491    30119.766       50.915       15.946      835.423      206.605        0.061      338.337       10.918      861.510
01/11/2014  11:05:00     -707.890     -244.465      -43.999      322.800      273.273      152.631   104199.533    74678.244    23296.267       38.246       10.109      748.914      162.365        0.047      338.287       10.832      861.466
01/11/2014  11:06:00     -996.432     -409.235      -40.807      418.036      381.742      168.649   174753.738   145726.820    28442.323       75.541       17.446     1077.196      186.321        0.030      338.058       10.448      861.387
01/11/2014  11:07:00     -554.429     -294.965       -9.106      438.620      275.524      167.730   192387.197    75913.517    28133.215       34.541       14.822      628.010      218.034        0.121      338.145       10.595      861.459
01/11/2014  11:08:00     -577.393     -196.742        9.508      416.542      367.895      166.013   173507.137   135346.495    27560.327       35.424       16.821      609.992      198.850        0.106      338.072       10.472      861.463
01/11/2014  11:09:00     -560.982     -314.265      -25.829      307.454      236.832      124.617    94527.926    56089.179    15529.459       29.011        8.307      643.011      123.926        0.037      338.034       10.407      861.513
01/11/2014  11:10:00     -410.303     -317.161      -26.300      351.591      313.634      154.329   123616.045    98366.190    23817.436       25.767       12.290      518.594      167.007        0.104      338.010       10.368      861.553
01/11/2014  11:11:00     -859.326     -461.808      -18.036      394.395      360.379      173.503   155547.326   129872.900    30103.394       63.373       15.776      975.555      200.148        0.042      337.800       10.015      861.416
01/11/2014  11:12:00     -534.605     -332.570       12.313      359.194      271.732      159.127   129020.416    73838.326    25321.328       31.233       11.409      629.607      192.694        0.094      337.909       10.199      861.437
01/11/2014  11:13:00     -679.493     -355.483      -33.593      355.615      308.189      137.004   126461.907    94980.426    18770.141       41.467       12.011      766.863      151.736        0.039      337.790       10.000      861.394
01/11/2014  11:14:00     -604.378     -262.396      -10.631      502.690      327.917      130.107   252697.429   107529.631    16927.774       40.563       18.858      658.881      150.317        0.052      337.823       10.054      861.378
01/11/2014  11:15:00     -877.519     -329.520      -46.038      378.665      324.800      166.254   143387.270   105494.945    27640.246       57.859       13.826      937.349      171.774        0.034      337.655        9.773      861.286
01/11/2014  11:16:00     -516.744     -364.118       16.407      416.234      303.129      172.212   173250.668    91887.371    29657.041       34.729       14.740      632.144      205.053        0.105      337.689        9.830      861.270
01/11/2014  11:17:00     -629.382     -352.449      -10.851      372.652      244.362      147.100   138869.840    59712.787    21638.500       37.030       11.011      721.348      162.598        0.051      337.608        9.693      861.298
01/11/2014  11:18:00     -648.867     -240.815      -30.481      353.156      312.160      152.875   124719.297    97443.925    23370.708       36.270       12.277      692.113      178.835        0.067      337.647        9.760      861.314
01/11/2014  11:19:00     -632.392     -324.279       -7.631      428.177      349.185      162.825   183335.363   121929.964    26512.126       41.840       16.589      710.688      183.198        0.066      337.659        9.778      861.226
01/11/2014  11:20:00     -431.526     -264.845       -3.976      382.787      256.426      151.625   146525.711    65754.047    22990.274       24.578       11.764      506.318      181.777        0.129      337.664        9.788      861.179
01/11/2014  11:21:00     -423.952     -151.331      -22.918      245.395      249.445       97.497    60218.464    62222.741     9505.631       16.753        6.597      450.152      114.299        0.064      337.699        9.846      861.142
01/11/2014  11:22:00     -554.344     -248.489       -6.040      462.276      288.819      172.038   213699.276    83416.674    29596.981       34.784       16.336      607.490      217.748        0.128      337.758        9.945      861.034
01/11/2014  11:23:00     -552.215     -434.643      -12.973      423.389      396.840      181.628   179258.147   157482.354    32988.709       43.181       18.486      702.749      229.609        0.107      337.649        9.763      860.928
01/11/2014  11:24:00     -613.449     -347.139       -7.762      449.445      322.040      169.452   202000.942   103709.658    28714.055       41.560       16.721      704.858      190.567        0.073      337.634        9.738      860.896
01/11/2014  11:25:00     -454.832     -304.201      -22.968      279.006      202.928      142.902    77844.509    41179.907    20421.098       21.967        6.972      547.184      146.413        0.072      337.594        9.669      860.894
01/11/2014  11:26:00     -408.664     -175.263      -18.917      273.912      188.739      124.305    75027.675    35622.269    15451.615       16.207        6.305      444.661      130.385        0.086      337.704        9.855      860.874
01/11/2014  11:27:00     -343.060     -110.551        3.674      263.706      214.130      113.787    69540.660    45851.799    12947.436       12.911        6.417      360.432      131.467        0.133      337.782        9.987      860.855
01/11/2014  11:28:00     -566.514     -331.900      -34.397      320.384      225.893      131.799   102646.096    51027.480    17371.065       30.163        8.552      656.578      153.292        0.055      337.516        9.540      860.774
01/11/2014  11:29:00     -248.953     -109.599       20.912      269.549      208.863      127.189    72656.771    43623.945    16176.932       10.342        6.623      272.010      145.836        0.287      337.711        9.865      860.741
01/11/2014  11:30:00     -443.541      -34.047       27.153      351.644      274.506      142.249   123653.550    75353.408    20234.851       20.890       10.962      444.846      160.298        0.130      337.665        9.788      860.716
01/11/2014  11:31:00     -432.002      -93.707        1.450      290.200      267.871      123.229    84216.021    71754.750    15185.438       18.325        8.558      442.049      134.537        0.093      337.629        9.729      860.742
01/11/2014  11:32:00     -400.603     -287.220       -1.497      283.267      240.230      142.893    80240.010    57710.441    20418.273       20.065        7.918      492.928      150.442        0.093      337.544        9.585      860.739
01/11/2014  11:33:00     -216.592      -96.683       28.082      239.589      189.569      135.311    57402.805    35936.260    18309.032        8.433        5.582      237.191      149.845        0.399      337.744        9.922      860.679
01/11/2014  11:34:00     -533.801     -156.058      -17.513      278.811      224.883      104.137    77735.708    50572.389    10844.525       22.436        6.958      556.145      115.442        0.043      337.636        9.739      860.686
01/11/2014  11:35:00     -356.468     -221.468       10.030      315.634      256.507      137.972    99624.581    65796.096    19036.249       18.031        9.223      419.664      165.959        0.156      337.661        9.784      860.690
01/11/2014  11:36:00     -543.229     -125.684      -10.772      284.340      236.702      125.771    80848.976    56027.713    15818.378       23.183        7.635      557.579      153.492        0.076      337.545        9.587      860.739
01/11/2014  11:37:00     -651.502     -139.139      -22.862      387.162      275.110      133.015   149894.037    75685.392    17692.949       34.376       12.164      666.194      157.062        0.056      337.438        9.410      860.759
01/11/2014  11:38:00     -509.896     -223.875      -12.305      386.888      221.942      138.580   149682.639    49258.320    19204.417       26.417       10.907      556.879      156.703        0.079      337.402        9.348      860.757
01/11/2014  11:39:00     -379.120     -203.841       -4.381      208.794      169.915       88.106    43594.977    28871.161     7762.734       13.275        4.011      430.446      108.006        0.063      337.487        9.490      860.774
01/11/2014  11:40:00     -349.614     -141.212       12.489      312.502      200.983      131.890    97657.559    40394.038    17395.087       14.886        7.772      377.055      134.043        0.126      337.512        9.531      860.777
01/11/2014  11:41:00     -332.472     -255.048       12.460      300.026      270.322      133.098    90015.365    73074.113    17715.195       17.824        9.040      419.031      165.584        0.156      337.520        9.547      860.753
01/11/2014  11:42:00     -514.329     -162.019      -26.795      272.839      197.840      111.446    74440.874    39140.585    12420.127       20.873        6.300      539.244      109.020        0.041      337.496        9.506      860.806
01/11/2014  11:43:00     -630.054     -340.778      -12.350      411.432      319.917      152.088   169276.333   102347.186    23130.824       40.395       14.738      716.308      198.041        0.076      337.464        9.453      860.728
01/11/2014  11:44:00     -574.174     -324.948      -33.109      358.534      263.393      118.102   128546.691    69375.655    13948.052       32.408       10.594      659.747      149.764        0.052      337.440        9.413      860.713
01/11/2014  11:45:00     -605.639     -123.656      -17.552      307.630      251.116      122.134    94636.136    63059.395    14916.797       27.748        8.631      618.134      134.322        0.047      337.483        9.485      860.763
01/11/2014  11:46:00     -391.353     -164.935        5.936      316.024      260.368      140.822    99871.184    67791.588    19830.859       18.391        9.375      424.689      143.391        0.114      337.564        9.620      860.768
01/11/2014  11:47:00     -306.415     -161.901      -12.256      249.478      198.153      122.688    62239.307    39264.738    15052.265       11.838        5.828      346.558      111.128        0.103      337.561        9.614      860.792
01/11/2014  11:48:00     -489.188      -90.150        9.834      341.508      287.581      129.730   116627.432    82702.550    16829.913       23.181       10.808      497.426      171.934        0.119      337.537        9.574      860.821
01/11/2014  11:49:00     -458.912     -181.892        1.631      368.073      247.098      140.652   135477.725    61057.470    19783.037       22.997       10.816      493.645      160.958        0.106      337.484        9.487      860.840
01/11/2014  11:50:00     -602.065     -279.223      -25.063      333.988      274.980      107.676   111548.175    75614.094    11594.200       31.988        9.938      663.663      118.648        0.032      337.462        9.450      860.850
01/11/2014  11:51:00     -469.781     -174.333      -25.707      266.870      187.460      110.576    71219.567    35141.379    12227.069       18.515        5.929      501.085      143.298        0.082      337.454        9.435      860.907
01/11/2014  11:52:00     -388.756     -159.560       13.224      293.820      188.143      127.658    86330.062    35397.616    16296.639       15.737        6.901      420.227      148.144        0.124      337.440        9.412      860.867
01/11/2014  11:53:00     -430.316     -181.547        1.262      295.746      221.524      103.636    87465.894    49072.767    10740.415       18.268        7.364      467.045      132.924        0.081      337.407        9.358      860.834
01/11/2014  11:54:00     -484.361     -133.081      -14.548      279.846      254.356      119.054    78313.567    64697.138    14173.737       20.483        7.859      502.311      136.285        0.074      337.388        9.325      860.847
01/11/2014  11:55:00     -478.257     -249.471        2.809      241.044      254.887      121.154    58102.113    64967.157    14678.289       21.434        6.887      539.412      132.564        0.060      337.338        9.241      860.847
01/11/2014  11:56:00     -357.158     -143.005       -3.674      285.845      191.248      118.887    81707.136    36575.706    14134.182       14.020        6.621      384.723      139.072        0.131      337.333        9.233      860.849
01/11/2014  11:57:00     -398.156     -246.123       -1.667      297.883      241.316      141.195    88733.995    58233.285    19936.122       19.298        8.345      468.086      155.944        0.111      337.374        9.303      860.803
01/11/2014  11:58:00     -389.117     -156.010      -15.783      279.961      244.117      127.465    78377.975    59593.348    16247.270       16.508        7.711      419.227      138.341        0.109      337.395        9.336      860.828
01/11/2014  11:59:00     -435.887     -211.084       -4.851      239.536      182.559       98.486    57377.541    33327.613     9699.511       16.747        5.020      484.307      105.933        0.048      337.379        9.311      860.967
01/11/2014  12:00:00     -783.188     -164.921      -25.778      307.487      259.894      118.494    94548.383    67544.814    14040.798       40.866        8.807      800.364      135.980        0.029      337.206        9.021      860.961
01/11/2014  12:01:00     -389.102     -137.911       -9.014      242.146      214.964      107.378    58634.532    46209.462    11530.070       14.342        5.819      412.819      112.641        0.074      337.327        9.223      860.945
01/11/2014  12:02:00     -331.191     -184.658       -3.811      257.784      249.736      128.378    66452.678    62367.910    16481.021       14.453        7.265      379.192      147.091        0.150      337.273        9.134      860.923
01/11/2014  12:03:00     -588.608      -68.127      -30.254      290.126      195.188      119.276    84173.101    38098.299    14226.817       24.423        6.825      592.538      138.598        0.055      337.166        8.955      860.943
01/11/2014  12:04:00     -324.722      -29.920       13.795      227.106      162.044       93.774    51576.914    26258.123     8793.486        9.656        4.331      326.097      109.704        0.113      337.243        9.083      860.924
01/11/2014  12:05:00     -253.747     -157.087       30.233      267.404      227.629      135.322    71505.048    51814.984    18312.032       11.578        7.082      298.436      157.539        0.279      337.220        9.045      860.903
01/11/2014  12:06:00     -543.609     -132.530      -45.494      312.317      189.427      107.637    97541.877    35882.592    11585.701       23.005        7.251      559.531      115.363        0.043      337.125        8.885      860.899
01/11/2014  12:07:00     -413.716     -111.365       -8.497      212.207      242.714      103.956    45031.609    58909.885    10806.854       14.917        5.737      428.443      113.329        0.070      337.106        8.852      860.854
01/11/2014  12:08:00     -375.921     -131.046       -9.995      206.484      145.438       98.128    42635.519    21152.323     9629.012       11.599        3.671      398.107      109.730        0.076      337.092        8.828      860.651
01/11/2014  12:09:00     -485.770      -99.298       -0.975      278.088      174.355      103.644    77332.687    30399.530    10741.991       18.213        5.924      495.815      130.546        0.069      337.068        8.788      860.413
01/11/2014  12:10:00     -450.402     -188.086      -24.985      217.775      221.300       94.321    47425.980    48973.690     8896.400       17.206        5.265      488.096       83.614        0.029      337.111        8.862      860.387
01/11/2014  12:11:00     -406.721     -303.308       -6.807      284.247      211.465      116.942    80796.276    44717.293    13675.348       19.830        6.959      507.364      137.941        0.074      337.042        8.747      860.409
01/11/2014  12:12:00     -458.589     -146.783      -10.766      256.002      184.759      115.729    65537.071    34136.038    13393.249       17.250        5.653      481.507      127.568        0.070      337.078        8.808      860.425
01/11/2014  12:13:00     -422.087     -146.289      -20.764      239.762      177.985       97.250    57486.013    31678.828     9457.632       14.929        4.931      446.719      101.677        0.052      337.105        8.850      860.501
01/11/2014  12:14:00     -372.209     -198.347       -5.899      257.584      207.888      109.283    66349.539    43217.346    11942.769       14.969        6.075      421.760      113.688        0.073      337.086        8.820      860.459
01/11/2014  12:15:00     -586.186     -171.791      -42.749      212.611      214.804      103.969    45203.361    46140.569    10809.646       23.854        5.108      610.841      111.902        0.034      337.028        8.721      860.392
01/11/2014  12:16:00     -475.730     -189.603      -14.810      230.211      226.959       92.271    52996.991    51510.588     8513.845       18.774        5.651      512.122       89.081        0.030      337.070        8.793      860.302
01/11/2014  12:17:00     -498.481     -145.029      -23.348      220.482      244.487       99.088    48612.463    59774.075     9818.343       19.411        5.910      519.150       87.327        0.028      337.114        8.867      860.214
01/11/2014  12:18:00     -303.749     -106.624       -2.116      218.511      186.840      105.191    47746.988    34909.358    11065.113        9.866        4.686      321.920       97.435        0.092      337.266        9.122      860.233
01/11/2014  12:19:00     -572.313      -50.301      -29.795      345.761      205.490      107.894   119550.686    42226.147    11641.082       25.216        8.671      574.519      123.500        0.046      337.171        8.964      860.190
01/11/2014  12:20:00     -471.548      -65.699      -11.680      331.930      196.131      128.733   110177.413    38467.491    16572.127       19.599        8.261      476.103      155.867        0.107      337.172        8.963      860.237
01/11/2014  12:21:00     -304.464      -27.205      -23.596      330.735      155.575      130.524   109385.532    24203.600    17036.534       12.229        7.531      305.677      136.777        0.200      337.213        9.032      860.241
01/11/2014  12:22:00     -513.121     -238.420      -23.518      297.018      229.379      129.847    88219.510    52614.590    16860.258       23.917        7.885      565.807      163.145        0.083      337.097        8.838      860.251
01/11/2014  12:23:00     -504.429     -104.168       -3.209      344.479      208.674      121.129   118665.671    43544.782    14672.170       22.107        8.844      515.072      139.542        0.073      337.087        8.822      860.278
01/11/2014  12:24:00     -409.043      -47.010       -3.831      299.417      201.061      108.859    89650.540    40425.577    11850.273       15.571        7.096      411.736      132.568        0.104      337.111        8.861      860.274
01/11/2014  12:25:00     -479.410      -75.520      -13.960      274.650      192.079      117.571    75432.733    36894.242    13822.950       18.092        6.307      485.322      128.634        0.070      337.094        8.833      860.309
01/11/2014  12:26:00     -605.576     -137.181      -15.305      294.517      217.825      119.174    86740.390    47447.593    14202.525       26.706        7.420      620.920      134.358        0.047      337.030        8.726      860.371
01/11/2014  12:27:00     -635.956       -2.072      -26.957      235.156      243.256      107.054    55298.520    59173.496    11460.532       26.553        6.297      635.959      106.607        0.028      336.976        8.634      860.396
01/11/2014  12:28:00     -645.761     -156.501      -27.305      225.668      238.169      116.327    50925.914    56724.296    13532.074       28.169        6.059      664.455      115.699        0.030      336.936        8.569      860.415
01/11/2014  12:29:00     -644.558      -62.947      -23.352      265.006      214.086      124.858    70228.259    45832.837    15589.572       27.578        6.583      647.624      133.185        0.042      336.924        8.549      860.457
01/11/2014  12:30:00     -464.560     -109.844        1.917      275.803      201.009      114.798    76067.085    40404.794    13178.610       17.875        6.483      477.370      130.558        0.075      336.972        8.630      860.552
01/11/2014  12:31:00     -612.001     -180.662      -36.147      302.814      188.680      126.457    91696.386    35599.995    15991.339       27.587        7.164      638.109      122.575        0.037      336.943        8.580      860.489
01/11/2014  12:32:00     -586.557     -156.622      -48.316      334.182      226.491      108.915   111677.707    51298.322    11862.498       27.285        8.742      607.107      144.810        0.057      336.882        8.479      860.370
01/11/2014  12:33:00     -548.630     -134.503      -20.280      299.840      188.433      109.899    89903.820    35507.071    12077.825       22.847        6.874      564.877      118.853        0.044      336.836        8.402      860.277
01/11/2014  12:34:00     -323.518      -29.808       -9.763      184.366      152.707       86.547    33990.893    23319.514     7490.322        8.521        3.240      324.889       93.912        0.084      336.854        8.433      860.269
01/11/2014  12:35:00     -315.312      -92.015       12.828      233.970      193.263       99.523    54742.068    37350.551     9904.885       10.501        5.100      328.464      116.983        0.127      336.828        8.387      860.340
01/11/2014  12:36:00     -453.802     -244.302      -14.293      263.844      209.152      114.431    69613.876    43744.378    13094.374       19.612        6.323      515.383      128.913        0.063      336.789        8.323      860.308
01/11/2014  12:37:00     -549.635       -9.843      -22.082      266.949      159.152      106.097    71262.035    25329.340    11256.607       20.525        5.392      549.723      116.107        0.045      336.763        8.280      860.274
01/11/2014  12:38:00     -437.046     -136.561      -32.703      233.381      150.528       96.936    54466.617    22658.620     9396.554       14.861        4.326      457.884       93.000        0.041      336.814        8.366      860.259
01/11/2014  12:39:00     -328.986      -32.741       17.297      237.965      139.720      107.182    56627.433    19521.648    11488.057        9.861        4.382      330.611      120.326        0.132      336.967        8.620      860.264
01/11/2014  12:40:00     -394.026     -116.408      -13.387      188.653      202.416       84.471    35590.060    40972.182     7135.276       12.633        4.185      410.862       79.669        0.038      336.929        8.557      860.238
01/11/2014  12:41:00     -683.047     -103.769      -25.330      308.395      220.498      112.601    95107.302    48619.487    12679.095       31.716        7.820      690.884      138.625        0.040      336.919        8.540      860.287
01/11/2014  12:42:00     -406.433       27.338       -6.070      277.717      163.688      103.777    77126.548    26793.716    10769.705       14.031        5.734      407.351      128.630        0.100      336.951        8.593      860.300
01/11/2014  12:43:00     -480.910      -23.649      -19.440      284.959      166.995      107.454    81201.478    27887.264    11546.268       17.640        6.032      481.492      128.678        0.071      336.949        8.590      860.298
01/11/2014  12:44:00     -479.310      -46.743      -25.289      235.969      206.511      108.633    55681.412    42646.651    11801.222       17.133        5.506      481.584      113.994        0.056      336.939        8.575      860.297
01/11/2014  12:45:00     -551.038     -112.811      -17.007      220.636      176.201      104.103    48680.343    31046.712    10837.508       20.360        4.528      562.467      122.024        0.047      336.922        8.546      860.285
01/11/2014  12:46:00     -619.385      -55.110      -40.816      220.457      218.974      106.183    48601.377    47949.573    11274.780       24.807        5.391      621.832       98.853        0.025      336.905        8.517      860.270
01/11/2014  12:47:00     -579.414     -101.891      -20.038      320.565      240.053      121.190   102761.817    57625.576    14686.958       26.076        8.754      588.305      146.266        0.062      336.921        8.545      860.152
01/11/2014  12:48:00     -543.842     -142.489      -21.557      282.569      229.542      106.847    79845.302    52689.353    11416.360       23.022        7.198      562.198      134.477        0.057      336.894        8.498      860.101
01/11/2014  12:49:00     -650.391     -186.481      -23.196      311.622      226.961      133.659    97108.408    51511.188    17864.659       31.238        8.324      676.597      153.309        0.051      336.879        8.472      860.123
01/11/2014  12:50:00     -550.663        8.379      -13.217      235.926      179.150      104.028    55661.247    32094.797    10821.746       20.101        4.929      550.727      106.475        0.037      336.953        8.597      860.216
01/11/2014  12:51:00     -643.053      -17.339      -41.248      225.943      224.055      101.775    51050.099    50200.716    10358.095       26.355        5.580      643.287      101.480        0.025      336.939        8.575      860.261
01/11/2014  12:52:00     -740.417      -97.082      -60.025      252.664      240.949      111.875    63838.923    58056.326    12516.096       34.781        6.721      746.755      114.015        0.023      336.892        8.495      860.299
01/11/2014  12:53:00     -433.727      -90.294       -5.293      226.161      208.191       93.024    51148.719    43343.700     8653.386       14.971        5.157      443.026       89.874        0.041      336.937        8.569      860.344
01/11/2014  12:54:00     -425.380     -130.260        7.455      351.188      221.406      127.325   123333.240    49020.620    16211.714       19.324        9.428      444.877      172.895        0.151      336.988        8.656      860.366
01/11/2014  12:55:00     -450.374     -130.196      -25.882      273.125      189.374      118.681    74597.354    35862.674    14085.263       17.248        6.227      468.815      136.673        0.085      336.927        8.553      860.381
01/11/2014  12:56:00     -281.579      -61.548       46.086      295.339      235.112      118.334    87225.254    55277.599    14002.926       12.083        7.825      288.227      142.467        0.244      337.006        8.685      860.389
01/11/2014  12:57:00     -466.322     -206.337       -9.645      260.458      210.744      120.724    67838.400    44413.109    14574.206       19.345        6.341      509.933      133.993        0.069      336.970        8.626      860.435
01/11/2014  12:58:00     -595.764     -158.888      -31.504      290.162      228.721      117.570    84194.146    52313.382    13822.697       26.573        7.517      616.588      132.081        0.046      336.920        8.542      860.521
01/11/2014  12:59:00     -661.983     -352.570      -30.182      371.163      236.572      128.277   137762.173    55966.482    16454.908       38.678       10.509      750.018      121.553        0.026      336.861        8.443      860.492
01/11/2014  13:00:00     -726.020     -172.888      -47.461      358.904      233.982      127.310   128812.264    54747.738    16207.736       37.947        9.988      746.321      163.805        0.048      336.821        8.377      860.456
01/11/2014  13:01:00     -369.355     -122.565       17.836      258.041      210.174       95.766    66585.022    44173.278     9171.188       13.583        5.996      389.160      117.391        0.091      336.852        8.430      860.402
01/11/2014  13:02:00     -350.008     -187.722       12.936      243.639      215.313      129.138    59360.069    46359.657    16676.698       14.013        6.120      397.172      136.619        0.118      336.836        8.403      860.368
01/11/2014  13:03:00     -426.664     -149.123      -21.756      250.423      213.739      124.846    62711.667    45684.345    15586.633       16.435        6.199      451.973      103.016        0.052      336.825        8.385      860.432
01/11/2014  13:04:00     -544.835     -113.745      -24.749      266.670      214.778      121.373    71113.014    46129.479    14731.299       22.116        6.599      556.582      143.136        0.066      336.773        8.296      860.473
01/11/2014  13:05:00     -446.157     -132.744       -2.622      297.965      206.260      127.976    88782.959    42542.985    16377.824       18.217        7.385      465.486      147.060        0.100      336.746        8.252      860.494
01/11/2014  13:06:00     -350.701      -65.995      -15.100      278.991      189.358       99.891    77836.160    35856.603     9978.309       12.560        6.184      356.856      114.262        0.103      336.765        8.284      860.489
01/11/2014  13:07:00     -314.973     -153.471       -0.561      249.218      211.946      120.423    62109.552    44921.186    14501.819       12.213        6.077      350.373      122.067        0.121      336.769        8.290      860.490
01/11/2014  13:08:00     -341.880     -143.352       -3.044      258.394      206.128      145.818    66767.523    42488.693    21262.788       13.396        6.526      370.718      144.876        0.153      336.774        8.298      860.463
01/11/2014  13:09:00     -589.771     -124.120      -25.852      337.155      220.238      112.810   113673.314    48504.771    12726.182       26.937        8.745      602.690      132.322        0.048      336.684        8.148      860.430
01/11/2014  13:10:00     -588.090      -99.145      -26.405      235.698      220.547      122.690    55553.648    48640.821    15052.898       23.779        5.962      596.389      123.341        0.043      336.657        8.102      860.448
01/11/2014  13:11:00     -413.547     -195.629      -24.162      218.051      225.102       99.094    47546.075    50670.697     9819.647       15.894        5.402      457.484       92.931        0.041      336.657        8.103      860.427
01/11/2014  13:12:00     -419.763      -86.631      -32.897      203.446      153.280       98.742    41390.418    23494.707     9750.050       12.970        3.732      428.609      113.153        0.070      336.636        8.068      860.438
01/11/2014  13:13:00     -457.319     -156.016      -14.340      258.094      193.676      104.213    66612.334    37510.436    10860.268       17.432        5.749      483.200      126.010        0.068      336.603        8.014      860.433
01/11/2014  13:14:00     -273.662     -152.251       10.603      273.839      215.835      122.164    74987.568    46584.862    14923.933       11.732        6.825      313.163      139.609        0.199      336.637        8.071      860.404
01/11/2014  13:15:00     -470.327     -181.618       -7.575      233.190      234.835      125.986    54377.576    55147.384    15872.446       18.980        6.270      504.175      128.193        0.065      336.603        8.015      860.303
01/11/2014  13:16:00     -339.006      -65.781       16.066      211.487      163.052      110.993    44726.737    26585.962    12319.512       10.156        4.182      345.329      125.807        0.133      336.642        8.079      860.308
01/11/2014  13:17:00     -595.625     -114.644      -19.735      228.216      231.923      116.715    52082.375    53788.137    13622.286       24.388        5.975      606.558      118.191        0.038      336.625        8.050      860.315
01/11/2014  13:18:00     -544.747     -191.444      -15.983      276.693      219.152      121.479    76558.983    48027.634    14757.212       23.648        6.967      577.408      145.628        0.064      336.676        8.135      860.320
01/11/2014  13:19:00     -379.533     -116.409       -3.227      250.219      185.763      103.414    62609.632    34507.985    10694.499       13.269        5.391      396.985      115.014        0.084      336.704        8.182      860.315
01/11/2014  13:20:00     -366.524     -257.289      -16.315      284.386      210.101      124.276    80875.363    44142.524    15444.644       17.061        7.023      447.814      139.319        0.097      336.700        8.176      860.279
01/11/2014  13:21:00     -475.047     -166.917      -23.130      317.413      278.039      103.923   100750.908    77305.781    10799.941       22.143        9.443      503.519      134.707        0.072      336.678        8.139      860.261
01/11/2014  13:22:00     -250.862     -212.993        4.281      253.282      189.770      124.125    64151.666    36012.743    15407.100       11.192        5.779      329.087      117.188        0.127      336.672        8.128      860.184
01/11/2014  13:23:00     -256.444     -108.090       -7.430      253.987      156.820       95.140    64509.575    24592.639     9051.587        8.781        4.908      278.294       95.603        0.118      336.697        8.171      860.153
01/11/2014  13:24:00     -638.400     -128.703      -69.498      275.312      177.002       90.254    75796.496    31329.811     8145.737       27.209        5.764      651.244      104.331        0.026      336.620        8.042      860.172
01/11/2014  13:25:00     -217.899      -82.608       14.866      210.432      162.551       95.500    44281.781    26422.914     9120.328        6.716        3.991      233.032      105.806        0.206      336.749        8.258      860.156
01/11/2014  13:26:00     -488.885     -127.554      -27.579      264.470      195.665      117.711    69944.405    38284.605    13855.842       18.904        6.104      505.251      137.460        0.074      336.639        8.072      860.130
01/11/2014  13:27:00     -625.556     -165.600      -22.364      245.063      225.758      111.841    60056.028    50966.570    12508.431       27.137        6.177      647.104      120.204        0.035      336.597        8.003      860.072
01/11/2014  13:28:00     -400.135      -80.093       -0.691      251.364      173.494       96.596    63183.655    30100.211     9330.778       13.455        5.131      408.072      116.785        0.082      336.698        8.172      860.056
01/11/2014  13:29:00     -564.880      -95.346      -26.999      290.448      225.722      115.088    84360.130    50950.444    13245.197       23.871        7.428      572.870      136.991        0.057      336.666        8.120      860.047
01/11/2014  13:30:00     -367.764      -60.927      -16.328      204.348      194.528       97.077    41758.080    37840.954     9424.034       11.411        4.451      372.777       90.913        0.059      336.716        8.200      860.022
01/11/2014  13:31:00     -518.696     -101.975      -24.420      250.915      216.395      112.907    62958.529    46826.855    12748.036       20.127        6.127      528.625      118.220        0.050      336.686        8.151      859.947
01/11/2014  13:32:00     -540.072      -78.078      -41.456      314.688      213.221      121.246    99028.518    45463.239    14700.504       22.932        7.960      545.686      144.019        0.070      336.726        8.220      859.986
01/11/2014  13:33:00     -352.648      -78.634        0.869      311.624      192.987      104.992    97109.251    37243.920    11023.398       13.794        7.269      361.308      142.391        0.155      336.827        8.387      859.955
01/11/2014  13:34:00     -406.914     -105.711       -6.485      248.478      153.138      102.851    61741.315    23451.198    10578.389       13.627        4.789      420.421      122.652        0.085      336.766        8.285      859.891
01/11/2014  13:35:00     -583.001        0.153      -49.410      397.825      182.251      132.222   158264.687    33215.286    17482.678       27.561       10.448      583.001      176.054        0.091      336.728        8.222      859.877
01/11/2014  13:36:00     -395.491      -83.145      -11.846      246.835      226.147      124.828    60927.401    51142.577    15582.120       14.554        6.383      404.136      133.669        0.109      336.782        8.312      859.880
01/11/2014  13:37:00     -611.690     -139.465       -5.405      353.087      250.194      131.948   124670.128    62597.266    17410.373       29.913       10.234      627.388      161.809        0.067      336.712        8.194      859.807
01/11/2014  13:38:00     -574.629      -47.040      -32.360      277.049      214.635      112.638    76755.948    46067.995    12687.329       23.446        6.776      576.551      114.655        0.040      336.736        8.235      859.821
01/11/2014  13:39:00     -640.742     -183.972      -31.246      296.607      230.076      114.538    87975.698    52935.026    13118.849       29.968        7.701      666.630      124.050        0.035      336.704        8.182      859.768
01/11/2014  13:40:00     -683.106     -107.448      -45.030      262.198      212.637       96.719    68747.598    45214.374     9354.658       30.174        6.166      691.504      116.187        0.028      336.712        8.192      859.810
01/11/2014  13:41:00     -447.090     -181.956      -22.936      222.874      202.788      107.539    49672.871    41123.035    11564.720       16.792        5.118      482.698      115.052        0.057      336.784        8.315      859.809
01/11/2014  13:42:00     -320.540      -30.993       12.013      224.303      149.071       86.508    50311.642    22222.144     7483.597        9.192        4.001      322.035       82.106        0.065      336.878        8.472      859.827
01/11/2014  13:43:00     -517.944      -79.175      -17.048      388.836      247.062      128.164   151193.082    61039.573    16426.086       25.170       11.433      523.960      155.091        0.088      336.818        8.372      859.823
01/11/2014  13:44:00     -685.924     -161.621      -27.966      315.459      184.813      124.436    99514.441    34155.724    15484.316       32.325        7.458      704.708      155.302        0.049      336.758        8.272      859.860
01/11/2014  13:45:00     -379.946     -156.330      -12.673      292.832      244.287      114.085    85750.784    59676.212    13015.501       16.367        7.922      410.850      145.294        0.125      336.798        8.339      859.828
01/11/2014  13:46:00     -477.909     -140.424      -16.815      226.901      195.834      112.383    51483.973    38351.108    12629.997       17.541        5.123      498.112      109.265        0.048      336.776        8.302      859.879
01/11/2014  13:47:00     -582.167     -143.144      -21.129      307.671      209.237      129.232    94661.704    43780.306    16700.991       25.747        7.757      599.507      162.721        0.074      336.767        8.287      859.842
01/11/2014  13:48:00     -521.450     -181.994      -18.235      269.592      180.791      117.834    72679.809    32685.534    13884.906       21.229        5.963      552.297      129.450        0.055      336.788        8.322      859.830
01/11/2014  13:49:00     -459.393      -73.098      -18.174      218.493      185.191      100.186    47739.322    34295.523    10037.276       15.438        4.604      465.172      111.274        0.057      336.808        8.355      859.889
01/11/2014  13:50:00     -481.201     -183.179      -32.706      212.974      166.667       95.687    45357.734    27777.853     9156.042       17.422        4.115      514.887       89.508        0.030      336.809        8.356      859.884
01/11/2014  13:51:00     -501.556     -106.153       12.948      304.247      220.430      131.041    92566.262    48589.402    17171.619       21.063        7.916      512.667      145.146        0.080      336.814        8.365      859.912
01/11/2014  13:52:00     -578.562     -162.515      -32.300      386.547      231.113      145.881   149418.220    53413.362    21281.125       29.311       11.206      600.953      183.757        0.093      336.790        8.324      859.813
01/11/2014  13:53:00     -370.403     -103.445        5.740      293.096      188.281      104.606    85905.190    35449.754    10942.343       14.009        6.615      384.576      133.747        0.121      336.852        8.428      859.836
01/11/2014  13:54:00     -436.329     -115.312      -12.158      228.614      157.596       94.901    52264.272    24836.546     9006.109       14.495        4.305      451.309      107.293        0.057      336.826        8.385      859.758
01/11/2014  13:55:00     -445.400      -85.736       -2.858      283.284      179.626      108.872    80249.712    32265.357    11853.018       16.503        6.218      453.576      111.213        0.060      336.859        8.441      859.754
01/11/2014  13:56:00     -544.083      -75.787      -21.772      311.584      254.409      116.542    97084.641    64723.936    13582.093       23.879        8.770      549.336      144.990        0.070      336.823        8.379      859.729
01/11/2014  13:57:00     -441.350      -97.295      -16.617      324.092      179.916      109.079   105035.536    32369.632    11898.201       17.689        7.465      451.947      150.430        0.111      336.860        8.442      859.717
01/11/2014  13:58:00     -346.197      -84.647        6.478      274.453      221.849      119.956    75324.598    49217.186    14389.483       13.297        6.947      356.395      143.761        0.163      336.864        8.448      859.699
01/11/2014  13:59:00     -360.465      -52.117       25.469      260.077      167.307      121.077    67640.164    27991.733    14659.521       12.178        5.515      364.213      130.637        0.129      336.879        8.473      859.693
01/11/2014  14:00:00     -415.681     -180.302        8.621      239.354      214.687      122.250    57290.377    46090.378    14945.084       16.183        5.916      453.100      127.179        0.079      336.850        8.424      859.681
01/11/2014  14:01:00     -418.938     -107.348      -28.246      265.853      184.379      104.601    70677.566    33995.673    10941.376       15.170        5.781      432.473       92.968        0.046      336.893        8.497      859.659
01/11/2014  14:02:00     -413.668     -126.010      -17.591      305.940      219.014      113.465    93599.270    47967.285    12874.193       17.085        7.722      432.434      130.852        0.092      336.895        8.500      859.624
01/11/2014  14:03:00     -475.981      -66.632       -7.742      260.054      206.643      124.724    67628.165    42701.379    15556.137       17.845        6.294      480.623      128.116        0.071      336.895        8.501      859.617
01/11/2014  14:04:00     -414.138     -111.021      -12.477      299.971      193.706      115.395    89982.410    37522.127    13316.106       16.238        7.041      428.761      155.609        0.132      336.926        8.552      859.615
01/11/2014  14:05:00     -478.826     -153.700      -16.437      249.806      257.997      124.671    62403.007    66562.394    15542.769       19.881        7.225      502.890      125.377        0.062      336.930        8.558      859.643
01/11/2014  14:06:00     -438.597     -149.944      -15.183      320.277      199.029      101.965   102577.234    39612.403    10396.956       18.381        7.629      463.520      132.538        0.082      336.955        8.600      859.615
01/11/2014  14:07:00     -496.489     -143.167      -36.280      156.853      165.752       81.270    24602.928    27473.666     6604.786       16.349        2.934      516.718       63.537        0.015      336.964        8.616      859.662
01/11/2014  14:08:00     -660.737      -52.398      -45.300      215.507      232.916       98.187    46443.111    54249.717     9640.748       27.583        5.517      662.812       97.793        0.022      336.923        8.546      859.642
01/11/2014  14:09:00     -612.494     -110.547       -8.607      255.010      177.491      107.510    65030.124    31502.950    11558.433       24.775        5.405      622.390      124.756        0.040      336.899        8.506      859.629
01/11/2014  14:10:00     -636.973     -203.682      -41.157      252.139      186.542      107.302    63574.257    34797.970    11513.791       27.938        5.494      668.746      119.922        0.032      336.900        8.507      859.700
01/11/2014  14:11:00     -413.746      -37.820      -10.456      203.397      136.172       94.164    41370.310    18542.706     8866.928       12.074        3.439      415.471      110.912        0.071      336.940        8.575      859.734
01/11/2014  14:12:00     -600.693     -137.279      -45.035      302.792      219.622       91.952    91682.795    48233.883     8455.134       26.501        7.419      616.180      106.472        0.030      336.901        8.509      859.721
01/11/2014  14:13:00     -450.025      -58.960      -14.184      338.981      178.842      109.402   114908.045    31984.638    11968.840       18.250        7.943      453.871      134.644        0.088      336.968        8.624      859.703
01/11/2014  14:14:00     -437.498     -115.739       -7.080      234.634      191.548      117.009    55053.240    36690.645    13691.201       15.512        5.272      452.548      135.047        0.089      337.012        8.695      859.685
01/11/2014  14:15:00     -434.064     -224.501       14.799      279.811      269.233      121.533    78293.994    72486.549    14770.371       20.226        8.278      488.684      127.844        0.068      337.022        8.710      859.717
01/11/2014  14:16:00     -420.041      -91.718        3.419      267.969      240.086      129.089    71807.141    57641.206    16663.904       16.546        7.306      429.938      140.993        0.108      337.045        8.751      859.760
01/11/2014  14:17:00     -292.960      -14.910        4.090      220.197      132.909       86.239    48486.551    17664.854     7437.210        7.981        3.679      293.339      107.725        0.135      337.129        8.891      859.717
01/11/2014  14:18:00     -352.818     -155.565        0.796      221.421      209.786      106.778    49027.151    44010.343    11401.520       12.654        5.222      385.592      113.152        0.086      337.147        8.922      859.657
01/11/2014  14:19:00     -363.563     -120.753       -3.512      233.517      222.172      113.716    54530.218    49360.321    12931.263       13.178        5.841      383.092      118.043        0.095      337.214        9.035      859.583
01/11/2014  14:20:00     -312.019     -175.008        8.228      219.487      201.106      121.543    48174.471    40443.704    14772.806       11.570        5.170      357.748      124.163        0.120      337.175        8.969      859.579
01/11/2014  14:21:00     -325.524     -174.458        3.614      194.016      125.141       71.590    37642.082    15660.368     5125.140        9.741        2.921      369.326       69.835        0.036      337.176        8.971      859.542
01/11/2014  14:22:00     -507.998     -253.973      -19.670      258.314      211.447      120.451    66725.898    44709.939    14508.541       22.443        6.297      567.947      133.586        0.055      337.170        8.962      859.493
01/11/2014  14:23:00     -350.407     -182.428       -7.529      249.014      162.562       98.747    62008.037    26426.451     9750.926       12.714        4.909      395.051       90.384        0.052      337.178        8.973      859.439
01/11/2014  14:24:00     -327.214     -190.399        0.649      295.987      197.712      112.743    87608.479    39090.031    12711.053       14.134        6.970      378.578      142.277        0.141      337.213        9.033      859.421
01/11/2014  14:25:00     -468.322     -175.930        1.138      209.879      193.603      101.747    44049.160    37482.269    10352.497       17.107        4.594      500.277       96.102        0.037      337.182        8.979      859.360
01/11/2014  14:26:00     -454.095     -171.412      -10.005      284.681      246.256      136.027    81043.333    60642.199    18503.225       19.791        8.009      485.370      150.359        0.096      337.334        9.235      859.380
01/11/2014  14:27:00     -568.703     -255.853       -2.799      242.150      167.252      112.963    58636.593    27973.091    12760.710       24.411        4.969      623.605      132.059        0.045      337.368        9.291      859.370
01/11/2014  14:28:00     -485.278     -234.607      -22.047      196.783      189.231       94.299    38723.617    35808.428     8892.256       18.721        4.171      539.013       89.167        0.027      337.354        9.270      859.341
01/11/2014  14:29:00     -479.161     -123.282      -23.354      229.215      182.678       98.036    52539.702    33371.424     9611.006       17.041        4.776      494.766      104.901        0.045      337.353        9.267      859.280
01/11/2014  14:30:00     -397.758     -202.155       -0.294      275.352      271.378      113.833    75818.665    73646.275    12957.857       18.072        8.121      446.181      126.588        0.080      337.383        9.318      859.219
01/11/2014  14:31:00     -497.025     -237.562      -20.952      276.168      216.661      110.205    76268.649    46942.012    12145.169       21.961        6.768      550.881      116.270        0.045      337.369        9.294      859.223
01/11/2014  14:32:00     -314.425     -219.268       23.685      241.511      179.641      100.028    58327.644    32270.719    10005.667       12.404        5.030      383.329      108.778        0.081      337.416        9.372      859.203
01/11/2014  14:33:00     -570.497     -231.172      -45.283      310.736      184.122      108.501    96556.987    33900.988    11772.528       26.157        7.112      615.555      128.792        0.044      337.449        9.427      859.181
01/11/2014  14:34:00     -460.869     -192.264      -13.151      234.962      179.111      121.368    55207.101    32080.921    14730.224       17.576        5.101      499.365      129.720        0.067      337.503        9.518      859.146
01/11/2014  14:35:00     -423.673     -192.546       -6.718      304.506      170.465      127.060    92724.197    29058.265    16144.152       17.725        6.896      465.373      156.463        0.113      337.498        9.508      859.069
01/11/2014  14:36:00     -322.985     -278.215       14.432      243.529      212.917      122.784    59306.382    45333.696    15075.835       15.080        5.986      426.289      145.915        0.117      337.477        9.474      859.057
01/11/2014  14:37:00     -478.619     -265.403      -20.901      237.073      180.820      118.315    56203.701    32695.725    13998.467       20.141        5.145      547.279      116.426        0.045      337.472        9.465      859.043
01/11/2014  14:38:00     -576.578     -172.594      -28.829      261.489      248.022       90.267    68376.306    61515.004     8148.152       25.053        6.902      601.856      105.189        0.031      337.485        9.487      859.082
01/11/2014  14:39:00     -392.983     -202.480       -8.002      192.667      176.956       97.176    37120.424    31313.478     9443.189       13.667        3.894      442.079       97.292        0.048      337.566        9.622      859.105
01/11/2014  14:40:00     -609.608     -203.617      -23.586      286.507      250.598      110.602    82086.270    62799.169    12232.734       28.535        7.856      642.714      119.441        0.035      337.560        9.614      859.119
01/11/2014  14:41:00     -234.060     -125.942       -0.056      243.947      182.459      101.604    59509.904    33291.375    10323.428        8.687        5.156      265.793       99.527        0.140      337.596        9.674      859.094
01/11/2014  14:42:00     -445.397     -101.690      -38.192      141.185      193.886       77.719    19933.242    37591.799     6040.277       13.686        3.178      456.858       81.339        0.032      337.544        9.585      859.068
01/11/2014  14:43:00     -377.308      -81.674      -23.036      233.374      157.985       87.441    54463.598    24959.222     7645.871       11.830        4.353      386.047       93.321        0.058      337.544        9.587      859.042
01/11/2014  14:44:00     -362.097      -89.931        5.333      257.555      165.460       90.113    66334.817    27377.054     8120.289       12.051        5.092      373.098      114.419        0.094      337.555        9.605      859.039
01/11/2014  14:45:00     -275.732     -192.922       12.816      202.234      149.675       87.919    40898.591    22402.689     7729.792        9.221        3.552      336.522      106.214        0.100      337.569        9.627      859.030
01/11/2014  14:46:00     -343.339     -233.095        1.496      237.217      211.825      116.909    56272.009    44869.681    13667.716       14.349        5.740      414.988      131.084        0.100      337.586        9.657      858.997
01/11/2014  14:47:00     -528.994     -137.196      -24.850      302.094      192.568      116.676    91261.033    37082.594    13613.357       22.059        7.098      546.496      133.956        0.060      337.634        9.737      858.945
01/11/2014  14:48:00     -482.465     -321.851      -35.644      248.591      246.316      141.787    61797.430    60671.330    20103.605       24.008        7.129      579.966      147.558        0.065      337.613        9.703      858.962
01/11/2014  14:49:00     -568.705     -290.346      -25.095      268.328      184.496      115.449    71999.910    34038.943    13328.455       26.384        5.968      638.535      137.184        0.046      337.597        9.674      858.960
01/11/2014  14:50:00     -591.217     -252.490      -26.116      279.316      187.324      102.042    78017.605    35090.306    10412.640       26.873        6.176      642.876      100.359        0.024      337.548        9.592      858.990
01/11/2014  14:51:00     -369.062     -230.779        2.579      234.440      204.678      108.015    54962.083    41893.077    11667.136       14.898        5.426      435.277      128.839        0.088      337.562        9.615      858.990
01/11/2014  14:52:00     -538.032     -179.085      -15.619      203.482      242.810      104.417    41404.777    58956.557    10902.925       21.651        5.563      567.054      109.879        0.038      337.606        9.691      858.995
01/11/2014  14:53:00     -585.269     -395.589       -6.529      303.045      243.900      140.281    91836.136    59487.221    19678.695       33.501        8.550      706.421      162.924        0.053      337.575        9.637      858.970
01/11/2014  14:54:00     -513.164     -274.342      -12.284      330.129      235.323      122.202   108985.266    55376.711    14933.256       25.899        8.965      581.894      142.006        0.060      337.575        9.638      858.963
01/11/2014  14:55:00     -458.036     -242.696      -20.090      276.780      212.570      112.061    76607.225    45186.151    12557.699       20.170        6.718      518.362      136.060        0.069      337.601        9.682      859.003
01/11/2014  14:56:00     -484.032      -44.139       -2.628      236.129      199.249      101.992    55756.897    39700.116    10402.300       17.103        5.293      486.040      106.691        0.048      337.640        9.746      859.055
01/11/2014  14:57:00     -459.836     -375.724      -13.612      306.297      227.984      150.558    93817.585    51976.855    22667.821       26.060        8.423      593.817      165.328        0.078      337.621        9.715      859.114
01/11/2014  14:58:00     -381.442     -301.086       -8.103      282.838      216.336      129.274    79997.119    46801.067    16711.710       18.984        7.175      485.953      150.239        0.096      337.616        9.708      859.133
01/11/2014  14:59:00     -530.240     -192.291      -39.865      222.179      151.429      108.293    49363.438    22930.798    11727.401       20.186        4.201      564.030       93.714        0.028      337.594        9.670      859.226
01/11/2014  15:00:00     -549.831     -157.389      -29.706      315.407      203.849      106.190    99481.839    41554.592    11276.231       24.012        7.616      571.914      129.410        0.051      337.597        9.674      859.300
01/11/2014  15:01:00     -399.740     -128.957        8.685      281.976      179.414      102.944    79510.503    32189.268    10597.559       14.938        6.115      420.026      122.707        0.085      337.619        9.711      859.349
01/11/2014  15:02:00     -384.834     -250.215       12.709      312.285      268.735      147.587    97522.163    72218.288    21781.915       20.116        9.576      459.026      165.192        0.130      337.607        9.692      859.305
01/11/2014  15:03:00     -223.044     -113.067       13.348      236.516      159.958      110.543    55939.698    25586.647    12219.777        7.821        4.687      250.065      117.325        0.220      337.653        9.770      859.342
01/11/2014  15:04:00     -355.972     -140.310       -2.243      219.002      194.495      108.059    47961.911    37828.449    11676.739       12.192        4.873      382.626       97.910        0.065      337.647        9.760      859.350
01/11/2014  15:05:00     -351.247     -171.814       -2.657      202.501      194.060       99.340    41006.511    37659.163     9868.350       12.070        4.427      391.017      116.758        0.089      337.639        9.747      859.388
01/11/2014  15:06:00     -538.376     -166.104      -21.820      299.464      210.782      114.645    89678.677    44428.983    13143.415       23.256        7.363      563.417      146.298        0.067      337.600        9.680      859.366
01/11/2014  15:07:00     -551.444     -270.641      -20.771      273.659      240.783      119.595    74889.451    57976.412    14302.927       26.244        7.358      614.278      141.854        0.053      337.572        9.633      859.366
01/11/2014  15:08:00     -732.748     -269.814      -26.807      334.754      249.929      132.083   112060.054    62464.662    17445.871       40.117        9.599      780.845      144.695        0.034      337.549        9.594      859.389
01/11/2014  15:09:00     -810.503     -277.293      -43.853      391.057      283.553      142.992   152925.579    80402.394    20446.580       49.471       12.689      856.625      175.204        0.042      337.528        9.560      859.401
01/11/2014  15:10:00     -757.935     -241.524      -19.196      415.316      271.523      146.219   172486.995    73724.931    21379.863       45.033       13.380      795.487      155.139        0.038      337.536        9.571      859.361
01/11/2014  15:11:00     -661.674     -308.867      -42.183      253.252      194.030      105.337    64136.606    37647.484    11095.936       32.392        5.644      730.213      109.029        0.022      337.524        9.551      859.388
01/11/2014  15:12:00     -678.663     -342.486      -32.063      308.571      260.831      141.610    95216.290    68032.574    20053.275       38.107        9.165      760.185      149.064        0.038      337.535        9.570      859.336
01/11/2014  15:13:00     -449.910     -273.776       17.780      365.838      281.375      148.528   133837.739    79171.981    22060.506       25.634       11.754      526.661      176.853        0.113      337.549        9.595      859.294
01/11/2014  15:14:00     -885.348     -322.074      -28.294      346.293      280.833      151.683   119918.782    78866.912    23007.659       55.505       11.090      942.110      169.102        0.032      337.482        9.481      859.299
01/11/2014  15:15:00     -774.952     -429.217      -31.560      320.250      312.231      135.639   102560.298    97487.940    18397.926       50.207       10.922      885.876      158.110        0.032      337.507        9.523      859.296
01/11/2014  15:16:00     -495.270     -386.896       -7.986      314.269      250.948      144.433    98765.078    62974.862    20860.875       28.879        9.130      628.475      174.903        0.077      337.520        9.544      859.309
01/11/2014  15:17:00     -606.179     -312.357      -28.563      275.137      252.002      112.771    75700.493    63504.902    12717.302       30.885        7.596      681.923      121.608        0.032      337.494        9.501      859.315
01/11/2014  15:18:00     -500.528     -151.675        6.917      240.496      193.712      108.304    57838.516    37524.282    11729.860       19.032        5.355      523.005      119.734        0.052      337.511        9.529      859.352
01/11/2014  15:19:00     -624.296     -328.977      -23.087      303.578      276.717      138.822    92159.813    76572.565    19271.624       34.322        9.400      705.671      154.250        0.048      337.460        9.445      859.290
01/11/2014  15:20:00     -569.472     -278.076        3.550      295.187      241.253      129.308    87135.114    58202.820    16720.639       28.182        8.103      633.739      120.305        0.036      337.440        9.412      859.328
01/11/2014  15:21:00     -532.486     -249.229       -9.245      322.274      218.243      117.111   103860.668    47629.964    13715.091       25.545        8.260      587.926      142.445        0.059      337.447        9.425      859.311
01/11/2014  15:22:00     -552.885     -307.018      -19.473      284.228      200.763      122.299    80785.524    40305.927    14957.128       26.816        6.802      632.410      124.992        0.039      337.453        9.434      859.266
01/11/2014  15:23:00     -448.584     -132.384      -14.509      311.756      175.108      107.312    97191.773    30662.699    11515.962       17.914        6.969      467.710      135.142        0.083      337.467        9.458      859.248
01/11/2014  15:24:00     -370.203     -219.152       18.659      271.355      202.846      120.390    73633.309    41146.426    14493.719       15.733        6.464      430.207      137.334        0.102      337.459        9.446      859.239
01/11/2014  15:25:00     -360.025     -161.704       -4.952      236.964      175.364       98.420    56151.933    30752.386     9686.510       12.617        4.830      394.673      106.028        0.072      337.455        9.438      859.232
01/11/2014  15:26:00     -539.354     -200.937        7.820      400.630      250.512      138.004   160504.259    62756.130    19045.069       28.678       12.115      575.568      171.206        0.088      337.492        9.500      859.174
01/11/2014  15:27:00     -502.681     -174.868      -16.445      274.910      214.099      113.888    75575.376    45838.557    12970.561       20.894        6.719      532.229      119.920        0.051      337.485        9.487      859.254
01/11/2014  15:28:00     -452.469     -310.507      -22.702      262.132      213.716      103.184    68713.066    45674.669    10646.896       21.333        6.252      548.765      118.683        0.047      337.469        9.460      859.242
01/11/2014  15:29:00     -434.778     -225.263      -10.531      252.302      200.586      118.308    63656.308    40234.921    13996.839       17.887        5.894      489.669      133.647        0.074      337.461        9.447      859.213
01/11/2014  15:30:00     -378.154     -238.377       12.640      251.982      210.598      116.535    63494.733    44351.357    13580.293       16.068        6.071      447.017      111.995        0.063      337.453        9.434      859.202
01/11/2014  15:31:00     -557.879     -272.159      -14.719      277.654      182.652      100.389    77091.741    33361.875    10077.900       25.300        6.027      620.725      110.685        0.032      337.453        9.434      859.228
01/11/2014  15:32:00     -547.159     -350.223       11.103      350.782      301.120      139.054   123048.277    90673.066    19336.048       32.757       11.653      649.645      182.132        0.079      337.438        9.408      859.188
01/11/2014  15:33:00     -468.702     -296.930       -2.062      252.220      189.860      113.294    63615.043    36046.684    12835.519       21.016        5.625      554.842      116.420        0.044      337.442        9.416      859.238
01/11/2014  15:34:00     -641.050     -246.385      -35.830      306.232      237.371      133.328    93777.857    56345.177    17776.395       32.039        8.395      686.768      142.286        0.043      337.416        9.372      859.253
01/11/2014  15:35:00     -751.049     -365.655      -18.723      348.610      279.409      148.722   121528.649    78069.388    22118.289       45.989       11.086      835.331      169.072        0.041      337.467        9.456      859.192
01/11/2014  15:36:00     -715.136     -365.109      -17.554      392.856      295.970      140.814   154335.635    87598.097    19828.706       45.335       13.088      802.947      161.869        0.041      337.466        9.454      859.147
01/11/2014  15:37:00     -519.908     -295.737      -12.122      309.477      180.330      125.864    95776.053    32518.942    15841.703       25.100        7.207      598.134      129.739        0.047      337.483        9.484      859.256
01/11/2014  15:38:00     -812.248     -334.974      -26.164      404.950      337.624      168.708   163984.887   113990.034    28462.357       53.949       15.322      878.609      210.603        0.057      337.469        9.461      859.174
01/11/2014  15:39:00     -752.616     -445.388      -42.719      340.225      293.048      163.560   115753.329    85877.288    26751.936       49.747       11.419      874.529      171.809        0.039      337.470        9.462      859.087
01/11/2014  15:40:00     -626.370     -393.793      -19.594      429.846      289.667      169.044   184767.684    83907.152    28576.035       42.247       14.863      739.873      204.876        0.077      337.426        9.389      859.092
01/11/2014  15:41:00     -558.875     -159.157      -31.512      336.262      181.743      106.108   113072.043    33030.533    11258.984       24.799        7.868      581.095      122.908        0.045      337.410        9.361      859.137
01/11/2014  15:42:00     -562.218     -391.854      -15.871      294.793      268.441      130.200    86902.803    72060.632    16951.930       32.287        8.796      685.302      155.231        0.051      337.364        9.285      859.124
01/11/2014  15:43:00     -486.443     -252.673      -17.468      326.252      220.162      121.097   106440.308    48471.132    14664.540       23.515        8.479      548.152      141.237        0.066      337.375        9.304      859.165
01/11/2014  15:44:00     -521.889     -267.723      -17.291      288.484      193.358      113.180    83222.851    37387.448    12809.802       23.886        6.671      586.553      143.006        0.059      337.396        9.339      859.158
01/11/2014  15:45:00     -495.579     -342.674       -6.440      331.306      211.533      119.879   109763.604    44746.311    14371.042       26.595        8.444      602.515      123.912        0.042      337.390        9.328      859.180
01/11/2014  15:46:00     -577.743     -290.002      -11.909      286.824      248.157      121.743    82268.272    61582.006    14821.302       28.832        7.934      646.443      133.526        0.043      337.393        9.333      859.192
01/11/2014  15:47:00     -751.133     -178.663      -47.712      365.079      254.789      132.601   133282.502    64917.624    17582.893       40.705       10.789      772.089      161.075        0.044      337.383        9.317      859.116
01/11/2014  15:48:00     -372.150     -225.561       17.570      356.161      302.333      149.856   126850.517    91404.980    22456.793       21.516       12.036      435.171      190.518        0.192      337.382        9.315      859.094
01/11/2014  15:49:00     -597.211     -211.560       -5.400      337.598      229.788      135.854   113972.398    52802.317    18456.393       29.331        9.262      633.576      155.659        0.060      337.354        9.268      859.117
01/11/2014  15:50:00     -589.323     -277.035      -49.161      244.956      197.768      106.044    60003.656    39112.168    11245.360       26.840        5.518      651.192      106.025        0.027      337.352        9.265      859.178
01/11/2014  15:51:00     -531.784     -213.767      -17.135      258.952      183.426      109.422    67055.984    33645.006    11973.212       22.071        5.634      573.141      123.480        0.046      337.341        9.247      859.207
01/11/2014  15:52:00     -523.039     -309.000       -2.954      289.551      261.446      137.328    83839.511    68353.898    18858.919       27.003        8.553      607.495      142.723        0.055      337.373        9.300      859.170
01/11/2014  15:53:00     -588.455     -261.072      -33.858      207.936      268.281      127.756    43237.241    71974.607    16321.552       27.354        6.577      643.769      124.379        0.037      337.374        9.302      859.201
01/11/2014  15:54:00     -665.551     -411.092      -12.139      371.379      280.365      145.567   137922.522    78604.636    21189.642       42.487       11.886      782.275      176.447        0.051      337.379        9.310      859.165
01/11/2014  15:55:00     -581.274     -424.802      -36.396      311.321      240.931      153.418    96920.932    58047.621    23537.042       34.905        8.925      719.955      155.223        0.046      337.391        9.330      859.158
01/11/2014  15:56:00     -705.394     -411.984      -37.654      379.844      271.328      164.797   144281.767    73619.001    27158.068       45.685       12.253      816.891      181.358        0.049      337.430        9.398      859.107
01/11/2014  15:57:00     -714.144     -261.550      -24.013      300.754      251.573      126.071    90452.778    63288.922    15893.776       37.428        8.482      760.533      137.240        0.033      337.472        9.465      859.126
01/11/2014  15:58:00     -473.269     -145.567       -5.452      285.282      195.171      111.821    81385.965    38091.887    12503.837       18.857        6.599      495.150      106.689        0.046      337.445        9.420      859.166
01/11/2014  15:59:00     -508.526     -363.800       -1.637      294.026      213.157      113.595    86451.271    45435.991    12903.867       26.785        7.240      625.259      148.174        0.056      337.396        9.340      859.178
01/11/2014  16:00:00     -476.540     -320.581       -1.203      295.565      221.025      124.028    87358.542    48852.193    15383.000       24.070        7.580      574.336      152.536        0.071      337.370        9.295      859.231
01/11/2014  16:01:00     -730.995     -350.173      -25.065      270.514      241.784      120.572    73177.822    58459.383    14537.711       40.186        7.309      810.539      142.273        0.031      337.332        9.232      859.225
01/11/2014  16:02:00     -419.188     -262.225       -9.751      269.238      225.830      104.872    72488.994    50999.085    10998.131       18.951        6.724      494.450      123.913        0.063      337.346        9.256      859.204
01/11/2014  16:03:00     -613.662     -333.274      -29.479      298.076      226.963      124.029    88849.092    51512.056    15383.256       32.211        7.787      698.322      138.105        0.039      337.332        9.232      859.213
01/11/2014  16:04:00     -400.042     -165.967       11.491      295.038      226.553       98.507    87047.396    51326.393     9703.558       16.787        7.404      433.104      121.929        0.079      337.370        9.297      859.223
01/11/2014  16:05:00     -653.995     -339.299      -32.337      326.897      237.493      139.168   106861.656    56402.690    19367.850       36.322        9.132      736.772      159.316        0.047      337.363        9.283      859.203
01/11/2014  16:06:00     -679.346     -474.325      -24.191      294.682      280.644      143.212    86837.312    78760.949    20509.563       43.656        9.305      828.550      147.170        0.032      337.399        9.343      859.204
01/11/2014  16:07:00     -636.654     -370.379       -5.627      323.899      316.338      130.804   104910.637   100069.941    17109.684       38.228       11.105      736.552      141.983        0.037      337.402        9.349      859.147
01/11/2014  16:08:00     -545.196     -248.755      -13.296      296.258      256.333      117.104    87768.800    65706.419    13713.394       26.321        8.359      599.264      132.296        0.049      337.384        9.318      859.223
01/11/2014  16:09:00     -468.052     -284.009        5.827      265.524      170.760       97.201    70502.949    29158.858     9448.035       20.442        5.455      547.480      105.102        0.037      337.351        9.263      859.246
01/11/2014  16:10:00     -564.589     -328.657       -4.704      288.751      224.619      125.761    83376.926    50453.774    15815.918       28.820        7.482      653.281      143.200        0.048      337.321        9.212      859.314
01/11/2014  16:11:00     -623.208     -362.397        7.475      337.757      269.579      157.120   114079.905    72673.012    24686.538       36.557       10.572      720.916      177.130        0.060      337.362        9.282      859.275
01/11/2014  16:12:00     -563.248     -237.272       -8.904      374.743      223.041      131.140   140432.157    49747.355    17197.726       29.047       10.369      611.185      163.192        0.071      337.380        9.311      859.307
01/11/2014  16:13:00     -575.225     -356.595      -24.892      266.093      194.905      121.113    70805.562    37988.030    14668.302       29.104        6.173      676.789      142.281        0.044      337.366        9.289      859.305
01/11/2014  16:14:00     -553.004     -318.225        5.159      302.740      228.247      130.603    91651.326    52096.507    17057.058       28.393        8.040      638.029      159.346        0.062      337.323        9.217      859.287
01/11/2014  16:15:00     -622.393     -317.386      -39.273      236.444      216.781      111.556    55905.811    46994.056    12444.829       30.248        5.767      698.647      109.769        0.025      337.296        9.171      859.245
01/11/2014  16:16:00     -641.137     -368.844      -31.446      353.052      241.856      143.910   124645.572    58494.179    20709.957       37.594       10.192      739.664      155.751        0.044      337.305        9.186      859.291
01/11/2014  16:17:00     -741.736     -491.813       -9.591      361.439      273.659      138.082   130638.341    74889.138    19066.556       50.833       11.230      889.973      163.061        0.034      337.282        9.148      859.273
01/11/2014  16:18:00     -366.062     -230.765       -5.476      252.280      197.773      118.857    63645.177    39114.057    14127.001       15.207        5.844      432.728      126.807        0.086      337.276        9.140      859.310
01/11/2014  16:19:00     -464.656     -268.474       -4.486      326.672      262.935      134.926   106714.831    69134.720    18205.029       24.100        9.703      536.641      179.291        0.112      337.258        9.109      859.289
01/11/2014  16:20:00     -490.982     -259.103      -14.543      266.296      234.020      120.686    70913.623    54765.517    14565.014       22.430        7.012      555.155      127.347        0.053      337.235        9.069      859.296
01/11/2014  16:21:00     -591.785     -217.796       13.018      455.139      263.784      138.499   207151.314    69581.812    19182.012       34.682       14.796      630.591      179.890        0.081      337.250        9.095      859.284
01/11/2014  16:22:00     -599.184     -340.640      -16.629      330.330      300.661      132.334   109118.110    90396.859    17512.221       34.614       10.851      689.244      170.045        0.061      337.242        9.081      859.289
01/11/2014  16:23:00     -685.580     -333.643      -16.781      389.406      293.938      143.325   151637.025    86399.352    20542.084       42.006       12.929      762.455      172.312        0.051      337.269        9.126      859.248
01/11/2014  16:24:00     -497.135     -259.693        0.767      269.535      194.167      132.081    72648.900    37700.756    17445.382       22.117        6.390      560.878      140.699        0.063      337.242        9.081      859.245
01/11/2014  16:25:00     -512.919     -364.611       -7.560      258.231      256.554      119.682    66683.301    65820.166    14323.761       27.143        7.341      629.307      115.425        0.034      337.229        9.060      859.254
01/11/2014  16:26:00     -547.798     -350.322       -4.974      325.397      242.508      132.238   105882.942    58810.047    17486.775       30.248        9.109      650.237      166.186        0.065      337.215        9.035      859.293
01/11/2014  16:27:00     -618.763     -324.709      -23.645      363.435      271.842      129.596   132085.017    73897.955    16795.102       35.578       11.139      698.787      147.454        0.045      337.252        9.098      859.258
01/11/2014  16:28:00     -748.581     -502.673      -18.278      391.091      252.938      156.852   152952.419    63977.792    24602.398       52.742       12.077      901.695      176.892        0.038      337.284        9.151      859.278
01/11/2014  16:29:00     -547.354     -365.377      -15.522      310.751      227.424      132.979    96566.243    51721.770    17683.337       29.963        8.299      658.101      161.933        0.061      337.276        9.138      859.314
01/11/2014  16:30:00     -432.357     -215.403       -9.997      235.711      182.931      106.277    55559.562    33463.688    11294.732       16.686        5.016      483.044      119.025        0.061      337.243        9.083      859.414
01/11/2014  16:31:00     -679.753     -326.321      -28.623      310.345      298.449      119.056    96313.951    89071.591    14174.391       38.443        9.978      754.022      134.974        0.032      337.198        9.008      859.370
01/11/2014  16:32:00     -695.098     -323.156      -38.208      268.782      238.295      140.353    72243.536    56784.659    19699.028       36.886        7.436      766.545      153.146        0.040      337.174        8.966      859.365
01/11/2014  16:33:00     -424.301     -207.044       -1.466      268.590      189.540      107.116    72140.582    35925.234    11473.810       17.120        5.977      472.121      124.192        0.069      337.167        8.956      859.361
01/11/2014  16:34:00     -546.223     -247.893      -19.114      250.000      260.188      110.511    62500.142    67697.974    12212.728       25.127        7.121      599.842      110.848        0.034      337.152        8.931      859.343
01/11/2014  16:35:00     -325.128     -155.394       11.581      234.686      146.161       90.161    55077.530    21363.041     8129.091       10.727        4.228      360.355      115.963        0.104      337.128        8.890      859.395
01/11/2014  16:36:00     -583.454     -300.278      -25.731      264.404      214.176      121.169    69909.580    45871.367    14682.012       28.083        6.523      656.191      134.417        0.042      337.143        8.914      859.369
01/11/2014  16:37:00     -521.789     -325.170       -8.101      341.778      323.986      146.045   116812.387   104966.779    21329.164       31.055       12.155      614.816      164.653        0.072      337.186        8.987      859.359
01/11/2014  16:38:00     -521.739     -235.096      -14.724      307.254      232.714      139.201    94404.865    54156.030    19377.027       24.779        8.397      572.260      145.696        0.065      337.241        9.080      859.326
01/11/2014  16:39:00     -677.546     -310.985      -17.069      256.348      224.094      121.596    65714.508    50218.224    14785.651       34.337        6.536      745.507      128.468        0.030      337.226        9.055      859.334
01/11/2014  16:40:00     -599.938     -305.615      -24.803      269.388      274.995      134.309    72569.743    75622.350    18038.820       31.006        8.312      673.295      142.682        0.045      337.203        9.017      859.353
01/11/2014  16:41:00     -573.716     -416.907      -18.890      328.055      261.883      141.690   107620.329    68582.884    20076.062       34.977        9.814      709.197      169.102        0.057      337.218        9.041      859.297
01/11/2014  16:42:00     -539.743     -370.607       -9.717      271.438      205.160      125.886    73678.388    42090.746    15847.229       28.017        6.581      654.730      134.857        0.042      337.207        9.021      859.359
01/11/2014  16:43:00     -583.462     -372.703      -15.946      260.674      210.693      117.522    67951.132    44391.438    13811.499       30.285        6.308      692.341      124.930        0.033      337.177        8.973      859.411
01/11/2014  16:44:00     -578.204     -376.068      -32.512      244.849      239.836      111.393    59950.860    57521.069    12408.367       30.332        6.494      689.744      133.077        0.037      337.194        9.001      859.429
01/11/2014  16:45:00     -669.454     -284.779      -31.717      316.373      204.229      135.194   100091.769    41709.399    18277.505       34.515        8.004      727.508      133.342        0.034      337.202        9.014      859.416
01/11/2014  16:46:00     -717.873     -199.552      -18.387      346.777      267.841      135.210   120254.389    71738.776    18281.652       38.285       10.514      745.092      146.209        0.039      337.211        9.028      859.300
01/11/2014  16:47:00     -513.531     -197.281       -0.975      267.611      239.026      116.295    71615.885    57133.613    13524.578       22.243        7.114      550.122      127.465        0.054      337.184        8.983      859.372
01/11/2014  16:48:00     -447.208     -238.167       -0.197      279.859      246.134      127.880    78321.120    60581.731    16353.351       20.596        7.763      506.674      134.445        0.070      337.153        8.932      859.339
01/11/2014  16:49:00     -602.631     -339.854       -1.740      257.815      225.849      117.409    66468.415    51007.673    13784.941       30.494        6.563      691.856      130.488        0.036      337.143        8.917      859.301
01/11/2014  16:50:00     -465.548     -265.830       -3.030      247.500      201.654      110.074    61256.418    40664.414    12116.215       20.070        5.702      536.098      112.524        0.044      337.123        8.880      859.310
01/11/2014  16:51:00     -589.601     -354.100      -30.020      314.137      273.033      144.882    98682.181    74546.904    20990.828       33.404        9.711      687.761      165.018        0.058      337.100        8.843      859.312
01/11/2014  16:52:00     -757.468     -271.914      -24.620      374.939      238.670      147.816   140578.968    56963.166    21849.628       43.381       10.970      804.796      161.391        0.040      337.101        8.843      859.272
01/11/2014  16:53:00     -536.017     -201.161       -8.778      285.531      282.041      135.142    81528.034    79547.283    18263.254       25.357        8.967      572.521      157.830        0.076      337.106        8.852      859.261
01/11/2014  16:54:00     -590.878     -366.131      -29.736      264.463      222.436      110.352    69940.592    49477.791    12177.667       30.781        6.580      695.118      111.869        0.026      337.081        8.809      859.339
01/11/2014  16:55:00     -614.821     -384.342      -12.164      353.326      247.962      153.638   124839.269    61485.282    23604.680       36.787       10.496      725.068      173.442        0.057      337.062        8.778      859.323
01/11/2014  16:56:00     -583.688     -432.871      -25.038      355.211      268.556      138.475   126174.873    72122.090    19175.354       37.305       10.874      726.684      160.103        0.049      337.042        8.746      859.318
01/11/2014  16:57:00     -574.385     -246.427      -19.612      300.634      235.302      118.095    90381.098    55367.183    13946.481       27.534        7.985      625.015      145.957        0.055      337.031        8.727      859.340
01/11/2014  16:58:00     -509.008     -290.312      -13.576      310.902      213.018      117.383    96660.111    45376.508    13778.778       24.966        7.791      585.978      140.654        0.058      337.002        8.679      859.374
01/11/2014  16:59:00     -516.517     -243.580       -7.389      291.584      231.724      112.024    85021.321    53695.806    12549.419       23.870        7.563      571.069      126.463        0.049      337.004        8.682      859.448
01/11/2014  17:00:00     -583.821     -415.805      -25.568      352.729      285.677      149.345   124417.615    81611.560    22304.002       37.133       11.417      716.757      186.339        0.068      337.051        8.762      859.451
01/11/2014  17:01:00     -389.859     -234.696       -1.225      271.604      213.822      116.658    73768.930    45719.959    13609.168       17.006        6.655      455.052      147.179        0.105      337.033        8.730      859.512
01/11/2014  17:02:00     -503.475     -254.252      -23.215      339.425      213.779      117.218   115209.335    45701.279    13740.003       24.663        8.733      564.031      144.600        0.066      337.070        8.791      859.517
01/11/2014  17:03:00     -462.941     -198.186      -17.776      274.562      198.185      105.636    75384.289    39277.196    11158.860       18.984        6.291      503.579      123.495        0.060      337.082        8.813      859.517
01/11/2014  17:04:00     -499.802     -273.855       16.191      262.516      205.921      116.059    68914.388    42403.493    13469.737       22.490        6.239      569.911      120.651        0.045      337.078        8.807      859.513
01/11/2014  17:05:00     -450.504     -275.066       -1.983      276.859      175.306      117.712    76650.865    30732.208    13856.011       19.991        6.062      527.840      125.555        0.057      337.084        8.814      859.536
01/11/2014  17:06:00     -594.071     -348.294      -21.658      222.206      184.285      103.207    49375.712    33961.020    10651.614       28.433        4.699      688.643      109.373        0.025      337.054        8.765      859.548
01/11/2014  17:07:00     -506.857     -351.128      -34.299      241.445      168.632      108.397    58295.563    28436.757    11750.009       23.991        4.924      616.599       99.522        0.026      337.051        8.761      859.587
01/11/2014  17:08:00     -408.145     -174.324        7.041      240.488      200.328      100.551    57834.437    40131.209    10110.427       15.253        5.404      443.814      120.552        0.074      337.012        8.694      859.619
01/11/2014  17:09:00     -476.510     -266.161      -22.439      249.182      209.724       95.442    62091.861    43983.982     9109.192       20.678        5.759      545.805      118.584        0.047      336.979        8.641      859.654
01/11/2014  17:10:00     -662.641     -371.417      -36.619      270.623      229.286      129.189    73236.587    52572.291    16689.849       36.042        7.125      759.634      155.303        0.042      336.984        8.647      859.635
01/11/2014  17:11:00     -506.777     -227.848      -14.985      294.187      214.344      111.709    86546.213    45943.398    12478.956       22.694        7.248      555.642      125.943        0.051      336.971        8.627      859.633
01/11/2014  17:12:00     -544.145     -228.830      -34.043      260.941      241.673      110.498    68090.016    58405.601    12209.700       24.414        6.935      590.303      125.844        0.045      336.980        8.641      859.666
01/11/2014  17:13:00     -621.272     -442.598      -34.437      222.366      194.932      121.313    49446.477    37998.306    14716.877       34.259        5.108      762.805      115.682        0.023      336.991        8.660      859.625
01/11/2014  17:14:00     -560.981     -286.506       -4.485      316.668      270.892      119.634   100278.377    73382.444    14312.247       29.236        9.399      629.909      147.714        0.055      337.011        8.693      859.655
01/11/2014  17:15:00     -491.563     -356.891      -17.376      278.415      218.001      133.302    77514.907    47524.253    17769.447       25.603        7.140      607.459      151.504        0.062      337.018        8.705      859.674
01/11/2014  17:16:00     -493.633     -227.467      -14.002      266.856      213.404      110.503    71212.348    45541.204    12210.834       21.227        6.448      543.521      122.588        0.051      336.995        8.667      859.691
01/11/2014  17:17:00     -364.116     -136.929       -3.086      197.808      210.961       87.844    39128.171    44504.630     7716.605       12.133        4.567      389.012       80.734        0.043      336.969        8.622      859.662
01/11/2014  17:18:00     -424.512     -297.360      -27.360      232.901      175.510      106.745    54242.691    30803.718    11394.600       18.290        4.822      518.299      124.821        0.058      336.992        8.661      859.653
01/11/2014  17:19:00     -332.202     -134.715       -4.780      241.207      177.331       86.711    58181.014    31446.355     7518.799       11.282        4.857      358.478       97.386        0.074      336.969        8.623      859.671
01/11/2014  17:20:00     -423.048     -188.591      -13.089      157.536      144.998       84.534    24817.648    21024.488     7145.964       13.384        2.649      463.181       75.170        0.026      336.936        8.568      859.628
01/11/2014  17:21:00     -302.861     -159.629        7.598      181.942      120.869       87.617    33102.794    14609.219     7676.772        8.632        2.769      342.354       86.262        0.063      336.928        8.556      859.662
01/11/2014  17:22:00     -433.738     -302.225       -9.177      226.615      161.948       95.713    51354.548    26227.197     9160.925       18.313        4.337      528.648      115.101        0.047      336.919        8.541      859.627
01/11/2014  17:23:00     -482.345     -250.579       -3.767      261.753      232.733      120.000    68514.446    54164.702    14400.100       21.625        6.854      543.551      132.240        0.059      336.895        8.501      859.584
01/11/2014  17:24:00     -520.380     -323.441       -6.337      258.347      270.682      135.052    66742.978    73268.767    18239.078       26.682        7.913      612.707      137.809        0.051      336.932        8.561      859.557
01/11/2014  17:25:00     -510.545     -342.831      -11.167      258.924      204.996      116.494    67041.413    42023.308    13570.966       25.045        6.132      614.971      133.363        0.047      336.894        8.500      859.533
01/11/2014  17:26:00     -243.200     -235.453        6.472      212.949      147.272      109.039    45347.119    21688.913    11889.443        9.676        3.946      338.503      118.632        0.123      336.860        8.442      859.558
01/11/2014  17:27:00     -282.750     -108.981       -3.646      178.784      164.382       77.588    31963.705    27021.576     6019.902        7.841        3.250      303.025       67.543        0.050      336.844        8.416      859.621
01/11/2014  17:28:00     -481.083     -332.947      -19.000      276.693      250.549      119.747    76558.931    62774.669    14339.361       24.814        7.684      585.059      145.445        0.062      336.885        8.483      859.637
01/11/2014  17:29:00     -360.105     -178.604       -7.072      192.341      231.206      101.327    36995.098    53456.433    10267.217       13.115        5.036      401.964      106.863        0.071      336.895        8.500      859.674
01/11/2014  17:30:00     -504.477     -243.654      -26.678      183.393      210.822       98.256    33633.136    44446.039     9654.255       20.114        4.387      560.236      105.087        0.035      336.911        8.527      859.678
01/11/2014  17:31:00     -379.340     -207.485        4.216      255.869      193.892      102.644    65469.154    37594.237    10535.818       15.026        5.680      432.376      129.611        0.090      336.882        8.480      859.670
01/11/2014  17:32:00     -594.945     -227.824      -19.095      236.928      210.955       99.884    56135.025    44502.053     9976.838       25.840        5.531      637.074       82.379        0.017      336.896        8.502      859.691
01/11/2014  17:33:00     -315.940     -106.311       18.682      278.360      181.799       99.774    77484.393    33050.922     9954.790       11.596        6.025      333.347      135.510        0.165      336.872        8.462      859.706
01/11/2014  17:34:00     -214.695     -148.582       26.508      177.641      138.160       79.502    31556.397    19088.287     6320.608        6.291        2.848      261.095       93.956        0.129      336.857        8.438      859.747
01/11/2014  17:35:00     -405.289     -189.071      -10.038      210.204      130.554       83.460    44185.686    17044.372     6965.535       13.414        3.410      447.221      100.690        0.051      336.835        8.398      859.757
01/11/2014  17:36:00     -396.972     -282.517      -14.163      197.672      171.440      105.046    39074.354    29391.724    11034.737       15.854        3.975      487.240      119.057        0.060      336.818        8.372      859.727
01/11/2014  17:37:00     -535.212     -293.067      -29.485      332.289      238.461      119.496   110416.193    56863.549    14279.271       27.735        9.078      610.197      138.614        0.052      336.815        8.367      859.685
01/11/2014  17:38:00     -432.270     -196.922      -19.065      251.880      178.757       93.892    63443.456    31953.914     8815.726       16.509        5.211      475.011      114.987        0.059      336.801        8.343      859.692
01/11/2014  17:39:00     -382.850     -229.070        1.529      253.963      180.195      111.525    64496.970    32470.326    12437.886       15.421        5.470      446.147      133.845        0.090      336.778        8.305      859.721
01/11/2014  17:40:00     -447.615     -330.773       -9.755      331.243      249.802      137.300   109721.683    62400.892    18851.316       25.039        9.549      556.570      155.431        0.078      336.752        8.261      859.658
01/11/2014  17:41:00     -562.964     -273.708      -23.802      247.653      174.053      111.061    61332.030    30294.376    12334.476       24.817        5.198      625.975      125.522        0.040      336.758        8.273      859.697
01/11/2014  17:42:00     -315.820     -188.744        1.205      267.152      183.892       95.212    71370.327    33816.228     9065.279       12.479        5.713      367.922      125.018        0.115      336.743        8.249      859.700
01/11/2014  17:43:00     -354.370     -224.031      -19.660      212.519      153.264       98.343    45164.264    23489.769     9671.423       12.723        3.916      419.247      113.737        0.074      336.735        8.232      859.694
01/11/2014  17:44:00     -253.308     -169.582        2.821      126.520      120.430       65.077    16007.271    14503.287     4235.052        6.383        1.737      304.832       65.928        0.047      336.688        8.157      859.718
01/11/2014  17:45:00     -226.082     -142.132        3.475      171.371      137.087       70.221    29367.988    18792.876     4931.008        6.220        2.655      267.047       87.220        0.107      336.709        8.190      859.736
01/11/2014  17:46:00     -249.226     -211.153       -1.432      172.234      173.479       81.380    29664.619    30095.099     6622.761        8.653        3.319      326.648       87.106        0.071      336.684        8.150      859.795
01/11/2014  17:47:00     -522.736     -231.999      -41.425      179.657      168.007       95.387    32276.717    28226.441     9098.678       19.919        3.480      571.906       81.819        0.020      336.693        8.163      859.802
01/11/2014  17:48:00     -482.176     -167.810       -8.203      198.242      179.917       88.641    39299.865    32370.224     7857.193       17.011        3.976      510.543       79.646        0.024      336.693        8.162      859.810
01/11/2014  17:49:00     -212.230     -135.685       17.198      166.748      149.858       83.828    27804.917    22457.536     7027.216        6.051        2.864      251.897       95.745        0.144      336.682        8.147      859.859
01/11/2014  17:50:00     -457.316     -174.577      -33.150      213.635      148.377       80.342    45639.712    22015.802     6454.868       15.740        3.706      489.505       85.635        0.031      336.667        8.119      859.900
01/11/2014  17:51:00     -434.239     -221.717      -31.721      254.896      197.914      113.604    64972.014    39169.785    12905.819       17.787        5.852      487.567      139.641        0.082      336.661        8.110      859.929
01/11/2014  17:52:00     -399.046     -112.354      -13.023      163.536      165.111       87.427    26743.997    27261.697     7643.506       11.683        3.082      414.562       85.440        0.042      336.643        8.080      859.964
01/11/2014  17:53:00     -428.230     -218.547        2.925      271.222      201.427      109.026    73561.276    40572.703    11886.616       17.857        6.301      480.774      126.942        0.070      336.640        8.076      860.013
01/11/2014  17:54:00     -542.078     -227.732      -38.155      194.019      243.196       98.449    37643.396    59144.425     9692.263       22.681        5.324      587.971       92.606        0.025      336.647        8.086      860.043
01/11/2014  17:55:00     -400.815     -211.989       -4.742      205.052      164.579       90.275    42046.472    27086.298     8149.495       14.144        3.864      453.422      102.216        0.051      336.626        8.052      860.033
01/11/2014  17:56:00     -359.883     -145.760       -0.408      279.397      179.398      116.663    78062.412    32183.508    13610.232       13.729        6.193      388.281      143.750        0.137      336.600        8.009      860.047
01/11/2014  17:57:00     -413.593     -161.952      -14.208      198.628      167.803       88.450    39453.256    28157.940     7823.375       13.645        3.772      444.171       93.579        0.044      336.591        7.994      860.064
01/11/2014  17:58:00     -523.690     -116.863      -19.164      163.572      171.659       98.145    26755.834    29466.691     9632.362       17.705        3.293      536.570       88.816        0.027      336.590        7.991      860.114
01/11/2014  17:59:00     -421.447      -90.178      -10.920      230.930      173.068       93.894    53328.629    29952.684     8816.107       13.897        4.605      430.987      119.121        0.076      336.584        7.982      860.112
01/11/2014  18:00:00     -448.044     -228.324       -5.837      216.528      167.977       91.874    46884.582    28216.343     8440.864       16.821        4.177      502.867       89.943        0.032      336.559        7.940      860.114
01/11/2014  18:01:00     -472.377     -311.716      -37.878      186.474      166.641       95.295    34772.397    27769.134     9081.059       19.667        3.581      565.957       88.677        0.025      336.543        7.914      860.090
01/11/2014  18:02:00     -332.266     -238.781      -23.024      172.768      106.720       80.273    29848.820    11389.200     6443.721       10.781        2.384      409.167       56.604        0.019      336.520        7.876      860.058
01/11/2014  18:03:00     -431.712     -235.888      -12.344      294.648      195.134      104.385    86817.635    38077.086    10896.223       18.896        6.790      491.954      114.138        0.054      336.526        7.884      860.056
01/11/2014  18:04:00     -339.464     -163.911       -1.325      284.304      170.968       91.933    80828.856    29229.944     8451.731       13.029        5.926      376.965      101.586        0.073      336.528        7.888      860.078
01/11/2014  18:05:00     -298.451     -172.389        7.660      198.785      150.227       91.508    39515.339    22568.271     8373.633        9.464        3.523      344.661      105.571        0.094      336.529        7.890      860.088
01/11/2014  18:06:00     -457.308     -331.708      -14.991      249.905      181.550      107.001    62452.645    32960.463    11449.219       21.311        5.343      564.943      112.401        0.040      336.524        7.882      860.080
01/11/2014  18:07:00     -414.542     -232.979      -15.606      255.136      182.422       97.983    65094.162    33277.785     9600.584       16.715        5.399      475.526      124.792        0.069      336.514        7.864      860.075
01/11/2014  18:08:00     -329.954     -158.902        3.752      248.246      206.974      105.059    61626.046    42838.222    11037.471       12.480        5.775      366.224      126.871        0.120      336.497        7.834      860.066
01/11/2014  18:09:00     -454.114     -183.414      -34.993      242.900      208.280       99.333    59000.206    43380.476     9866.996       17.665        5.612      489.755      122.955        0.063      336.478        7.802      860.105
01/11/2014  18:10:00     -374.553     -131.225       -8.578      191.160      153.873       90.210    36542.320    23676.885     8137.870       11.296        3.418      396.876       89.851        0.051      336.462        7.776      860.073
01/11/2014  18:11:00     -291.969     -146.431       -4.493      204.291      154.001       81.905    41734.719    23716.294     6708.461        8.942        3.608      326.631       95.891        0.086      336.450        7.755      860.088
01/11/2014  18:12:00     -299.195     -149.960       -5.936      158.803      162.933       83.230    25218.293    26547.176     6927.295        8.536        2.935      334.673       94.229        0.079      336.441        7.741      860.063
01/11/2014  18:13:00     -424.330     -172.421      -12.452      177.026      158.008       77.108    31338.362    24966.457     5945.659       13.608        3.113      458.023       91.562        0.040      336.438        7.736      860.075
01/11/2014  18:14:00     -388.303     -167.004        6.836      209.814      167.637      106.275    44021.969    28102.206    11294.408       13.105        4.171      422.693      112.647        0.071      336.454        7.761      860.083
01/11/2014  18:15:00     -440.182     -222.808      -14.051      251.544      173.728      111.386    63274.579    30181.430    12406.757       17.471        5.293      493.360      133.788        0.074      336.445        7.747      860.080
01/11/2014  18:16:00     -500.126     -275.954       -7.936      257.537      185.479      113.314    66325.067    34402.488    12839.965       21.993        5.678      571.207      120.407        0.044      336.445        7.747      860.056
01/11/2014  18:17:00     -305.927     -102.435       14.656      256.753      149.085       92.486    65921.859    22226.306     8553.700       10.048        4.835      322.621      117.074        0.132      336.432        7.725      860.088
01/11/2014  18:18:00     -344.025     -281.245       -4.183      259.949      228.435      104.284    67573.634    52182.497    10875.192       16.403        6.532      444.356      131.698        0.088      336.431        7.723      860.063
01/11/2014  18:19:00     -370.375     -158.617       -0.239      223.809      178.568      103.499    50090.527    31886.452    10711.975       12.750        4.634      402.911      107.658        0.071      336.425        7.712      860.048
01/11/2014  18:20:00     -210.987     -185.984        4.954      166.464      147.684       88.248    27710.128    21810.656     7787.719        6.821        2.865      281.257      103.486        0.135      336.425        7.714      860.064
01/11/2014  18:21:00     -323.411     -173.772       -5.043      250.364      187.821      102.069    62682.014    35276.696    10418.152       12.158        5.419      367.140      113.719        0.096      336.438        7.735      860.001
01/11/2014  18:22:00     -417.961     -284.194       -9.216      244.029      186.088       97.219    59550.334    34628.568     9451.541       17.957        5.182      505.428      108.738        0.046      336.440        7.739      860.017
01/11/2014  18:23:00     -432.486     -236.022        8.298      310.442      217.619      114.409    96373.975    47358.090    13089.425       19.979        7.841      492.698      151.776        0.095      336.455        7.764      859.959
01/11/2014  18:24:00     -358.496     -185.252       -6.366      222.044      122.608       85.382    49303.756    15032.678     7290.104       11.724        3.581      403.532      110.689        0.075      336.441        7.741      859.957
01/11/2014  18:25:00     -436.695     -258.515        1.450      342.846      206.923      124.126   117543.317    42817.327    15407.311       21.662        8.788      507.477      170.646        0.113      336.439        7.738      859.943
01/11/2014  18:26:00     -484.229     -252.079       -2.194      311.142      217.054      116.152    96809.178    47112.227    13491.250       22.769        7.871      545.914      145.873        0.071      336.434        7.729      859.898
01/11/2014  18:27:00     -439.125     -208.119      -19.170      251.493      200.741       98.422    63248.581    40297.009     9686.972       17.485        5.662      485.946      112.757        0.054      336.417        7.699      859.919
01/11/2014  18:28:00     -388.009     -298.093       -7.275      182.484      172.538       91.959    33300.552    29769.530     8456.518       15.548        3.576      489.296       94.918        0.038      336.420        7.705      859.898
01/11/2014  18:29:00     -273.284     -200.172       12.354      190.434      154.327       84.596    36265.274    23816.824     7156.512        9.106        3.362      338.752       91.772        0.073      336.410        7.689      859.937
01/11/2014  18:30:00     -364.777     -177.057       10.171      251.366      172.101       94.650    63184.996    29618.889     8958.574       13.312        5.088      405.476      109.346        0.073      336.410        7.688      859.962
01/11/2014  18:31:00     -390.321     -268.910        9.894      203.758      167.784      106.214    41517.325    28151.572    11281.486       15.284        4.048      473.987       94.333        0.040      336.404        7.677      859.986
01/11/2014  18:32:00     -368.374     -249.630      -14.580      180.363      191.846      106.118    32530.746    36804.995    11261.063       13.940        4.030      444.988      105.505        0.056      336.376        7.631      859.966
01/11/2014  18:33:00     -326.927     -262.423       -3.163      195.344      162.016       86.419    38159.453    26249.093     7468.304       12.381        3.594      419.222       85.803        0.042      336.377        7.634      859.961
01/11/2014  18:34:00     -395.215     -235.522      -29.397      159.323      185.147       85.621    25383.836    34279.302     7331.032       13.975        3.350      460.071       81.754        0.032      336.375        7.630      859.931
01/11/2014  18:35:00     -300.522     -154.868        4.194      210.803      144.826       86.693    44438.025    20974.505     7515.673        9.361        3.646      338.079      104.592        0.096      336.345        7.580      859.882
01/11/2014  18:36:00     -383.359     -127.887        5.284      208.527      163.377       81.838    43483.658    26691.914     6697.519       12.010        3.844      404.127       95.524        0.056      336.320        7.537      859.796
01/11/2014  18:37:00     -417.446     -289.555      -10.464      233.000      173.166       96.847    54289.118    29986.498     9379.369       17.592        4.683      508.038      111.368        0.048      336.345        7.581      859.733
01/11/2014  18:38:00     -561.694     -333.678      -28.139      191.154      171.227       92.245    36539.751    29318.740     8509.137       25.099        3.718      653.331       91.357        0.020      336.351        7.590      859.706
01/11/2014  18:39:00     -496.046     -231.861       -5.819      231.320      208.884      105.556    53509.147    43632.703    11142.125       20.405        5.414      547.559      109.343        0.040      336.368        7.619      859.684
01/11/2014  18:40:00     -501.729     -169.246        4.035      259.790      190.124      111.838    67490.984    36147.043    12507.754       19.825        5.807      529.506      125.149        0.056      336.387        7.651      859.719
01/11/2014  18:41:00     -449.721     -214.528      -17.432      202.368      204.613       95.377    40952.667    41866.335     9096.842       17.023        4.596      498.269       84.765        0.029      336.392        7.657      859.752
01/11/2014  18:42:00     -353.738     -205.286       -7.844      301.058      274.881      120.591    90635.741    75559.577    14542.302       17.401        9.037      408.990      140.616        0.118      336.408        7.685      859.724
01/11/2014  18:43:00     -431.649     -199.076       -0.504      227.994      211.894      120.411    51981.241    44899.236    14498.773       16.865        5.569      475.344      138.177        0.084      336.390        7.655      859.777
01/11/2014  18:44:00     -546.819     -382.362      -21.323      312.626      251.518      135.327    97734.839    63261.364    18313.505       31.246        8.965      667.242      137.642        0.043      336.400        7.672      859.702
01/11/2014  18:45:00     -545.155     -246.412      -16.590      275.299      219.531      115.008    75789.648    48194.012    13226.732       24.768        6.861      598.258      119.122        0.040      336.413        7.693      859.710
01/11/2014  18:46:00     -530.854     -294.198       -6.638      270.395      214.198      110.297    73113.243    45880.988    12165.459       24.976        6.558      606.925      117.490        0.037      336.440        7.739      859.687
01/11/2014  18:47:00     -524.255     -379.441      -22.477      291.587      264.625      113.428    85023.190    70026.537    12865.897       29.359        8.396      647.163      138.962        0.046      336.440        7.739      859.688
01/11/2014  18:48:00     -729.337     -406.477      -13.511      363.664      312.298      158.131   132251.626    97530.053    25005.289       47.602       12.739      834.959      190.248        0.052      336.440        7.737      859.681
01/11/2014  18:49:00     -532.901     -252.083        0.841      240.505      255.296      106.545    57842.609    65176.069    11351.903       24.093        6.719      589.516      111.548        0.036      336.462        7.775      859.741
01/11/2014  18:50:00     -432.969     -240.598       17.235      349.659      255.901      122.964   122261.164    65485.369    15120.209       22.422       10.143      495.328      156.870        0.100      336.451        7.756      859.764
01/11/2014  18:51:00     -548.807     -375.420      -11.396      225.087      208.027      117.798    50664.239    43275.301    13876.293       27.502        5.391      664.928      113.397        0.029      336.421        7.705      859.741
01/11/2014  18:52:00     -475.762     -251.025       -1.950      301.250      226.906      111.800    90751.795    51486.344    12499.144       22.203        7.737      537.925      128.190        0.057      336.398        7.668      859.726
01/11/2014  18:53:00     -529.255     -342.613      -21.004      317.790      204.536      139.653   100990.535    41834.867    19503.089       28.011        8.116      630.472      166.375        0.070      336.378        7.635      859.666
01/11/2014  18:54:00     -618.049     -460.359        1.643      354.516      237.198      134.785   125681.273    56262.923    18167.126       39.698       10.006      770.659      165.633        0.046      336.390        7.655      859.647
01/11/2014  18:55:00     -860.700     -502.819      -21.096      412.556      300.759      164.262   170202.126    90455.889    26981.887       64.081       14.382      996.811      197.423        0.039      336.421        7.706      859.623
01/11/2014  18:56:00     -807.786     -546.594      -31.200      339.758      259.243      162.269   115435.351    67206.822    26331.171       58.058       10.449      975.338      168.444        0.030      336.423        7.710      859.579
01/11/2014  18:57:00     -694.025     -454.764      -22.892      381.931      280.179      152.154   145871.666    78500.507    23150.870       46.822       12.376      829.747      190.104        0.052      336.401        7.674      859.571
01/11/2014  18:58:00     -562.375     -316.042        8.722      307.756      271.041      130.834    94714.005    73463.383    17117.666       30.073        9.265      645.096      149.725        0.054      336.373        7.626      859.549
01/11/2014  18:59:00     -601.694     -412.564       -7.020      373.372      308.697      155.214   139406.817    95293.536    24091.288       39.550       12.940      729.551      181.922        0.062      336.350        7.588      859.522
01/11/2014  19:00:00     -555.967     -330.398        4.208      264.039      221.195      132.885    69716.646    48927.241    17658.549       27.727        6.815      646.732      135.951        0.044      336.326        7.548      859.515
01/11/2014  19:01:00     -628.900     -405.159       -4.912      363.929      296.194      151.264   132444.380    87730.838    22880.943       40.133       12.153      748.110      168.952        0.051      336.304        7.513      859.514
01/11/2014  19:02:00     -542.777     -397.840        4.096      328.608      273.999      130.789   107983.342    75075.481    17105.830       32.650       10.008      672.966      154.435        0.053      336.312        7.526      859.523
01/11/2014  19:03:00     -612.511     -410.108      -15.710      289.470      240.580      124.335    83792.634    57878.859    15459.310       35.034        7.857      737.128      139.793        0.036      336.290        7.488      859.559
01/11/2014  19:04:00     -533.021     -416.474      -22.377      300.310      276.232      145.861    90186.122    76304.014    21275.549       32.288        9.388      676.433      163.158        0.058      336.270        7.457      859.619
01/11/2014  19:05:00     -516.118     -267.287      -13.192      246.925      240.266      104.242    60971.939    57727.942    10866.499       23.376        6.478      581.223      109.099        0.035      336.263        7.443      859.644
01/11/2014  19:06:00     -659.735     -238.605      -34.353      234.536      228.283      111.340    55007.288    52113.209    12396.694       30.642        5.976      701.557      107.702        0.024      336.235        7.397      859.675
01/11/2014  19:07:00     -506.818     -185.700      -14.499      304.282      219.958      127.282    92587.355    48381.324    16200.803       22.434        7.858      539.768      146.633        0.074      336.235        7.398      859.659
01/11/2014  19:08:00     -876.725     -415.349      -45.451      469.048      362.647      176.515   220005.606   131512.487    31157.533       66.289       19.134      970.135      220.934        0.052      336.252        7.425      859.587
01/11/2014  19:09:00     -654.253     -393.921      -39.079      351.540      251.885      136.170   123580.531    63445.878    18542.301       39.512       10.278      763.689      168.886        0.049      336.272        7.458      859.662
01/11/2014  19:10:00     -642.369     -194.673      -19.040      316.960      273.247      128.832   100463.559    74663.875    16597.659       32.128        9.586      671.220      163.225        0.059      336.248        7.418      859.742
01/11/2014  19:11:00     -486.843     -188.816      -10.272      193.274      222.866      106.337    37354.977    49669.063    11307.608       18.554        4.917      522.176      106.900        0.042      336.221        7.373      859.850
01/11/2014  19:12:00     -513.376     -250.618       -5.186      327.551      283.185      162.737   107289.698    80194.000    26483.454       27.014       10.698      571.283      191.089        0.112      336.193        7.328      859.823
01/11/2014  19:13:00     -544.711     -427.871      -19.739      321.438      272.434      159.033   103322.275    74220.178    25291.594       34.147       10.142      692.664      182.290        0.069      336.178        7.302      859.868
01/11/2014  19:14:00     -367.990     -106.387       11.697      271.841      199.082      118.303    73897.568    39633.518    13995.561       13.718        6.376      383.060      131.056        0.117      336.167        7.284      859.915
01/11/2014  19:15:00     -584.992     -241.550      -14.286      338.972      237.743      121.620   114901.846    56521.722    14791.503       29.346        9.311      632.899      148.544        0.055      336.155        7.262      859.988
01/11/2014  19:16:00     -525.291     -334.872      -18.080      304.478      271.181      144.581    92706.665    73539.197    20903.692       28.774        9.357      622.952      156.865        0.063      336.163        7.275      860.000
01/11/2014  19:17:00     -562.651     -225.253      -17.922      383.003      209.510      133.120   146690.983    43894.248    17720.825       28.794       10.415      606.066      164.902        0.074      336.187        7.316      859.990
01/11/2014  19:18:00     -650.213     -239.401      -19.161      338.572      249.887      121.379   114630.952    62443.516    14732.888       33.610        9.590      692.885      147.554        0.045      336.191        7.322      860.020
01/11/2014  19:19:00     -558.273     -235.655      -15.935      255.003      231.131      107.798    65026.425    53421.509    11620.460       24.874        6.503      605.972      127.250        0.044      336.180        7.304      860.025
01/11/2014  19:20:00     -418.282     -192.845       -6.475      307.443      252.120      133.317    94521.114    63564.746    17773.453       19.400        8.793      460.596      142.431        0.096      336.146        7.249      860.017
01/11/2014  19:21:00     -425.644     -332.229      -22.333      324.634      237.253      133.497   105386.977    56288.870    17821.450       23.574        8.975      539.953      140.058        0.067      336.153        7.260      860.044
01/11/2014  19:22:00     -500.966     -278.694        2.959      292.506      212.034      119.727    85559.733    44958.583    14334.658       23.673        7.243      573.269      132.500        0.053      336.131        7.224      860.069
01/11/2014  19:23:00     -616.709     -249.978      -16.574      325.908      304.373      130.591   106216.331    92642.849    17054.023       32.947       10.796      665.447      144.642        0.047      336.121        7.206      860.029
01/11/2014  19:24:00     -655.713     -174.604      -18.827      330.858      224.445      138.562   109467.020    50375.345    19199.564       31.989        8.952      678.562      167.760        0.061      336.131        7.224      860.003
01/11/2014  19:25:00     -481.812     -307.559       17.176      432.002      274.841      169.820   186625.746    75537.362    28838.989       30.897       14.550      571.607      205.795        0.130      336.108        7.185      859.961
01/11/2014  19:26:00     -713.367     -412.853      -34.364      393.318      324.306      162.726   154699.364   105174.544    26479.593       48.339       14.318      824.220      191.262        0.054      336.088        7.152      859.912
01/11/2014  19:27:00     -720.165     -304.792       -9.274      385.699      246.080      139.174   148763.831    60555.565    19369.271       42.012       11.434      782.008      161.764        0.043      336.078        7.135      859.900
01/11/2014  19:28:00     -547.757     -316.836       -9.683      293.641      249.154      119.340    86225.193    62077.862    14241.917       28.150        8.127      632.790      124.257        0.039      336.079        7.137      859.906
01/11/2014  19:29:00     -511.721     -219.136        1.283      269.647      196.277      102.933    72709.672    38524.721    10595.136       21.583        6.091      556.667      116.663        0.044      336.056        7.098      859.941
01/11/2014  19:30:00     -551.567     -411.505        8.600      344.440      332.481      148.308   118638.942   110543.382    21995.205       36.236       12.559      688.158      178.057        0.067      336.076        7.132      859.862
01/11/2014  19:31:00     -676.420     -381.245      -14.107      402.652      293.919      140.209   162128.588    86388.623    19658.668       43.559       13.409      776.461      171.406        0.049      336.078        7.135      859.810
01/11/2014  19:32:00     -609.948     -359.017      -15.343      381.017      307.709      158.796   145174.138    94684.877    25216.045       38.308       13.254      707.764      197.290        0.078      336.088        7.152      859.804
01/11/2014  19:33:00     -612.276     -267.881       -8.656      379.898      256.955      143.753   144322.363    66025.953    20664.790       33.883       11.551      668.313      165.678        0.061      336.070        7.124      859.807
01/11/2014  19:34:00     -540.479     -158.855        4.684      297.268      171.851      127.725    88368.207    29532.907    16313.768       22.577        6.711      563.341      135.837        0.058      336.053        7.094      859.858
01/11/2014  19:35:00     -403.973     -150.838       20.392      279.090      227.084      135.492    77890.989    51567.356    18358.168       16.706        7.391      431.215      155.699        0.130      336.044        7.078      859.871
01/11/2014  19:36:00     -477.358     -393.992      -25.931      260.687      270.324      118.249    67957.532    73074.928    13982.942       26.937        7.751      618.951      122.833        0.039      336.040        7.073      859.808
01/11/2014  19:37:00     -691.219     -406.907      -11.969      420.433      269.794      151.788   176764.111    72788.746    23039.568       45.800       13.630      802.095      159.584        0.040      336.034        7.061      859.732
01/11/2014  19:38:00     -523.956     -315.020       22.066      317.698      306.521      135.434   100931.893    93954.997    18342.480       29.371       10.661      611.365      156.570        0.066      336.026        7.049      859.739
01/11/2014  19:39:00     -616.749     -364.740       -8.967      365.114      317.220      156.631   133308.545   100628.524    24533.297       38.594       12.924      716.530      200.591        0.078      336.028        7.052      859.744
01/11/2014  19:40:00     -588.604     -316.885      -16.723      282.957      257.596      122.871    80064.941    66355.932    15097.273       30.431        8.076      668.484      140.133        0.044      336.006        7.016      859.792
01/11/2014  19:41:00     -680.225     -367.409       -9.994      342.546      248.319      146.008   117337.537    61662.538    21318.446       39.902       10.016      773.108      173.972        0.051      336.003        7.010      859.791
01/11/2014  19:42:00     -597.011     -312.337      -15.807      371.770      311.879      133.871   138212.932    97268.567    17921.355       35.377       12.670      673.778      172.066        0.065      335.988        6.985      859.841
01/11/2014  19:43:00     -473.449     -212.523       -2.437      258.317      211.574      114.481    66727.738    44763.478    13106.008       19.694        6.230      518.960      117.131        0.051      335.974        6.961      859.939
01/11/2014  19:44:00     -416.204     -211.266       -3.759      215.056      179.909       93.296    46249.143    32367.384     8704.154       15.258        4.366      466.754       97.808        0.044      335.968        6.951      859.989
01/11/2014  19:45:00     -365.506     -212.979       -5.487      253.402      176.716      110.270    64212.674    31228.428    12159.510       14.327        5.380      423.031      108.256        0.065      335.939        6.904      859.988
01/11/2014  19:46:00     -446.305     -264.399       -3.588      297.984      183.989      114.470    88794.194    33851.797    13103.418       20.241        6.787      518.744      145.651        0.079      335.937        6.901      859.965
01/11/2014  19:47:00     -510.735     -320.055       14.220      370.217      277.310      170.907   137060.808    76900.943    29209.093       30.329       12.159      602.732      205.706        0.116      335.953        6.926      859.914
01/11/2014  19:48:00     -401.141     -324.221      -14.082      285.618      237.193      136.479    81577.437    56260.377    18626.606       21.132        7.823      515.784      147.475        0.082      335.949        6.919      860.002
01/11/2014  19:49:00     -528.903     -334.623      -12.461      340.079      272.476      126.505   115653.866    74243.177    16003.626       29.885       10.295      625.868      161.625        0.067      335.949        6.920      860.016
01/11/2014  19:50:00     -817.444     -466.805      -23.562      438.098      291.459      167.835   191929.838    84948.518    28168.676       59.581       15.252      941.340      193.952        0.042      335.990        6.988      859.889
01/11/2014  19:51:00     -665.245     -382.591      -12.069      377.408      259.774      153.093   142436.909    67482.323    23437.471       41.118       11.668      767.416      173.762        0.051      335.994        6.996      859.922
01/11/2014  19:52:00     -674.558     -424.401      -54.542      300.237      260.246      148.691    90142.515    67728.234    22108.967       40.902        8.999      796.960      154.101        0.037      335.981        6.973      860.012
01/11/2014  19:53:00     -511.409     -253.090        4.585      366.935      270.322      141.641   134641.181    73073.746    20062.230       27.666       11.389      570.608      181.975        0.102      335.956        6.932      860.052
01/11/2014  19:54:00     -641.972     -448.423       -8.028      358.723      228.587      141.586   128682.210    52251.931    20046.478       40.709       10.049      783.078      144.706        0.034      335.958        6.934      860.069
01/11/2014  19:55:00     -735.855     -391.467      -36.894      348.010      275.406      138.149   121111.208    75848.311    19085.111       45.603       10.802      833.504      171.201        0.042      335.937        6.899      860.116
01/11/2014  19:56:00     -511.025     -263.365      -19.240      240.856      194.121       98.767    58011.547    37683.137     9754.841       21.815        5.272      574.898      100.375        0.030      335.931        6.890      860.192
01/11/2014  19:57:00     -559.196     -288.472       -5.329      314.264      222.426      126.589    98761.636    49473.333    16024.780       28.007        8.213      629.219      133.041        0.045      335.923        6.877      860.203
01/11/2014  19:58:00     -791.289     -411.463      -39.581      392.625      264.802      143.431   154154.384    70120.182    20572.389       52.089       12.242      891.874      144.424        0.026      335.913        6.859      860.199
01/11/2014  19:59:00     -636.269     -379.532      -34.587      336.280      274.807      147.976   113084.379    75518.681    21896.936       38.025       10.525      740.866      165.757        0.050      335.896        6.831      860.170
01/11/2014  20:00:00     -504.705     -289.686        6.659      291.897      206.808      131.726    85203.783    42769.502    17351.866       24.198        7.266      581.933      153.925        0.070      335.882        6.808      860.205
01/11/2014  20:01:00     -586.631     -270.974       -4.502      389.432      286.648      133.318   151657.298    82166.860    17773.677       33.455       12.580      646.191      154.823        0.057      335.874        6.795      860.151
01/11/2014  20:02:00     -610.714     -329.738      -27.226      344.887      221.980      117.278   118946.795    49274.935    13754.059       33.218        9.099      694.045      142.294        0.042      335.861        6.774      860.101
01/11/2014  20:03:00     -449.484     -405.515       -9.961      303.944      217.168      138.745    92382.085    47161.836    19250.099       26.266        7.940      605.375      149.008        0.061      335.855        6.764      860.019
01/11/2014  20:04:00     -765.162     -322.953      -34.853      379.730      356.085      148.397   144195.135   126796.543    22021.599       49.195       14.651      830.525      152.593        0.034      335.844        6.743      859.952
01/11/2014  20:05:00     -329.835     -222.757       24.114      301.513      215.657      116.559    90909.963    46507.891    13586.046       15.497        7.550      398.010      125.409        0.099      335.849        6.753      859.974
01/11/2014  20:06:00     -591.750     -241.911       -3.635      318.924      245.389      122.993   101712.771    60215.775    15127.295       29.285        8.853      639.288      147.824        0.053      335.820        6.705      859.889
01/11/2014  20:07:00     -559.893     -376.643       -6.690      312.271      257.366      139.828    97513.372    66237.279    19551.865       31.931        9.165      674.789      144.172        0.046      335.810        6.689      859.838
01/11/2014  20:08:00     -501.941     -329.653      -21.008      266.270      216.146      104.508    70899.659    46718.969    10921.827       24.478        6.427      600.512      100.152        0.028      335.803        6.677      859.913
01/11/2014  20:09:00     -581.820     -453.287      -35.157      281.125      260.650      130.118    79031.018    67938.647    16930.782       35.453        8.195      737.553      140.143        0.036      335.821        6.707      859.952
01/11/2014  20:10:00     -851.728     -214.332      -33.159      411.987      310.691      139.146   169733.496    96528.737    19361.665       52.900       14.281      878.282      170.829        0.038      335.823        6.710      859.903
01/11/2014  20:11:00     -408.542     -287.517       -1.352      282.119      210.125      130.925    79591.338    44152.690    17141.355       19.521        7.044      499.573      131.384        0.069      335.828        6.719      860.007
01/11/2014  20:12:00     -588.683     -369.604       -9.047      329.360      257.339      125.672   108477.730    66223.323    15793.361       33.683        9.525      695.093      135.079        0.038      335.817        6.702      860.036
01/11/2014  20:13:00     -615.755     -438.716      -25.038      337.833      284.287      149.346   114130.877    80818.973    22304.363       39.472       10.863      756.059      168.409        0.050      335.872        6.792      859.975
01/11/2014  20:14:00     -440.778     -308.609      -17.634      235.185      191.193      107.600    55312.190    36554.708    11577.775       19.662        5.172      538.075       94.490        0.031      335.859        6.770      860.023
01/11/2014  20:15:00     -515.364     -330.339       13.882      313.045      247.222      133.937    97997.023    61118.881    17939.152       27.596        8.853      612.147      154.940        0.064      335.828        6.718      860.050
01/11/2014  20:16:00     -689.557     -383.062      -43.874      277.787      238.796      130.915    77165.842    57023.428    17138.806       38.771        7.566      788.813      130.097        0.027      335.864        6.777      859.999
01/11/2014  20:17:00     -715.430     -441.426      -10.685      322.867      308.606      146.219   104242.779    95237.710    21380.041       46.380       11.043      840.652      154.113        0.034      335.914        6.862      859.976
01/11/2014  20:18:00     -643.721     -480.552      -26.508      277.024      240.056      137.206    76742.121    57626.869    18825.374       39.958        7.660      803.310      135.111        0.028      335.927        6.883      859.946
01/11/2014  20:19:00     -433.746     -302.751      -21.697      270.632      219.591      118.028    73241.816    48220.406    13930.538       20.781        6.770      528.955      136.496        0.067      335.897        6.834      859.952
01/11/2014  20:20:00     -401.343     -198.217       -8.362      251.139      180.545      111.823    63070.588    32596.592    12504.468       15.429        5.409      447.623      133.519        0.089      335.861        6.773      859.973
01/11/2014  20:21:00     -452.691     -261.146       -9.610      217.974      187.868       94.078    47512.857    35294.313     8850.617       18.242        4.583      522.615      102.431        0.038      335.844        6.746      860.013
01/11/2014  20:22:00     -488.354     -255.094      -11.683      269.273      238.447      107.307    72507.766    56856.814    11514.795       22.227        7.044      550.965      118.784        0.046      335.847        6.750      860.040
01/11/2014  20:23:00     -461.876     -218.709      -11.553      356.970      206.588      115.197   127427.569    42678.568    13270.292       22.231        9.169      511.041      143.248        0.079      335.836        6.733      860.063
01/11/2014  20:24:00     -626.307     -375.874      -14.643      332.506      246.062      136.071   110560.198    60546.646    18515.394       36.166        9.481      730.439      155.488        0.045      335.821        6.705      860.091
01/11/2014  20:25:00     -628.294     -287.689      -20.986      306.189      241.829      130.808    93751.536    58481.192    17110.769       32.362        8.467      691.027      132.413        0.037      335.813        6.695      860.170
01/11/2014  20:26:00     -346.125     -270.703       -4.392      242.917      181.685      100.223    59008.634    33009.427    10044.665       14.757        5.103      439.411      120.702        0.075      335.782        6.641      860.341
01/11/2014  20:27:00     -700.945     -411.149      -32.783      294.011      246.347      125.780    86442.591    60686.673    15820.645       41.217        8.147      812.630      135.710        0.028      335.771        6.622      860.450
01/11/2014  20:28:00     -465.773     -263.356      -19.844      290.020      229.561      115.896    84111.736    52698.319    13431.996       21.844        7.512      535.071      119.650        0.050      335.760        6.605      860.541
01/11/2014  20:29:00     -447.522     -205.524        0.527      253.073      214.174      107.319    64045.696    45870.386    11517.360       18.195        6.072      492.459      131.368        0.071      335.732        6.558      860.688
01/11/2014  20:30:00     -555.274     -338.578      -15.528      322.972      249.559      137.088   104310.682    62279.825    18793.209       30.426        9.269      650.357      147.929        0.052      335.716        6.533      860.741
01/11/2014  20:31:00     -339.752      -96.959        3.125      239.226      238.089      104.919    57228.860    56686.550    11007.935       12.486        6.246      353.316      120.138        0.116      335.686        6.482      860.869
01/11/2014  20:32:00     -574.369     -219.507      -12.993      334.567      313.283      152.796   111934.864    98146.333    23346.477       30.580       11.671      614.884      166.380        0.073      335.627        6.384      860.947
01/11/2014  20:33:00     -510.476     -317.863        2.549      483.782      325.272      180.217   234045.349   105801.984    32478.120       36.692       18.616      601.351      216.663        0.130      335.609        6.354      861.066
01/11/2014  20:34:00     -604.602      -97.330      -27.581      243.636      242.379       98.733    59358.512    58747.718     9748.199       25.179        6.393      612.386      106.909        0.030      335.568        6.285      861.257
01/11/2014  20:35:00     -568.925      -69.935      -19.989      230.562      217.103      103.559    53158.744    47133.794    10724.522       21.997        5.551      573.207      105.870        0.034      335.547        6.249      861.393
01/11/2014  20:36:00     -593.355        3.271      -32.892      225.307      168.099       89.943    50763.394    28257.302     8089.721       22.012        4.356      593.364       98.938        0.028      335.518        6.201      861.434
01/11/2014  20:37:00     -637.071      -95.472      -38.071      307.010      251.871      109.673    94254.953    63438.792    12028.151       29.304        8.486      644.185      134.417        0.044      335.459        6.104      861.446
01/11/2014  20:38:00     -636.083     -147.280      -29.260      263.411      187.770      111.790    69385.257    35257.677    12497.032       27.213        5.857      652.912      121.349        0.035      335.451        6.092      861.419
01/11/2014  20:39:00     -565.774      -66.861      -30.808      222.033      183.945      107.940    49298.875    33835.886    11651.120       21.014        4.739      569.711      109.290        0.037      335.459        6.103      861.438
01/11/2014  20:40:00     -447.203     -100.886       -4.352      275.635      222.766      112.351    75974.547    49624.851    12622.673       17.418        6.911      458.441      133.587        0.085      335.449        6.087      861.444
01/11/2014  20:41:00     -548.251      -41.910      -12.376      278.631      170.076       88.380    77635.454    28925.987     7811.040       20.841        5.719      549.851      102.354        0.035      335.459        6.104      861.464
01/11/2014  20:42:00     -554.907      -72.214      -17.877      197.722      137.770       78.851    39093.848    18980.521     6217.438       18.886        3.215      559.587       87.537        0.024      335.417        6.033      861.484
01/11/2014  20:43:00     -334.099     -129.201      -21.898      186.884      145.713       83.572    34925.576    21232.320     6984.248        9.596        3.157      358.210       80.219        0.050      335.378        5.968      861.508
01/11/2014  20:44:00     -594.998      -92.883      -28.200      243.579      165.417       97.383    59330.641    27362.918     9483.451       22.979        4.809      602.204      101.740        0.029      335.406        6.014      861.464
01/11/2014  20:45:00     -421.516      -45.836      -23.275      163.587      136.245       80.000    26760.601    18562.663     6399.927       11.601        2.586      424.001       81.171        0.037      335.362        5.942      861.500
01/11/2014  20:46:00     -411.049      -72.686      -20.278      190.858      162.224       80.444    36426.620    26316.693     6471.240       12.192        3.461      417.427       84.669        0.041      335.319        5.870      861.558
01/11/2014  20:47:00     -319.938      -19.711      -11.612      143.291      136.412       65.997    20532.363    18608.323     4355.551        7.318        2.175      320.544       56.253        0.031      335.301        5.839      861.612
01/11/2014  20:48:00     -356.919      -68.314      -23.707      168.474       92.101       56.565    28383.357     8482.674     3199.612        8.634        2.003      363.397       75.541        0.043      335.285        5.815      861.610
01/11/2014  20:49:00     -355.571      -73.137      -20.062      164.260      122.130       74.924    26981.220    14915.855     5613.618        8.984        2.376      363.014       75.488        0.043      335.304        5.845      861.592
01/11/2014  20:50:00     -493.260       -5.913      -23.266      216.226      154.034       98.565    46753.765    23726.467     9715.146       16.203        4.010      493.295      108.839        0.049      335.366        5.949      861.595
01/11/2014  20:51:00     -338.622       -1.305      -32.207      139.949      128.783       67.041    19585.843    16585.108     4494.469        7.818        2.033      338.625       69.403        0.042      335.344        5.910      861.604
01/11/2014  20:52:00     -387.184     -106.554      -21.067      214.377      212.059       78.732    45957.581    44968.927     6198.662       12.940        4.856      401.578       98.993        0.061      335.388        5.984      861.632
01/11/2014  20:53:00     -312.826      -60.695        7.799      136.624      133.809       75.005    18666.207    17904.732     5625.759        7.189        2.110      318.660       67.396        0.045      335.397        5.999      861.708
01/11/2014  20:54:00     -202.408      -56.151       -0.339      152.534      130.842       66.212    23266.584    17119.660     4384.088        4.444        2.239      210.052       78.149        0.138      335.403        6.011      861.761
01/11/2014  20:55:00     -351.922      -35.805        3.675      233.795      142.946       77.989    54659.956    20433.694     6082.236       10.315        4.059      353.739      101.128        0.082      335.420        6.039      861.753
01/11/2014  20:56:00     -357.741     -161.528      -15.354      177.444      107.101       76.045    31486.356    11470.555     5782.831       10.151        2.437      392.518       75.388        0.037      335.450        6.090      861.766
01/11/2014  20:57:00     -281.227       16.992      -10.952      169.414      151.656       73.026    28701.269    22999.405     5332.845        6.826        2.852      281.739       87.222        0.096      335.422        6.042      861.808
01/11/2014  20:58:00     -171.655      -77.992        8.896      160.174      110.883       73.920    25655.729    12294.986     5464.116        3.951        2.171      188.542       80.628        0.183      335.448        6.087      861.814
01/11/2014  20:59:00     -432.896      -24.620      -26.840      176.709      131.053       67.624    31226.150    17174.830     4572.984       12.084        2.649      433.595       76.971        0.032      335.472        6.123      861.867
01/11/2014  21:00:00     -431.734      -62.384      -28.383      164.387      136.518       74.708    27023.171    18637.082     5581.334       12.116        2.562      436.218       72.410        0.028      335.475        6.130      861.933
01/11/2014  21:01:00     -200.309      -97.368       20.547      197.772      149.944       95.086    39113.893    22483.099     9041.364        6.032        3.532      222.720       99.462        0.199      335.472        6.125      861.876
01/11/2014  21:02:00     -357.821      -89.335       -2.118      208.789      164.659       85.802    43592.829    27112.447     7361.907       10.703        3.903      368.804       92.704        0.063      335.508        6.185      861.862
01/11/2014  21:03:00     -460.734     -107.568      -14.265      191.140      162.983       84.806    36534.410    26563.328     7192.139       14.716        3.514      473.124       89.839        0.036      335.526        6.215      861.859
01/11/2014  21:04:00     -514.676      -65.032      -36.685      182.020      160.191       81.755    33131.456    25661.092     6683.865       16.796        3.274      518.768       82.353        0.025      335.565        6.279      861.887
01/11/2014  21:05:00     -573.474     -139.516      -21.315      185.044      137.111       84.679    34241.391    18799.311     7170.537       20.449        3.011      590.201       79.657        0.018      335.552        6.259      861.958
01/11/2014  21:06:00     -411.142      -70.991      -16.407      232.367      187.537       82.835    53994.447    35170.068     6861.662       13.517        4.801      417.226       90.917        0.047      335.620        6.373      861.892
01/11/2014  21:07:00     -313.887     -113.114        0.097      196.896      142.174       71.661    38768.048    20213.551     5135.284        8.771        3.206      333.647       70.254        0.044      335.582        6.310      861.943
01/11/2014  21:08:00     -385.637      -35.247      -25.120      153.220      126.511       62.725    23476.519    16005.041     3934.477        9.700        2.171      387.244       64.740        0.028      335.547        6.250      862.058
01/11/2014  21:09:00     -360.793      -89.223      -14.596      150.877      109.924       73.853    22763.945    12083.356     5454.192        8.932        2.015      371.661       81.057        0.048      335.538        6.234      862.153
01/11/2014  21:10:00     -296.616     -271.463        9.561      183.679      161.825       96.515    33738.012    26187.208     9315.240       11.549        3.462      402.086      105.391        0.069      335.601        6.341      862.184
01/11/2014  21:11:00     -337.556      -22.178      -24.071      115.112      126.134       55.640    13250.810    15909.884     3095.838        7.363        1.613      338.284       53.597        0.025      335.505        6.180      862.236
01/11/2014  21:12:00     -395.183       -5.016      -23.157      139.474      123.948       59.282    19453.067    15363.177     3514.331        9.752        1.917      395.215       52.133        0.017      335.499        6.171      862.232
01/11/2014  21:13:00     -347.293      -88.678       -4.355      191.621      132.754       73.132    36718.676    17623.647     5348.347        9.408        2.985      358.436       95.930        0.072      335.511        6.191      862.165
01/11/2014  21:14:00     -383.744      -93.221      -23.801      121.965      111.350       62.141    14875.545    12398.795     3861.517        9.382        1.557      394.904       56.669        0.021      335.534        6.228      862.158
01/11/2014  21:15:00     -534.663     -129.221      -11.651      233.350      195.620       98.931    54452.014    38267.322     9787.357       20.259        5.125      550.057      105.836        0.037      335.598        6.334      862.122
01/11/2014  21:16:00     -368.043     -134.276       -6.984      185.022      142.407       76.890    34233.274    20279.820     5912.007       10.697        3.021      391.772       88.668        0.051      335.581        6.307      862.129
01/11/2014  21:17:00     -465.804      -33.156      -16.763      236.366      177.446      108.222    55869.023    31487.183    11712.101       15.869        4.953      466.982       98.858        0.045      335.595        6.330      862.107
01/11/2014  21:18:00     -355.105      -90.554      -15.830      243.635      171.054       85.831    59357.859    29259.385     7367.031       11.525        4.799      366.469      108.980        0.088      335.559        6.269      862.059
01/11/2014  21:19:00     -256.630      -73.525        1.838      174.089      174.420       89.467    30307.144    30422.222     8004.280        6.999        3.437      266.955       89.871        0.113      335.559        6.271      862.067
01/11/2014  21:20:00     -340.182     -113.924       -6.615      189.108      189.300       91.729    35761.704    35834.380     8414.221       10.437        4.001      358.752      107.355        0.090      335.555        6.265      862.073
01/11/2014  21:21:00     -231.687     -100.656       12.272      163.902      166.291       86.705    26863.997    27652.742     7517.842        6.299        3.102      252.607       76.109        0.091      335.550        6.256      862.067
01/11/2014  21:22:00     -445.962      -88.007       -3.416      201.894      177.735       80.368    40761.322    31589.890     6459.005       14.271        3.941      454.563       62.052        0.019      335.557        6.266      862.084
01/11/2014  21:23:00     -319.402      -89.989       -3.111      166.707      176.034       84.388    27791.210    30987.831     7121.397        8.800        3.295      331.837       91.177        0.075      335.515        6.197      862.095
01/11/2014  21:24:00     -277.302     -116.049       -6.073      149.325      120.903       67.036    22297.860    14617.615     4493.845        6.590        2.070      300.606       68.972        0.053      335.518        6.203      862.065
01/11/2014  21:25:00     -202.766     -119.711        9.926      153.445      131.340       78.021    23545.444    17250.071     6087.199        5.121        2.344      235.467       83.569        0.126      335.484        6.146      862.089
01/11/2014  21:26:00     -290.600      -14.965        3.868      166.687      122.719       67.026    27784.654    15059.854     4492.487        6.600        2.367      290.985       76.703        0.069      335.452        6.090      862.106
01/11/2014  21:27:00     -326.075      -39.053      -13.812      144.588      147.929       77.507    20905.831    21883.065     6007.265        7.841        2.440      328.406       68.478        0.043      335.491        6.157      862.148
01/11/2014  21:28:00     -464.070      -36.327      -35.434      180.907      103.891       68.603    32727.442    10793.377     4706.327       13.307        2.411      465.489       81.107        0.030      335.501        6.173      862.184
01/11/2014  21:29:00     -380.108      -66.442      -29.280      167.080      139.986       82.459    27915.577    19596.201     6799.490       10.202        2.716      385.871       66.058        0.029      335.537        6.233      862.208
01/11/2014  21:30:00     -347.306       -9.984      -10.804      217.752      129.816       83.530    47416.027    16852.291     6977.324        9.603        3.562      347.449      101.683        0.086      335.521        6.207      862.262
01/11/2014  21:31:00     -279.478      -91.238       -6.265      128.828      174.212       72.523    16596.734    30349.779     5259.618        6.933        2.610      293.994       70.550        0.058      335.510        6.189      862.303
01/11/2014  21:32:00     -342.556     -261.589        3.935      254.039      185.080      114.656    64535.834    34254.460    13146.079       14.884        5.597      431.015      128.788        0.089      335.539        6.237      862.289
01/11/2014  21:33:00     -543.753     -202.545      -30.757      229.215      149.484       90.546    52539.502    22345.562     8198.506       21.035        4.154      580.251      102.832        0.031      335.534        6.228      862.280
01/11/2014  21:34:00     -242.302      -39.998        6.847      179.792      153.955       77.351    32325.044    23702.100     5983.246        6.117        3.101      245.581       80.260        0.107      335.477        6.134      862.299
01/11/2014  21:35:00     -310.980      -39.496       -8.890      202.856      197.705       92.358    41150.518    39087.194     8529.915        9.354        4.438      313.478       99.213        0.100      335.525        6.213      862.276
01/11/2014  21:36:00     -299.323     -110.343       -5.198      248.255      188.976       91.310    61630.755    35711.974     8337.541       10.372        5.284      319.014      102.334        0.103      335.525        6.214      862.266
01/11/2014  21:37:00     -338.517      -12.882        3.323      185.786      158.642       95.562    34516.454    25167.421     9132.190        9.178        3.441      338.762      105.206        0.096      335.507        6.184      862.239
01/11/2014  21:38:00     -493.421     -107.372      -29.922      221.520      245.676      111.929    49070.904    60356.634    12528.044       18.890        6.098      504.968      122.309        0.059      335.535        6.230      862.209
01/11/2014  21:39:00     -372.104      -57.738      -15.571      198.384      173.575       83.205    39356.364    30128.321     6923.085       10.921        3.820      376.557       93.582        0.062      335.503        6.175      862.159
01/11/2014  21:40:00     -193.879      -93.486        5.446      226.732      159.408      102.636    51407.555    25411.009    10534.076        6.684        4.368      215.241      108.190        0.253      335.515        6.198      862.114
01/11/2014  21:41:00     -277.430      -95.467       16.138      236.457      165.612       95.645    55912.113    27427.367     9147.991        8.940        4.624      293.396      117.688        0.161      335.484        6.145      862.150
01/11/2014  21:42:00     -357.761     -101.984        0.867      193.609      143.955       88.385    37484.611    20723.029     7811.937       10.220        3.301      372.013       97.716        0.069      335.489        6.154      862.180
01/11/2014  21:43:00     -457.012       52.301      -23.461      195.045      193.885      102.324    38042.443    37591.334    10470.135       14.911        4.305      459.995      106.773        0.054      335.466        6.115      862.209
01/11/2014  21:44:00     -295.573      -72.677       -4.368      175.154      160.498       87.350    30679.016    25759.642     7630.046        7.836        3.203      304.377       97.507        0.103      335.440        6.071      862.190
01/11/2014  21:45:00     -637.994     -230.114       -7.138      357.720      311.898      151.606   127963.286    97280.181    22984.393       35.409       12.411      678.225      169.639        0.063      335.511        6.190      862.078
01/11/2014  21:46:00     -666.510     -389.631       -2.236      344.944      250.886      143.376   118986.249    62943.880    20556.765       39.924       10.124      772.041      157.739        0.042      335.577        6.300      862.047
01/11/2014  21:47:00     -518.864     -275.660      -18.122      278.040      225.861      138.552    77306.349    51013.181    19196.651       24.650        7.376      587.544      128.883        0.048      335.582        6.308      862.046
01/11/2014  21:48:00     -584.859     -337.921       -8.094      307.002      216.025      136.641    94250.492    46666.834    18670.813       30.793        7.979      675.464      147.923        0.048      335.586        6.316      862.033
01/11/2014  21:49:00     -328.269     -148.608      -10.154      349.245      202.801      140.047   121971.850    41128.440    19613.265       15.630        9.136      360.340      164.964        0.210      335.562        6.275      862.101
01/11/2014  21:50:00     -400.538     -102.135       -9.528      338.535      240.144      135.912   114606.212    57669.094    18471.994       18.082        9.537      413.355      174.916        0.179      335.541        6.240      862.149
01/11/2014  21:51:00     -597.989      -73.914      -26.566      342.795      216.937      132.347   117508.326    47061.559    17515.824       27.289        9.104      602.540      166.462        0.076      335.504        6.179      862.230
01/11/2014  21:52:00     -469.908     -105.830      -18.211      393.004      209.968      122.289   154452.022    44086.417    14954.707       22.288       10.675      481.678      173.614        0.130      335.506        6.183      862.204
01/11/2014  21:53:00     -491.679      -84.060      -22.224      342.570      203.691      138.684   117354.313    41490.074    19233.171       21.366        8.904      498.813      156.618        0.099      335.489        6.154      862.211
01/11/2014  21:54:00     -535.233      -53.009      -13.260      405.411      234.794      124.213   164358.251    55128.253    15428.874       26.215       11.746      537.852      154.797        0.083      335.485        6.146      862.118
01/11/2014  21:55:00     -439.551     -104.966        0.164      288.657      216.161      117.726    83322.917    46725.546    13859.294       17.404        7.195      451.911      139.544        0.095      335.514        6.195      862.130
01/11/2014  21:56:00     -441.850     -128.381      -13.149      280.952      202.917      106.688    78934.299    41175.431    11382.328       17.167        6.575      460.123      135.351        0.087      335.481        6.140      862.128
01/11/2014  21:57:00     -512.080      -81.263      -25.704      186.329      161.266       87.355    34718.514    26006.573     7630.839       16.891        3.418      518.487       91.738        0.031      335.452        6.091      862.081
01/11/2014  21:58:00     -431.585     -109.251      -13.291      338.626      186.071       98.134   114667.309    34622.417     9630.212       17.862        7.946      445.198      112.346        0.064      335.433        6.061      862.058
01/11/2014  21:59:00     -261.393     -130.779        2.457      224.223      147.411       99.198    50275.957    21730.109     9840.196        8.363        4.092      292.283      117.517        0.162      335.431        6.057      862.077
01/11/2014  22:00:00     -328.144     -110.591       -3.822      185.985      125.374       69.154    34590.333    15718.533     4782.312        8.750        2.755      346.279       64.886        0.035      335.395        5.997      862.135
01/11/2014  22:01:00     -467.646     -124.652      -22.376      234.952      207.928      100.937    55202.385    43233.993    10188.336       17.166        5.431      483.974       93.765        0.038      335.389        5.987      862.105
01/11/2014  22:02:00     -525.040     -109.150       17.436      397.753      235.500      133.781   158207.787    55460.284    17897.320       25.969       11.578      536.266      163.078        0.092      335.455        6.096      862.112
01/11/2014  22:03:00     -368.972     -162.650      -16.879      296.253      163.601       99.523    87765.743    26765.343     9904.742       14.364        6.222      403.231      112.316        0.078      335.477        6.133      862.137
01/11/2014  22:04:00     -600.035      -89.458      -19.136      246.098      210.869      109.890    60564.118    44465.933    12075.855       24.274        5.855      606.667      113.119        0.035      335.424        6.046      862.230
01/11/2014  22:05:00     -442.687     -125.542      -19.253      236.758      179.511      106.629    56054.260    32224.227    11369.689       15.586        4.982      460.144      120.125        0.068      335.436        6.065      862.190
01/11/2014  22:06:00     -295.391      -45.394       -0.648      240.715      140.399       79.584    57943.476    19711.780     6333.599        8.664        4.199      298.858      104.173        0.122      335.401        6.007      862.248
01/11/2014  22:07:00     -345.260      -69.142      -22.613      130.171      122.203       62.117    16944.432    14933.453     3858.474        8.011        1.787      352.115       61.199        0.030      335.372        5.958      862.268
01/11/2014  22:08:00     -291.289     -138.531      -15.826      137.504      160.810       74.314    18907.251    25859.783     5522.528        7.728        2.514      322.552       67.500        0.044      335.329        5.885      862.298
01/11/2014  22:09:00     -317.579     -133.353       -8.329      218.068      179.883       86.692    47553.860    32357.903     7515.566       10.305        4.371      344.441       94.652        0.076      335.325        5.880      862.319
01/11/2014  22:10:00     -439.668      -69.665       -4.671      170.910      198.811       70.379    29210.302    39525.664     4953.266       13.592        3.684      445.153       64.363        0.021      335.297        5.833      862.351
01/11/2014  22:11:00     -462.318       -7.785      -28.988      191.994      165.750       99.863    36861.515    27473.123     9972.537       14.446        3.715      462.383       88.503        0.037      335.317        5.866      862.347
01/11/2014  22:12:00     -517.952      -45.079      -19.328      216.388      167.205       93.729    46823.848    27957.380     8785.062       17.711        4.178      519.910      106.985        0.042      335.315        5.863      862.338
01/11/2014  22:13:00     -326.578      -87.868       -0.998      190.918      156.616       94.689    36449.836    24528.688     8966.076        9.215        3.497      338.193      104.626        0.096      335.285        5.812      862.374
01/11/2014  22:14:00     -312.110      -72.622       -8.403      183.129      158.515       90.914    33536.369    25127.005     8265.284        8.483        3.346      320.448      103.140        0.104      335.259        5.770      862.445
01/11/2014  22:15:00      -96.664       20.600       41.552      191.703      138.982       68.195    36750.115    19316.119     4650.505        3.610        3.036       98.835       84.542        0.732      335.260        5.773      862.463
01/11/2014  22:16:00     -204.210       23.673       -4.780      138.314      107.166       60.236    19130.883    11484.650     3628.350        3.826        1.712      205.578       62.419        0.092      335.231        5.725      862.481
01/11/2014  22:17:00     -350.510      -89.254      -14.944      168.543      142.930       68.011    28406.698    20428.974     4625.438        9.225        2.673      361.695       74.086        0.042      335.243        5.742      862.492
01/11/2014  22:18:00     -214.861      -63.126       10.725      159.173      129.178       70.829    25335.997    16686.888     5016.750        4.864        2.352      223.943       71.590        0.102      335.243        5.746      862.505
01/11/2014  22:19:00     -488.858       53.050      -38.236      229.550      199.060       81.563    52693.092    39624.791     6652.545       17.110        4.949      491.728       86.448        0.031      335.248        5.752      862.534
01/11/2014  22:20:00     -344.170     -188.542       -0.418      178.592      156.089       90.097    31895.223    24363.871     8117.505       10.918        3.219      392.430       97.935        0.062      335.237        5.732      862.567
01/11/2014  22:21:00     -279.932     -121.565       -5.360      166.475      130.845       73.223    27713.912    17120.493     5361.590        7.167        2.510      305.188       59.309        0.038      335.232        5.726      862.591
01/11/2014  22:22:00     -311.254     -105.995       -7.747      170.242      113.235       70.905    28982.321    12822.132     5027.495        7.750        2.342      328.807       59.313        0.033      335.226        5.715      862.628
01/11/2014  22:23:00     -224.091      -71.482       17.273      168.738      142.390       79.943    28472.671    20275.047     6390.871        5.537        2.757      235.216       93.382        0.158      335.211        5.692      862.622
01/11/2014  22:24:00     -526.906     -175.307       -9.556      274.665      189.354      108.773    75440.895    35855.056    11831.512       21.577        6.156      555.304      123.083        0.049      335.268        5.786      862.615
01/11/2014  22:25:00     -358.141      -97.901       -6.776      224.662      126.036       68.468    50472.822    15885.174     4687.877       10.446        3.552      371.281       87.945        0.056      335.230        5.723      862.664
01/11/2014  22:26:00     -362.456      -96.363        5.368      202.881      130.772       82.281    41160.863    17101.336     6770.129       10.285        3.252      375.047       96.264        0.066      335.240        5.738      862.718
01/11/2014  22:27:00     -292.890       -4.289       -8.438      208.829      150.124       87.767    43609.497    22537.311     7702.973        7.985        3.692      292.922       92.359        0.099      335.260        5.772      862.712
01/11/2014  22:28:00     -178.476      -22.697       20.944      213.998      149.714       86.315    45794.969    22414.340     7450.285        5.422        3.783      179.914      101.611        0.319      335.257        5.767      862.717
01/11/2014  22:29:00     -426.594      -19.955      -25.751      143.084      130.076       80.382    20473.093    16919.646     6461.288       11.344        2.193      427.060       84.354        0.039      335.266        5.781      862.772
01/11/2014  22:30:00     -334.693     -138.918      -15.941      136.815      101.035       60.268    18718.339    10207.986     3632.244        8.206        1.628      362.377       58.372        0.026      335.256        5.764      862.833
01/11/2014  22:31:00     -383.941      -56.635      -20.907      168.711      156.058       64.351    28463.238    24353.944     4141.050       10.400        2.848      388.095       63.670        0.027      335.267        5.784      862.888
01/11/2014  22:32:00     -327.946       -3.101       -6.755      176.156      147.184       79.178    31030.853    21663.030     6269.178        8.327        2.948      327.961      100.006        0.093      335.256        5.765      862.940
01/11/2014  22:33:00     -342.686     -110.340      -18.204      190.567      149.972       80.132    36315.748    22491.559     6421.217        9.757        3.261      360.012       83.612        0.054      335.276        5.798      862.962
01/11/2014  22:34:00     -316.773     -112.075        1.026      168.319      129.639       69.086    28331.445    16806.367     4772.834        8.140        2.496      336.015       57.205        0.029      335.235        5.729      863.018
01/11/2014  22:35:00     -210.340      -67.100       -8.160      165.537      102.708       58.110    27402.347    10548.997     3376.814        4.506        2.066      220.783       72.247        0.107      335.263        5.777      863.066
01/11/2014  22:36:00     -369.197      -90.284      -11.579      183.091       95.648       65.975    33522.176     9148.624     4352.657        9.580        2.351      380.076       70.968        0.035      335.243        5.745      863.137
01/11/2014  22:37:00     -417.464      -25.908      -28.982      170.633      146.263       78.813    29115.775    21392.866     6211.449       11.624        2.836      418.267       86.059        0.042      335.270        5.789      863.182
01/11/2014  22:38:00     -442.132     -171.127      -23.359      228.200      185.706      110.304    52075.139    34486.729    12167.044       16.200        4.936      474.094      110.837        0.055      335.335        5.897      863.183
01/11/2014  22:39:00     -296.514        7.029      -25.066       82.279      106.587       45.070     6769.800    11360.824     2031.278        5.438        1.008      296.597       25.623        0.007      335.274        5.793      863.239
01/11/2014  22:40:00     -416.297      -93.008       -5.700      156.605      107.264       79.109    24525.071    11505.463     6258.282       11.213        2.114      426.560       75.034        0.031      335.234        5.728      863.264
01/11/2014  22:41:00     -376.801     -105.347      -20.751      155.977      130.348       72.321    24328.768    16990.660     5230.263       10.002        2.327      391.251       69.008        0.031      335.250        5.755      863.244
01/11/2014  22:42:00     -284.008      -21.077       -7.889      167.567      136.810       66.090    28078.753    18717.003     4367.899        6.616        2.558      284.789       75.383        0.070      335.265        5.780      863.243
01/11/2014  22:43:00     -545.923     -183.896      -45.407      258.903      161.255       86.565    67030.616    26003.308     7493.549       21.720        5.026      576.064      119.442        0.043      335.285        5.814      863.243
01/11/2014  22:44:00     -274.148     -117.441       -3.549      137.074      126.348       63.628    18789.202    15963.783     4048.558        6.388        1.940      298.244       72.586        0.059      335.242        5.741      863.286
01/11/2014  22:45:00     -238.175     -147.240       -0.753      127.292      111.522       54.852    16203.328    12437.230     3008.708        5.502        1.582      280.013       65.700        0.055      335.217        5.701      863.298
01/11/2014  22:46:00     -278.863      -85.610      -15.222      145.034      132.444       67.185    21034.768    17541.427     4513.867        6.420        2.155      291.708       57.128        0.038      335.216        5.698      863.307
01/11/2014  22:47:00     -309.572     -141.965       -7.047      164.047      103.869       61.381    26911.394    10788.702     3767.667        7.875        2.073      340.572       66.080        0.038      335.212        5.691      863.333
01/11/2014  22:48:00     -247.383      -34.962        4.696      177.376      119.349       69.772    31462.146    14244.143     4868.071        5.650        2.529      249.842       86.635        0.120      335.192        5.660      863.383
01/11/2014  22:49:00     -425.817     -117.492      -24.052      127.737      105.504       61.264    16316.655    11131.167     3753.311       11.345        1.560      441.729       58.815        0.018      335.204        5.679      863.402
01/11/2014  22:50:00     -324.493      -82.880       -6.049      153.434      105.400       51.390    23541.915    11109.099     2640.978        7.474        1.865      334.910       60.035        0.032      335.192        5.659      863.404
01/11/2014  22:51:00     -467.251      -84.449      -22.298      124.936      131.565       62.444    15608.889    17309.467     3899.218       13.138        1.841      474.821       64.744        0.019      335.214        5.696      863.419
01/11/2014  22:52:00     -324.663     -133.546       -9.648      169.939      119.239       66.051    28879.291    14217.958     4362.791        8.539        2.373      351.056       71.060        0.041      335.230        5.722      863.395
01/11/2014  22:53:00     -275.524      -29.099      -11.922      112.945      152.507       64.474    12756.576    23258.385     4156.886        5.853        2.009      277.056       57.803        0.044      335.170        5.623      863.426
01/11/2014  22:54:00     -410.594      -55.071      -27.139      139.063      135.240       59.967    19338.575    18289.894     3596.023       10.678        2.061      414.271       59.671        0.021      335.157        5.602      863.410
01/11/2014  22:55:00     -357.462      -31.713      -17.494      150.879      124.516       69.531    22764.493    15504.163     4834.568        8.609        2.155      358.866       75.960        0.045      335.165        5.615      863.413
01/11/2014  22:56:00     -415.569     -118.382      -11.404      151.558      109.263       64.410    22969.842    11938.448     4148.665       11.294        1.953      432.102       69.030        0.026      335.140        5.575      863.401
01/11/2014  22:57:00     -344.668      -99.868       -5.190      140.859      103.329       59.041    19841.390    10676.959     3485.890        8.139        1.700      358.845       50.579        0.020      335.122        5.545      863.405
01/11/2014  22:58:00     -498.703     -148.503      -23.773      142.923      113.719       72.732    20426.882    12932.035     5290.000       15.498        1.932      520.344       66.653        0.016      335.183        5.646      863.391
01/11/2014  22:59:00     -312.981     -121.595        0.283      168.239       94.197       53.791    28304.211     8872.990     2893.473        7.640        2.004      335.772       55.991        0.028      335.129        5.558      863.398
01/11/2014  23:00:00     -115.401      -19.756        4.343       92.348       76.572       46.900     8528.221     5863.335     2199.588        1.516        0.830      117.080       48.111        0.169      335.081        5.480      863.445
01/11/2014  23:01:00     -131.076        2.807      -11.010       70.757       48.121       28.446     5006.534     2315.648      809.179        1.272        0.407      131.106       20.181        0.024      335.063        5.450      863.458
01/11/2014  23:02:00     -185.071       -2.167      -20.709       61.772       59.631       35.795     3815.768     3555.836     1281.285        2.167        0.433      185.084       31.543        0.029      335.053        5.431      863.479
01/11/2014  23:03:00     -172.840      -66.118      -12.462       72.653       68.981       39.074     5278.395     4758.336     1526.816        2.298        0.578      185.054       38.436        0.043      335.018        5.372      863.500
01/11/2014  23:04:00      -62.600       98.528       -1.360       70.179      125.985       43.807     4925.122    15872.139     1919.080        1.817        1.136      116.733       41.274        0.125      334.994        5.333      863.509
01/11/2014  23:05:00      -88.727      -10.422       -6.994       69.376       56.436       34.131     4813.071     3185.009     1164.917        0.859        0.458       89.337       27.490        0.095      335.015        5.369      863.544
01/11/2014  23:06:00     -233.218      -43.465      -28.950      118.373       80.886       39.267    14012.082     6542.520     1541.918        3.960        1.105      237.234       48.485        0.042      335.046        5.419      863.585
01/11/2014  23:07:00     -107.604       17.284      -11.192       49.883       54.928       34.365     2488.313     3017.054     1180.946        0.934        0.334      108.983       17.621        0.026      335.030        5.395      863.619
01/11/2014  23:08:00     -161.108       33.667      -26.296       84.973       64.788       41.954     7220.449     4197.430     1760.157        2.048        0.659      164.588       34.905        0.045      334.970        5.293      863.652
01/11/2014  23:09:00     -154.326      -52.097      -15.182       64.582       70.081       26.610     4170.860     4911.293      708.113        1.827        0.490      162.883       26.036        0.026      334.963        5.282      863.647
01/11/2014  23:10:00     -226.911      -54.220      -19.784       96.441       86.390       41.816     9300.934     7463.149     1748.564        3.666        0.926      233.299       28.324        0.015      334.936        5.237      863.667
01/11/2014  23:11:00     -146.462      -72.342       -7.342       81.268       68.401       45.473     6604.550     4678.760     2067.794        2.004        0.668      163.354       34.744        0.045      334.937        5.238      863.686
01/11/2014  23:12:00     -145.797      -40.562      -13.818       84.811      105.473       51.775     7192.907    11124.650     2680.624        2.204        1.050      151.334       37.570        0.062      334.953        5.265      863.693
01/11/2014  23:13:00     -152.034      -14.334      -12.029       92.264      111.114       53.546     8512.592    12346.334     2867.203        2.359        1.186      152.708       49.826        0.106      334.954        5.265      863.700
01/11/2014  23:14:00     -156.092      -32.776      -10.413       81.331       67.931       49.368     6614.798     4614.626     2437.229        1.960        0.683      159.496       45.007        0.080      334.953        5.265      863.682
01/11/2014  23:15:00     -326.011      -11.560      -56.075      109.003       96.779       55.903    11881.557     9366.214     3125.168        6.696        1.219      326.216       41.633        0.016      334.993        5.329      863.701
01/11/2014  23:16:00     -192.459      -15.508      -27.339      115.485       77.318       44.469    13336.695     5978.134     1977.498        2.966        1.065      193.083       31.805        0.027      334.974        5.300      863.678
01/11/2014  23:17:00     -261.207      -49.171      -29.926       89.259       85.613       36.323     7967.092     7329.605     1319.338        4.408        0.831      265.795       27.831        0.011      334.934        5.231      863.683
01/11/2014  23:18:00     -299.382      -85.543      -17.930      101.205       76.532       44.120    10242.409     5857.121     1946.580        5.765        0.902      311.363       32.917        0.011      334.907        5.187      863.667
01/11/2014  23:19:00     -207.721     -104.850       -3.668       82.231       56.895       43.610     6762.018     3237.035     1901.800        3.303        0.595      232.683       31.891        0.019      334.856        5.102      863.648
01/11/2014  23:20:00     -256.389      -69.292      -16.689       68.533       57.672       37.146     4696.826     3326.056     1379.817        4.011        0.470      265.587       33.881        0.016      334.848        5.088      863.617
01/11/2014  23:21:00     -288.764      -60.410      -17.982       91.801      100.006       48.264     8427.442    10001.247     2329.395        5.405        1.038      295.015       47.945        0.026      334.854        5.097      863.582
01/11/2014  23:22:00     -197.891      -47.749      -12.720       93.478       96.793       46.422     8738.213     9368.823     2155.047        3.093        1.013      203.570       37.324        0.034      334.842        5.078      863.546
01/11/2014  23:23:00     -347.185      -83.152      -16.274       88.627      132.279       56.749     7854.787    17497.762     3220.435        7.814        1.429      357.004       43.563        0.015      334.875        5.134      863.524
01/11/2014  23:24:00     -364.776      -39.083      -38.445      159.976       59.159       53.416    25592.437     3499.825     2853.268        8.400        1.597      366.864       74.092        0.041      334.857        5.101      863.520
01/11/2014  23:25:00     -252.619        5.029      -15.827      119.618       61.380       41.634    14308.349     3767.501     1733.402        4.195        0.990      252.669       45.764        0.033      334.809        5.022      863.531
01/11/2014  23:26:00     -234.855     -121.676       -2.839      110.666      101.685       48.655    12246.928    10339.904     2367.277        4.746        1.248      264.503       50.353        0.036      334.827        5.053      863.545
01/11/2014  23:27:00     -198.992      -27.655        0.102       91.222       97.975       52.420     8321.398     9599.117     2747.872        3.051        1.033      200.905       45.839        0.052      334.807        5.020      863.554
01/11/2014  23:28:00     -288.456      -39.236      -19.698      102.375      100.871       42.686    10480.724    10175.054     1822.087        5.380        1.124      291.112       49.721        0.029      334.810        5.026      863.578
01/11/2014  23:29:00     -337.887       46.910      -24.394      114.996       93.928       44.053    13224.093     8822.404     1940.650        7.047        1.199      341.128       45.764        0.018      334.889        5.156      863.587
01/11/2014  23:30:00     -158.834      -45.697       -4.569      103.117       75.497       40.785    10633.058     5699.793     1663.425        2.266        0.900      165.277       40.994        0.062      334.813        5.030      863.614
01/11/2014  23:31:00     -127.896      -28.239      -20.774       59.328       43.704       28.525     3519.783     1910.017      813.650        1.191        0.312      130.977       28.518        0.047      334.795        5.003      863.678
01/11/2014  23:32:00      -36.123       -8.057        6.297       27.502       40.347       20.311      756.333     1627.918      412.525        0.210        0.140       37.010       16.997        0.211      334.752        4.932      863.705
01/11/2014  23:33:00      -24.395       71.340       -7.840       63.689       42.545       33.204     4056.313     1810.044     1102.511        0.636        0.348       75.396       34.315        0.207      334.766        4.955      863.719
01/11/2014  23:34:00      -37.844       88.912       -9.165       39.157       42.517       27.214     1533.291     1807.677      740.597        0.675        0.204       96.631       19.683        0.041      334.812        5.030      863.750
01/11/2014  23:35:00      -48.212      120.467      -13.346       37.287       46.677       27.798     1390.305     2178.722      772.724        1.068        0.217      129.756       22.662        0.031      334.812        5.032      863.798
01/11/2014  23:36:00     -104.314       98.975      -16.037       76.452       52.417       38.959     5844.985     2747.536     1517.821        1.552        0.506      143.797       44.242        0.095      334.805        5.019      863.845
01/11/2014  23:37:00     -121.739      145.808      -32.380       57.811       46.678       33.133     3342.116     2178.877     1097.779        2.187        0.331      189.948       33.800        0.032      334.807        5.020      863.888
01/11/2014  23:38:00     -110.090      104.945      -27.926       65.925       46.702       30.737     4346.076     2181.070      944.734        1.569        0.374      152.096       36.790        0.059      334.849        5.092      863.922
01/11/2014  23:39:00        1.429      175.927      -19.965       42.926       50.321       30.443     1842.601     2532.159      926.757        1.833        0.265      175.933       24.104        0.019      334.844        5.084      863.934
01/11/2014  23:40:00      -58.614       55.525       -4.068       40.386       47.730       35.859     1631.069     2278.147     1285.834        0.586        0.260       80.738       28.011        0.120      334.930        5.228      863.949
01/11/2014  23:41:00      -33.575      101.128      -15.867       45.133       48.919       24.789     2036.986     2393.092      614.493        0.832        0.252      106.556       20.214        0.036      334.989        5.325      863.964
01/11/2014  23:42:00      -23.123      139.423       -8.453       57.317       65.740       30.117     3285.198     4321.758      907.012        1.428        0.426      141.328       31.142        0.049      334.966        5.287      863.973
01/11/2014  23:43:00       23.323       98.458       -4.815       46.601       44.307       28.592     2171.673     1963.101      817.531        0.761        0.248      101.183       26.327        0.068      334.855        5.102      863.958
01/11/2014  23:44:00       99.276       95.945       20.035       81.188       62.477       54.359     6591.544     3903.323     2954.946        1.645        0.672      138.062       40.867        0.088      334.721        4.877      863.931
01/11/2014  23:45:00       61.937      130.023       -6.143       69.262       98.880       51.411     4797.228     9777.179     2643.112        1.900        0.861      144.022       51.725        0.129      334.593        4.665      863.916
01/11/2014  23:46:00       70.263      132.267        1.231       74.504       93.855       60.381     5550.907     8808.687     3645.903        2.022        0.900      149.771       51.452        0.118      334.528        4.558      863.915
01/11/2014  23:47:00       30.781      172.115      -16.852       50.599       73.498       49.966     2560.218     5401.912     2496.566        2.066        0.523      174.846       33.733        0.037      334.447        4.423      863.896
01/11/2014  23:48:00       17.862      118.944      -15.648       45.496       73.041       38.245     2069.908     5334.961     1462.690        1.179        0.443      120.278       38.377        0.102      334.426        4.392      863.905
01/11/2014  23:49:00       70.060       82.376        4.318       81.124       49.693       40.010     6581.173     2469.430     1600.807        1.118        0.533      108.139       30.446        0.079      334.376        4.309      863.903
01/11/2014  23:50:00      143.561      161.634       -4.886       91.246       61.792       51.282     8325.864     3818.283     2629.821        3.076        0.739      216.184       44.182        0.042      334.358        4.275      863.914
01/11/2014  23:51:00       76.364      168.046      -15.869       50.166       97.663       45.074     2516.585     9538.030     2031.633        2.420        0.704      184.583       54.114        0.086      334.330        4.229      863.926
01/11/2014  23:52:00       69.524      134.979       -0.739       76.618      102.542       57.389     5870.306    10514.929     3293.553        2.136        0.984      151.832       56.336        0.138      334.326        4.224      863.930
01/11/2014  23:53:00       66.748      176.445      -23.491       59.274       88.175       57.992     3513.351     7774.868     3363.117        2.539        0.733      188.648       56.520        0.090      334.307        4.190      863.914
01/11/2014  23:54:00       80.656      129.726        6.386       87.678      103.546       69.883     7687.485    10721.712     4883.639        2.333        1.165      152.756       59.416        0.151      334.297        4.176      863.914
01/11/2014  23:55:00      120.710      160.408       10.411      115.485       86.079       66.932    13336.876     7409.631     4479.851        3.281        1.261      200.752       50.282        0.063      334.307        4.191      863.910
01/11/2014  23:56:00       67.581      178.646       -6.221       97.512      132.500       73.404     9508.574    17556.252     5388.118        3.448        1.623      191.001       78.503        0.169      334.305        4.189      863.943
01/11/2014  23:57:00       74.491      219.942       -9.578       78.172      185.003       84.850     6110.797    34226.147     7199.445        5.077        2.377      232.215      105.748        0.207      334.322        4.216      863.984
01/11/2014  23:58:00       51.176      246.667      -24.329       87.036      129.737       72.290     7575.303    16831.675     5225.806        4.684        1.482      251.920       77.521        0.095      334.312        4.199      864.018
01/11/2014  23:59:00       38.999      263.830      -33.318       65.208      124.426       54.449     4252.093    15481.811     2964.721        4.746        1.135      266.697       65.353        0.060      334.313        4.203      864.016
